[[{"header":{"parameterUnit":"m.s-1","parameterCategory":1,"la1":30.6,"la2":29.2853,"lo1":-89.7004,"lo2":-87.6739,"dy":0.0162,"dx":0.0183,"nx":112,"ny":82,"refTime":"2023-09-16T18:00:00:Z","depth":0,"parameterNumber":2,"parameterNumberName":"U-component_of_WINDS"},"data":[0.0,0.0,0.0,0.0,0.0,0.0,0.0,0.0,0.0,0.0,0.0,0.0,0.0,0.0,0.0,0.0,0.0,0.0,0.0,0.0,0.0,0.0,0.0,0.0,0.0,0.0,0.0,0.0,0.0,0.0,0.0,0.0,0.0,0.0,0.0,0.0,0.0,0.0,0.0,0.0,0.0,0.0,0.0,0.0,0.0,0.0,0.0,0.0,0.0,0.0,0.0,0.0,0.0,0.0,0.0,0.0,0.0,0.0,0.0,0.0,0.0,0.0,0.0,0.0,0.0,0.0,0.0,0.0,0.0,0.0,0.0,0.0,0.0,0.0,0.0,0.0,0.0,0.0,0.0,0.0,0.0,0.0,0.0,0.0,0.0,0.0,0.0,0.0,0.0,0.0,0.0,1.4153,1.4619,1.4897,1.4897,1.4527,1.4137,1.373,0.0,0.0,0.0,0.0,0.0,0.0,0.0,0.0,0.0,0.0,0.0,0.0,0.0,0.0,0.0,0.0,0.0,0.0,0.0,0.0,0.0,0.0,0.0,0.0,0.0,0.0,0.0,0.0,0.0,0.0,0.0,0.0,0.0,0.0,0.0,0.0,0.0,0.0,0.0,0.0,0.0,0.0,0.0,0.0,0.0,0.0,0.0,0.0,0.0,0.0,0.0,0.0,0.0,0.0,0.0,0.0,0.0,0.0,0.0,0.0,0.0,0.0,0.0,0.0,0.0,0.0,0.0,0.0,0.0,0.0,0.0,0.0,0.0,0.0,0.0,0.0,0.0,0.0,0.0,0.0,0.0,0.0,0.0,0.0,0.0,0.0,0.0,0.0,0.0,0.0,0.0,0.0,0.0,0.0,0.0,0.0,0.0,0.0,0.0,0.0,0.0,0.0,0.0,0.0,1.3809,1.46,1.5059,1.5312,1.5312,1.5239,1.5025,1.4633,0.0,0.0,0.0,0.0,0.0,0.0,0.0,0.0,0.0,0.0,0.0,0.0,0.0,0.0,0.0,0.0,0.0,0.0,0.0,0.0,0.0,0.0,0.0,0.0,0.0,0.0,0.0,0.0,0.0,0.0,0.0,0.0,0.0,0.0,0.0,0.0,0.0,0.0,0.0,0.0,0.0,0.0,0.0,0.0,0.0,0.0,0.0,0.0,0.0,0.0,0.0,0.0,0.0,0.0,0.0,0.0,0.0,0.0,0.0,0.0,0.0,0.0,0.0,0.0,0.0,0.0,0.0,0.0,0.0,0.0,0.0,0.0,0.0,0.0,0.0,0.0,0.0,0.0,0.0,0.0,0.0,0.0,0.0,0.0,0.0,0.0,0.0,0.0,0.0,0.0,0.0,0.0,0.0,0.0,0.0,0.0,0.0,0.0,0.0,0.0,0.0,0.0,0.0,1.4053,1.4434,1.5059,1.5278,1.5396,1.5396,1.5205,1.5004,1.4809,1.4361,0.0,0.0,0.0,0.0,0.0,0.0,0.0,0.0,0.0,0.0,0.0,0.0,0.0,0.0,0.0,0.0,0.0,0.0,0.0,0.0,0.0,0.0,0.0,0.0,0.0,0.0,0.0,0.0,0.0,0.0,0.0,0.0,0.0,0.0,0.0,0.0,0.0,0.0,0.0,0.0,0.0,0.0,0.0,0.0,0.0,0.0,0.0,0.0,0.0,0.0,0.0,0.0,0.0,0.0,0.0,0.0,0.0,0.0,0.0,0.0,0.0,0.0,0.0,0.0,0.0,0.0,0.0,0.0,0.0,0.0,0.0,0.0,0.0,0.0,0.0,0.0,0.0,0.0,0.0,0.0,0.0,0.0,0.0,0.0,0.0,0.0,0.0,0.0,0.0,0.0,0.0,0.0,0.0,0.0,0.0,0.0,0.0,0.0,0.0,0.0,0.0,0.0,1.4586,1.5059,1.5366,1.5396,1.5396,1.5396,1.5117,1.4946,1.4946,1.4605,0.0,0.0,0.0,0.0,0.0,0.0,0.0,0.0,0.0,0.0,0.0,0.0,0.0,0.0,0.0,0.0,0.0,0.0,0.0,0.0,0.0,0.0,0.0,0.0,0.0,0.0,0.0,0.0,0.0,0.0,0.0,0.0,0.0,0.0,0.0,0.0,0.0,0.0,0.0,0.0,0.0,0.0,0.0,0.0,0.0,0.0,0.0,0.0,0.0,0.0,0.0,0.0,0.0,0.0,0.0,0.0,0.0,0.0,0.0,0.0,0.0,0.0,0.0,0.0,0.0,0.0,0.0,0.0,0.0,0.0,0.0,0.0,0.0,0.0,0.0,0.0,0.0,0.0,0.0,0.0,0.0,0.0,0.0,0.0,0.0,0.0,0.0,0.0,0.0,0.0,0.0,0.0,0.0,0.0,0.0,0.0,0.0,0.0,0.0,0.0,0.0,0.0,1.4839,1.5366,1.541,1.5396,1.5396,1.5396,1.5366,1.5371,1.5371,1.5327,0.0,0.0,0.0,0.0,0.0,0.0,0.0,0.0,0.0,0.0,0.0,0.0,0.0,0.0,0.0,0.0,0.0,0.0,0.0,0.0,0.0,0.0,0.0,0.0,0.0,0.0,0.0,0.0,0.0,0.0,0.0,0.0,0.0,0.0,0.0,0.0,0.0,0.0,0.0,0.0,0.0,0.0,0.0,0.0,0.0,0.0,0.0,0.0,0.0,0.0,0.0,0.0,0.0,0.0,0.0,0.0,0.0,0.0,0.0,0.0,0.0,0.0,0.0,0.0,0.0,0.0,0.0,0.0,0.0,0.0,0.0,0.0,0.0,0.0,0.0,0.0,0.0,0.0,0.0,0.0,0.0,0.0,0.0,0.0,0.0,0.0,0.0,0.0,0.0,0.0,0.0,0.0,0.0,0.0,0.0,0.0,0.0,0.0,0.0,0.0,0.0,0.0,1.4855,1.5396,0.0,1.5396,1.5396,1.5396,1.5396,1.5396,1.5396,0.0,0.0,0.0,0.0,0.0,0.0,0.0,0.0,0.0,0.0,0.0,0.0,0.0,0.0,0.0,0.0,0.0,0.0,0.0,0.0,0.0,0.0,0.0,0.0,0.0,0.0,0.0,0.0,0.0,0.0,0.0,0.0,0.0,0.0,0.0,0.0,0.0,0.0,0.0,0.0,0.0,0.0,0.0,0.0,0.0,0.0,0.0,0.0,0.0,0.0,0.0,0.0,0.0,0.0,0.0,0.0,0.0,0.0,0.0,0.0,0.0,0.0,0.0,0.0,0.0,0.0,0.0,0.0,0.0,0.0,0.0,0.0,0.0,0.0,0.0,0.0,0.0,0.0,0.0,0.0,0.0,0.0,0.0,0.0,0.0,0.0,0.0,0.0,0.0,0.0,0.0,0.0,0.0,0.0,0.0,0.0,0.0,0.0,0.0,0.0,0.0,0.0,1.4547,1.5035,1.5469,0.0,1.5498,1.5396,1.5396,1.5396,1.5396,1.5396,0.0,0.0,0.0,0.0,0.0,0.0,0.0,0.0,0.0,0.0,0.0,0.0,0.0,0.0,0.0,0.0,0.0,0.0,0.0,0.0,0.0,0.0,0.0,0.0,0.0,0.0,0.0,0.0,0.0,0.0,0.0,0.0,0.0,0.0,0.0,0.0,0.0,0.0,0.0,0.0,0.0,0.0,0.0,0.0,0.0,0.0,0.0,0.0,0.0,0.0,0.0,0.0,0.0,0.0,0.0,0.0,0.0,0.0,0.0,0.0,0.0,0.0,0.0,0.0,0.0,0.0,0.0,0.0,0.0,0.0,0.0,0.0,0.0,0.0,0.0,0.0,0.0,0.0,0.0,0.0,0.0,0.0,0.0,0.0,0.0,0.0,0.0,0.0,0.0,0.0,0.0,0.0,0.0,0.0,0.0,0.0,0.0,0.0,0.0,0.0,0.0,0.0,1.5347,1.5405,1.5586,1.6046,1.5689,1.5396,1.5396,1.5396,1.5396,0.0,0.0,0.0,0.0,0.0,0.0,0.0,0.0,0.0,0.0,0.0,0.0,0.0,0.0,0.0,0.0,0.0,0.0,0.0,0.0,0.0,0.0,0.0,0.0,0.0,0.0,0.0,0.0,0.0,0.0,0.0,0.0,0.0,0.0,0.0,0.0,0.0,0.0,0.0,0.0,0.0,0.0,0.0,0.0,0.0,0.0,0.0,0.0,0.0,0.0,0.0,0.0,0.0,0.0,0.0,0.0,0.0,0.0,0.0,0.0,0.0,0.0,0.0,0.0,0.0,0.0,0.0,0.0,0.0,0.0,0.0,0.0,0.0,0.0,0.0,0.0,0.0,0.0,0.0,0.0,0.0,0.0,0.0,0.0,0.0,0.0,0.0,0.0,0.0,0.0,0.0,0.0,0.0,0.0,0.0,0.0,0.0,0.0,0.0,0.0,0.0,0.0,0.0,1.5439,1.5698,1.5948,1.61,1.5689,1.5396,1.5396,1.5396,1.5396,1.5396,0.0,0.0,0.0,0.0,0.0,0.0,0.0,0.0,0.0,0.0,0.0,0.0,0.0,0.0,0.0,0.0,0.0,0.0,0.0,0.0,0.0,0.0,0.0,0.0,0.0,0.0,0.0,0.0,0.0,0.0,0.0,0.0,0.0,0.0,0.0,0.0,0.0,0.0,0.0,0.0,0.0,0.0,0.0,0.0,0.0,0.0,0.0,0.0,0.0,0.0,0.0,0.0,0.0,0.0,0.0,0.0,0.0,0.0,0.0,0.0,0.0,0.0,0.0,0.0,0.0,0.0,0.0,0.0,0.0,0.0,0.0,0.0,0.0,0.0,0.0,0.0,0.0,0.0,0.0,0.0,0.0,0.0,0.0,0.0,0.0,0.0,0.0,0.0,0.0,0.0,0.0,0.0,0.0,0.0,0.0,0.0,0.0,0.0,0.0,0.0,0.0,0.0,1.5932,1.6162,1.6344,1.6344,1.5943,1.5596,1.5415,1.5396,1.5396,1.5396,0.0,0.0,0.0,0.0,0.0,0.0,0.0,0.0,0.0,0.0,0.0,0.0,0.0,0.0,0.0,0.0,0.0,0.0,0.0,0.0,0.0,0.0,0.0,0.0,0.0,0.0,0.0,0.0,0.0,0.0,0.0,0.0,0.0,0.0,0.0,0.0,0.0,0.0,0.0,0.0,0.0,0.0,0.0,0.0,0.0,0.0,0.0,0.0,0.0,0.0,0.0,0.0,0.0,0.0,0.0,0.0,0.0,0.0,0.0,0.0,0.0,0.0,0.0,0.0,0.0,0.0,0.0,0.0,0.0,0.0,0.0,0.0,0.0,0.0,0.0,0.0,0.0,0.0,0.0,0.0,0.0,0.0,0.0,0.0,0.0,0.0,0.0,0.0,0.0,0.0,0.0,0.0,0.0,0.0,0.0,0.0,0.0,0.0,0.0,0.0,0.0,0.0,1.6648,1.6736,1.6755,1.6755,1.6396,1.5982,1.5552,1.5483,1.5474,1.5522,0.0,0.0,0.0,0.0,0.0,0.0,0.0,0.0,0.0,0.0,0.0,0.0,0.0,0.0,0.0,0.0,0.0,0.0,0.0,0.0,0.0,0.0,0.0,0.0,0.0,0.0,0.0,0.0,0.0,0.0,0.0,0.0,0.0,0.0,0.0,0.0,0.0,0.0,0.0,0.0,0.0,0.0,0.0,0.0,0.0,0.0,0.0,0.0,0.0,0.0,0.0,0.0,0.0,0.0,0.0,0.0,0.0,0.0,0.0,0.0,1.4137,0.0,0.0,0.0,0.0,0.0,0.0,0.0,0.0,0.0,0.0,0.0,0.0,0.0,0.0,0.0,0.0,0.0,0.0,0.0,0.0,0.0,0.0,0.0,0.0,0.0,0.0,0.0,0.0,0.0,0.0,0.0,0.0,0.0,0.0,0.0,0.0,0.0,0.0,0.0,0.0,0.0,1.6687,1.7015,1.7246,1.7246,1.683,1.6537,1.6424,1.6123,1.6089,1.6395,1.5786,0.0,0.0,0.0,0.0,0.0,0.0,0.0,0.0,0.0,0.0,0.0,0.0,0.0,0.0,0.0,0.0,0.0,0.0,0.0,0.0,0.0,0.0,0.0,0.0,0.0,0.0,0.0,0.0,0.0,0.0,0.0,0.0,0.0,0.0,0.0,0.0,0.0,0.0,0.0,0.0,0.0,0.0,0.0,0.0,0.0,0.0,0.0,0.0,0.0,0.0,0.0,0.0,0.0,0.0,0.0,0.0,0.0,0.0,0.0,0.0,1.4674,0.0,0.0,0.0,0.0,0.0,0.0,0.0,0.0,0.0,0.0,0.0,0.0,0.0,0.0,0.0,0.0,0.0,0.0,0.0,0.0,0.0,0.0,0.0,0.0,0.0,0.0,0.0,0.0,0.0,0.0,0.0,0.0,0.0,0.0,0.0,0.0,0.0,0.0,0.0,0.0,1.7021,1.7422,1.7607,1.7419,1.7178,1.6947,1.6716,1.6508,1.6484,1.6687,1.6283,0.0,0.0,0.0,0.0,0.0,0.0,0.0,0.0,0.0,0.0,0.0,0.0,0.0,0.0,0.0,0.0,0.0,0.0,0.0,0.0,0.0,0.0,0.0,0.0,0.0,0.0,0.0,0.0,0.0,0.0,0.0,0.0,0.0,0.0,0.0,0.0,0.0,0.0,0.0,0.0,0.0,0.0,0.0,0.0,0.0,0.0,0.0,0.0,0.0,0.0,0.0,0.0,0.0,0.0,1.6617,1.6921,1.6921,1.6921,1.6863,1.5811,1.5459,1.562,0.0,0.0,0.0,0.0,0.0,0.0,0.0,0.0,0.0,0.0,0.0,0.0,0.0,0.0,0.0,0.0,0.0,0.0,0.0,0.0,0.0,0.0,0.0,0.0,0.0,1.6153,1.6099,0.0,0.0,0.0,0.0,0.0,0.0,0.0,0.0,0.0,0.0,0.0,0.0,1.7441,1.7861,1.7988,1.7637,1.7556,1.7353,1.696,1.6853,1.6843,1.6921,1.6785,1.6775,0.0,0.0,0.0,0.0,0.0,0.0,0.0,0.0,0.0,0.0,0.0,0.0,0.0,0.0,0.0,0.0,0.0,0.0,0.0,0.0,0.0,0.0,0.0,0.0,0.0,0.0,0.0,0.0,0.0,0.0,0.0,0.0,0.9724,0.977,0.0,0.0,0.0,0.0,0.0,0.0,0.0,0.0,0.0,0.0,0.0,0.0,0.0,0.0,1.6356,1.6826,1.7256,1.7649,1.7725,1.7783,1.7825,1.7825,1.7825,1.7815,1.764,0.0,1.6492,1.6148,0.0,0.0,0.0,0.0,0.0,0.0,0.0,0.0,0.0,0.0,0.0,0.0,0.0,0.0,0.0,0.0,0.0,0.0,0.0,0.0,0.0,0.0,1.6016,1.61,1.6373,1.6599,0.0,1.6586,1.659,1.6541,0.0,0.0,0.0,0.0,0.0,0.0,0.0,0.0,1.792,1.8274,1.85,1.8442,1.8127,1.791,1.7825,1.751,1.7451,1.7805,1.7116,1.7028,1.7796,1.749,0.0,0.0,0.0,0.0,0.0,0.0,0.0,0.0,0.0,0.0,0.0,0.0,0.0,0.0,0.0,0.0,0.0,0.0,0.0,0.0,0.0,0.0,0.0,0.0,0.0,0.0,0.0,0.0,0.0,1.0769,1.1464,1.1238,1.2028,1.2663,0.0,0.0,0.0,0.0,0.0,0.0,0.0,0.0,0.0,1.6592,1.7197,1.7591,1.7769,1.8232,1.8662,1.9082,1.9082,1.9209,1.9452,1.9189,1.9082,1.9072,1.8828,1.8516,1.8096,1.7194,1.6777,1.6658,0.0,0.0,0.0,0.0,0.0,1.6484,1.6225,0.0,0.0,0.0,0.0,0.0,0.0,0.0,0.0,0.0,0.0,0.0,0.0,0.0,0.0,1.7057,1.7129,1.721,1.7672,1.7584,1.7288,0.0,1.6908,1.7005,1.6746,0.0,0.0,0.0,0.0,0.0,1.8662,1.8887,1.8986,1.8986,1.8605,1.8342,1.8342,1.7978,1.7812,1.7981,1.764,1.7601,1.7971,1.7832,1.7734,0.0,0.0,0.0,0.0,0.0,0.0,0.0,0.0,0.0,0.0,0.0,0.0,0.0,0.0,0.0,0.0,0.0,0.0,0.0,0.0,0.0,0.0,0.0,0.0,0.0,0.0,0.0,0.0,1.2134,1.2993,1.2595,1.3374,1.3982,0.0,0.0,0.0,0.0,0.0,0.0,1.6989,1.7578,1.8018,1.833,1.883,1.9162,1.926,1.961,2.0,2.042,2.042,2.0586,2.0908,2.0566,2.042,2.04,2.0107,1.9911,1.9678,1.8281,1.7578,1.7347,1.7116,1.7096,1.7174,1.7067,1.7249,1.75,1.7152,1.7259,1.7468,1.692,0.0,1.6656,1.6196,0.0,0.0,0.0,0.0,1.7028,1.7028,0.0,1.735,1.8001,1.8018,1.8047,1.8644,1.8537,1.8115,0.0,1.7464,1.7637,1.7405,0.0,0.0,0.0,0.0,1.8857,1.9393,1.9569,1.9589,1.9481,1.9044,1.8781,1.8781,1.8401,1.8147,1.8147,1.8066,1.7991,1.7991,1.7991,1.7991,1.7991,0.0,0.0,0.0,0.0,0.0,0.0,0.0,0.0,0.0,0.0,0.0,0.0,0.0,0.0,0.0,0.0,0.0,0.0,0.0,0.0,0.0,0.0,0.0,0.0,0.0,0.0,0.0,0.0,0.0,1.3025,1.4068,0.0,0.0,0.0,0.0,1.657,1.7041,1.7497,1.7903,1.874,1.9217,1.9219,2.0048,2.0674,2.1064,2.1083,2.1337,2.1808,2.1808,2.1817,2.1837,2.1817,2.1808,2.1808,2.1788,2.1523,2.0966,1.9251,1.8791,1.91,1.8262,1.8176,1.8461,1.8079,1.7942,1.7978,1.7932,1.7942,1.802,1.8354,1.8471,1.8393,1.7991,1.79,0.0,0.0,1.7932,1.7932,1.7932,1.8225,1.852,1.8559,1.8888,1.9217,1.9266,1.9256,1.9092,0.0,1.852,1.8666,1.911,0.0,1.917,1.9237,1.9931,2.0322,1.9913,2.0263,2.0361,1.9932,1.9502,1.9248,1.9248,1.884,1.8568,1.8568,1.8215,1.7991,1.7991,1.7991,1.7991,1.7991,1.7991,0.0,0.0,0.0,0.0,0.0,0.0,0.0,0.0,0.0,0.0,0.0,0.0,0.0,0.0,0.0,0.0,0.0,0.0,0.0,0.0,0.0,0.0,0.0,0.0,0.0,0.0,0.0,0.0,1.5033,1.612,0.0,1.6668,1.7279,1.7883,1.834,1.8769,1.9326,2.003,2.0352,2.0654,2.0967,2.1523,2.1894,2.203,2.204,2.2254,2.2664,2.2412,2.241,2.2664,2.2412,2.2295,2.2275,2.2002,2.1817,2.1602,2.0986,2.0478,2.0116,1.9794,1.9765,1.9882,1.9726,1.9834,2.002,1.9756,1.9667,1.9559,1.8822,1.8598,1.8627,1.8789,1.9023,1.9297,1.9599,1.9667,1.9667,1.9667,1.9784,1.9951,2.0215,2.0205,2.0136,2.0136,1.9911,1.9648,1.9474,1.922,1.9102,1.9276,1.9512,1.9785,2.0087,2.0615,2.1025,2.1162,2.1074,2.0918,2.0742,2.0108,1.9697,1.9697,1.9025,1.8598,1.8598,1.8225,1.7991,1.7991,1.7991,1.7991,1.7991,1.7991,1.7991,0.0,0.0,0.0,0.0,0.0,0.0,0.0,0.0,0.0,0.0,0.0,0.0,0.0,0.0,0.0,0.0,0.0,0.0,0.0,0.0,0.0,0.0,0.0,0.0,0.0,0.0,1.7229,1.699,1.8094,1.8818,1.8672,1.9043,1.9454,1.9912,2.0186,2.0664,2.1396,2.1571,2.1776,2.209,2.2488,2.2703,2.2703,2.2703,2.284,2.3091,2.283,2.2849,2.3081,2.283,2.2703,2.2684,2.2432,2.2305,2.2305,2.2305,2.1963,2.1426,2.1143,2.1035,2.1035,2.1035,2.1221,2.1386,2.1133,2.1035,2.0889,1.9991,1.9718,1.9766,2.0078,2.0361,2.0644,2.0947,2.1035,2.1035,2.1035,2.1035,2.1104,2.1357,2.1221,2.1035,2.1035,2.0781,2.0576,2.0576,1.999,1.96,1.9893,2.0157,2.0488,2.0967,2.1387,2.1698,2.1886,2.1758,2.1591,2.1454,2.0781,2.0342,2.0342,1.9542,1.8968,1.8849,1.844,1.8137,1.8018,1.7991,1.7991,1.7991,1.7991,1.7991,1.7991,0.0,0.0,0.0,0.0,0.0,0.0,0.0,0.0,0.0,0.0,0.0,0.0,0.0,0.0,0.0,0.0,0.0,0.0,0.0,0.0,0.0,0.0,0.0,1.6833,1.7867,1.8666,1.8685,1.9834,2.0459,2.0019,2.039,2.083,2.12,2.1249,2.1454,2.1904,2.2314,2.2529,2.2529,2.2908,2.3091,2.3091,2.3091,2.3091,2.3091,2.3091,2.3091,2.3091,2.3091,2.3091,2.3091,2.3091,2.3091,2.3091,2.3091,2.3091,2.3013,2.2246,2.1944,2.1944,2.1944,2.1944,2.1944,2.1925,2.1925,2.1925,2.1894,2.1915,2.1925,2.1925,2.1935,2.1944,2.1944,2.1944,2.1944,2.1944,2.1944,2.1944,2.1944,2.1944,2.1924,2.1925,2.1925,2.1925,2.1905,2.085,2.0225,2.1093,2.122,2.1396,2.1846,2.2266,0.0,2.2003,2.2266,2.2353,2.1974,2.1493,2.121,2.119,2.0401,1.9736,1.9335,1.8849,1.8403,1.8027,1.7991,1.8018,1.8027,1.803,1.803,1.803,0.0,0.0,0.0,0.0,0.0,0.0,0.0,0.0,0.0,0.0,0.0,0.0,0.0,0.0,0.0,0.0,0.0,0.0,0.0,0.0,0.0,0.0,1.8342,1.8555,1.9442,2.0156,2.044,2.1113,2.1495,2.1357,2.1728,2.2031,2.2127,2.2399,2.2623,2.2762,2.2857,2.2947,2.2947,2.3033,2.3091,2.3091,2.3091,2.3091,2.3091,2.3091,2.3091,2.3091,2.3091,2.3091,2.3091,2.3091,2.3091,2.3091,2.3091,2.3091,2.3071,2.2859,2.2771,2.2771,2.2771,2.2771,2.2732,2.2441,2.2344,2.2295,2.1982,2.209,2.2344,2.2344,2.2527,2.2771,2.2771,2.2771,2.2771,2.2771,2.2771,2.2771,2.2771,2.2771,2.2693,2.2402,2.2344,2.2246,2.1964,2.1592,2.1426,2.166,2.1963,2.2176,2.2324,2.2684,0.0,2.2791,2.2606,2.2471,2.2353,2.1963,2.1582,2.122,2.0401,1.9736,1.9335,1.8594,1.8118,1.8001,1.7991,1.8137,1.8422,1.8769,1.8936,0.0,0.0,0.0,0.0,0.0,0.0,0.0,0.0,0.0,0.0,0.0,0.0,0.0,0.0,0.0,0.0,0.0,0.0,0.0,0.0,0.0,0.0,1.8958,1.9981,2.082,2.1055,2.1299,2.1698,2.2127,2.2412,2.2412,2.2793,2.2969,2.2762,2.3142,2.3308,2.311,2.3288,2.3386,2.3386,2.3386,2.3386,2.3386,2.321,2.3091,2.3091,2.3091,2.3091,2.3091,2.3091,2.3091,0.0,2.3091,2.3091,2.3091,2.3091,2.3091,0.0,0.0,0.0,0.0,0.0,2.3091,2.3062,2.284,2.2752,2.2713,2.249,2.2557,2.2752,2.2752,2.2896,2.3091,2.3091,2.3091,2.3091,2.3091,2.3091,2.3091,2.3091,2.3091,2.3054,2.2801,2.2752,2.2684,2.2461,0.0,0.0,2.2412,2.2471,2.2547,2.2723,2.2945,2.3091,2.3091,2.2908,2.2752,2.2752,2.2402,2.1973,2.1523,2.0849,0.0,0.0,0.0,1.873,1.8555,1.8545,0.0,0.0,0.0,1.9305,1.9305,0.0,0.0,0.0,1.9415,1.9551,0.0,0.0,0.0,0.0,0.0,0.0,0.0,0.0,0.0,0.0,0.0,0.0,0.0,0.0,0.0,0.0,2.0713,2.1776,2.3041,2.2609,2.2305,2.2676,2.3035,2.3237,2.3237,2.361,2.3682,2.3198,2.3613,2.3672,2.3188,0.0,0.0,0.0,0.0,2.3789,2.3789,2.3386,2.3191,2.3169,2.3218,2.3237,2.3237,2.3188,2.3191,2.3191,2.312,2.3178,2.3299,2.3299,2.3365,2.3452,2.32,2.3091,2.3091,2.3091,2.3091,0.0,0.0,0.0,0.0,2.3091,2.3091,2.3091,2.3091,2.3091,2.3091,2.3091,2.3091,2.3091,2.3091,2.3091,2.3091,2.3091,2.3091,2.3091,2.3091,2.3091,2.3091,2.3091,2.3091,2.3091,2.3091,2.281,2.2693,2.3042,2.3091,2.3091,2.3091,2.3091,2.3091,2.3091,0.0,0.0,2.1992,2.1542,2.0918,2.002,1.9902,1.9678,1.9307,1.9336,1.9374,1.9374,1.9423,1.9452,1.9452,1.9805,1.999,1.999,1.999,1.999,0.0,0.0,0.0,0.0,0.0,0.0,0.0,0.0,0.0,0.0,0.0,0.0,0.0,0.0,0.0,1.9727,2.122,2.2471,2.3098,2.3603,2.3955,2.401,2.4098,2.4147,2.4147,2.4225,2.4121,2.3691,2.4053,2.4088,2.3691,2.4062,0.0,2.4274,2.3965,2.3789,2.3789,2.3711,2.3662,2.3662,0.0,0.0,2.4137,2.3818,2.3662,2.3643,2.3269,2.3616,2.4478,2.4478,2.501,2.5662,2.3822,2.3091,2.3091,2.3091,2.3091,2.3091,2.3091,2.3091,2.3091,2.3091,2.3091,2.3091,2.3091,2.3091,0.0,2.3091,2.3091,2.3091,2.3091,2.3091,2.3091,2.3091,2.3091,2.3091,2.3091,2.3091,2.3091,2.3091,2.3091,2.3091,2.3091,2.3054,2.3003,2.3081,2.3091,2.3091,2.3091,2.3091,2.3091,2.3091,2.3023,2.283,2.2432,2.2002,2.1387,2.0517,1.9804,1.9375,1.9287,1.9609,1.9776,1.9776,2.0156,2.0351,2.0351,2.042,2.0459,2.0459,2.0459,2.0459,0.0,0.0,0.0,0.0,0.0,0.0,0.0,0.0,0.0,0.0,0.0,1.7932,0.0,0.0,2.0196,2.1054,2.2305,2.3301,2.373,2.4508,2.4967,2.4766,2.4746,2.4834,2.5035,2.5054,2.4869,2.4486,2.4642,2.456,2.4121,2.4512,2.4746,2.4746,2.4564,2.4457,2.4457,2.4209,2.4102,2.4102,2.4293,2.4391,2.4404,2.3984,2.3789,2.3769,2.3308,2.3757,2.4851,2.542,2.5996,2.6327,2.4617,2.4296,2.4723,2.4156,2.3941,2.3865,2.3299,2.3091,2.3091,2.3091,2.3091,2.3091,2.3091,2.3091,2.3091,2.3091,2.3091,2.3091,2.3091,2.3091,2.3091,2.3091,2.3091,2.3091,2.3091,2.3091,2.3091,2.3091,2.3091,2.3091,2.3091,2.3091,2.3091,2.3091,2.3091,2.3091,2.3091,2.3091,2.3091,2.3091,2.3091,2.2947,2.2527,2.2129,2.1602,2.0937,2.0498,2.0156,1.996,2.0146,2.0263,2.0263,2.0468,2.0605,2.0605,2.0605,2.0605,2.0605,2.0605,2.0605,0.0,0.0,0.0,0.0,0.0,0.0,0.0,0.0,1.7564,1.844,1.882,1.9337,2.0508,2.1133,2.1718,2.2488,2.3418,2.4183,2.4492,2.5279,2.5737,2.5503,2.5473,2.5596,2.5923,2.5884,2.5659,2.5258,2.5219,2.501,2.456,2.4961,2.5219,2.5219,2.5141,2.5092,2.5092,2.4717,2.4541,2.4551,2.4606,2.4654,2.4635,2.4141,2.3906,2.3909,2.3811,2.4403,2.5535,2.6678,2.7139,2.7037,2.589,2.5994,2.6616,2.5041,2.4478,2.4339,2.343,2.3091,2.3091,2.3091,2.3091,2.3091,2.3091,2.3091,2.3091,2.3091,2.3091,2.3091,2.3091,2.3091,2.3091,2.3091,2.3091,2.3091,2.3091,2.3091,2.3091,2.3091,2.3091,2.3091,2.3091,2.3091,2.3091,2.3091,2.3091,2.3091,2.3091,2.3091,2.3091,2.3091,2.3091,2.2976,2.2635,2.2246,2.1855,2.1484,2.1386,2.1201,2.0879,2.0762,2.0713,2.0713,2.0713,2.0713,2.0713,2.0801,2.084,2.084,2.084,2.0752,1.3503,1.4404,1.5635,1.6871,1.748,1.8291,0.0,0.0,1.9786,2.0654,2.0596,2.0537,2.1045,2.1805,2.2498,2.2967,2.4111,2.4965,2.5014,2.5776,2.6435,2.6758,2.6797,2.6816,2.684,2.6533,2.6133,2.5669,2.564,2.5445,2.5043,2.542,2.564,2.564,2.5297,2.5092,2.5092,2.5043,2.5024,2.5024,2.5376,2.5538,2.5532,2.4703,2.4323,2.4411,2.5594,2.6728,2.7824,2.8969,2.9436,2.9307,2.8187,2.7804,2.7542,2.4446,2.3288,2.3256,2.3135,2.3091,2.3091,2.3091,2.3091,2.3091,2.3091,2.3091,2.3091,2.3091,2.3091,2.3091,2.3091,2.3091,2.3091,2.3091,2.3091,2.3091,2.3091,2.3091,2.3091,2.3091,2.3091,2.3091,2.3091,2.3091,2.3091,2.3091,2.3091,2.3091,2.3091,2.3091,2.3091,2.3091,2.3091,2.3081,2.3054,2.2664,2.2401,2.2352,2.2021,2.1787,2.1759,2.1347,2.1122,2.1122,2.1122,2.1122,2.1122,2.1543,2.1759,2.1759,2.1759,2.1338,1.5161,1.6118,0.0,0.0,1.8605,1.9337,2.0235,2.0371,2.0615,2.1727,2.2001,2.2254,2.2937,2.3357,2.3659,0.0,2.4742,2.5459,2.5459,2.6426,2.7135,2.7021,2.7236,2.749,2.7734,2.7148,2.6787,2.6855,2.6396,2.6035,2.5874,2.5747,2.5693,2.5693,2.5532,2.5459,2.5459,2.5459,2.5459,2.5459,2.6362,2.6414,2.5727,2.6202,2.6144,2.57,2.6898,2.7683,2.8136,2.8617,2.8806,2.8648,2.688,2.6573,2.6912,2.4861,2.451,2.4893,2.356,2.3529,2.3984,2.3321,2.3091,2.3091,2.3091,2.3091,2.3091,2.3091,2.3091,2.3091,2.3091,2.3594,2.392,2.3266,2.3616,2.3898,2.3244,2.3091,2.3091,2.3091,2.3091,2.3091,2.3091,2.3091,2.3091,2.3091,2.3091,2.3091,2.3091,2.3091,2.3091,2.3091,2.3091,2.3091,2.3091,2.2957,2.2752,2.2508,2.2344,2.2139,2.1915,2.1709,2.1611,2.1611,2.1611,2.1611,2.1611,2.1797,2.1905,2.1905,2.1905,2.171,1.6244,0.0,0.0,1.881,1.9708,2.0518,2.0752,2.1162,2.1778,2.2822,2.3259,2.3659,2.4274,2.4521,2.459,2.459,2.5318,2.5854,2.5728,2.6748,2.735,2.6894,2.7119,2.7701,2.8591,2.7664,2.7148,2.7487,2.6832,2.6551,2.6938,2.6485,2.644,2.6927,2.6464,2.6221,2.6221,2.5878,2.5878,2.6245,2.7149,2.7281,2.6737,2.7541,2.764,2.72,2.7834,2.8275,2.8577,2.8577,2.8386,2.7944,2.6335,2.6036,2.6389,2.5567,2.5588,2.5808,2.4135,2.3898,2.4189,2.3365,2.3091,2.3157,2.3464,2.3572,2.3637,2.3951,2.4038,2.4038,2.4038,2.4659,2.4978,2.3844,2.4211,2.45,2.3343,2.3091,2.3091,2.3091,2.3091,2.3091,2.3091,2.3091,2.3091,2.3091,2.3091,2.3091,2.3091,2.3091,2.3091,2.3091,2.3091,2.3091,2.3091,2.3091,2.2986,2.2684,2.2664,2.2527,2.2246,2.2119,2.2081,2.2081,2.2081,2.2081,2.2081,2.2178,2.2236,2.2236,2.2236,2.2236,1.5987,0.0,1.8293,1.9542,2.0859,2.2062,2.2914,2.3411,2.3818,2.4245,2.4342,2.4362,2.4391,2.4756,2.5072,2.5072,2.5815,2.6221,2.5767,2.6459,2.6875,2.6455,2.6416,2.7292,0.0,2.8065,2.7021,2.7006,2.6631,2.6977,2.8282,2.7841,2.8323,3.0008,2.8415,2.7542,2.7542,2.6318,2.6318,2.7542,2.7589,2.8179,2.9259,2.831,2.8248,2.88,2.831,2.8727,2.9753,2.9753,2.9106,2.8084,2.8024,2.738,2.6504,2.6462,2.5776,2.4851,2.4766,2.4049,2.3157,2.3113,2.3091,2.3299,2.4414,2.4745,2.4978,2.6099,2.64,2.64,2.64,2.641,2.6162,2.502,2.4766,2.45,2.3343,2.3091,2.3091,2.3091,2.3091,2.3091,2.3091,2.3091,2.3091,2.3091,2.3091,2.3091,2.3091,2.3091,2.3091,2.3091,2.3091,2.3091,2.3091,2.3091,2.3091,2.3081,2.3081,2.3071,2.3052,2.2693,2.2469,2.2469,2.2469,2.2469,2.2469,2.2879,2.3052,2.3052,2.3052,2.3052,1.7412,0.0,1.959,2.0898,2.1768,2.2529,2.3401,2.3714,2.3994,2.473,2.4394,2.4082,2.4342,2.4531,2.4639,2.4639,2.5625,2.6338,2.6191,2.666,2.6865,2.6435,2.7115,0.0,0.0,0.0,0.0,2.9142,2.9302,2.9177,2.8687,2.8763,2.9047,2.9642,2.9105,2.8412,2.7613,2.7968,2.7968,2.7613,2.8402,2.9466,3.0701,2.9543,2.919,2.9495,2.9322,2.9456,2.9753,2.8976,2.8458,2.8024,2.7331,2.725,2.7562,2.7562,2.6871,2.5818,2.5062,2.4542,2.4103,2.3343,2.3616,2.4296,2.4681,2.5336,2.6016,2.6389,2.6504,2.6504,2.6504,2.7026,2.7084,2.5241,2.5378,2.541,2.3517,2.3091,2.3091,2.3091,2.3091,2.3091,2.3091,2.3091,2.3091,2.3091,2.3091,2.3091,2.3091,2.3091,2.3091,2.3091,2.3091,2.3091,2.3091,2.3091,2.3091,2.3091,2.3091,2.3091,2.3091,2.2976,2.2908,2.2908,2.2908,2.2908,2.2908,2.3023,2.3091,2.3091,2.3091,2.3091,1.8693,1.9708,2.0644,2.1826,2.2432,2.2937,2.3818,2.3896,2.4056,2.4916,2.4697,2.4419,2.4666,2.4716,2.4769,2.4978,2.5698,2.622,2.622,2.6958,2.7399,2.714,2.8174,2.9377,0.0,0.0,0.0,3.0507,3.0745,3.0706,3.0295,3.0336,3.0744,3.154,3.079,2.9999,2.9223,2.9336,2.9223,2.8912,3.0135,3.1174,3.1968,3.0968,3.0577,3.0633,3.0244,3.0093,3.0009,2.9081,2.8466,2.8076,2.7787,2.7847,2.8096,2.8096,2.7663,2.6912,2.5797,2.4882,2.4125,2.3822,2.4211,2.4957,2.5744,2.6491,2.7148,2.7565,2.7678,2.7678,2.7678,2.8199,2.8247,2.6418,2.6532,2.6461,2.4199,2.3714,2.3594,2.3178,2.3091,2.3091,2.3091,2.3091,2.3091,2.3091,2.3091,2.3091,2.3091,2.3091,2.3091,2.3091,2.3091,2.3091,2.3091,2.3091,2.3091,2.3091,2.3091,2.3091,2.3091,2.3091,2.3091,2.3091,2.3091,2.3091,2.3091,2.3091,2.3091,2.3091,2.3091,2.3091,1.9757,2.0625,2.1463,2.2313,2.282,2.3337,2.4235,2.4163,2.4127,2.5012,2.5244,2.5317,0.0,0.0,2.5496,2.6073,2.6086,2.6055,2.6076,2.7472,2.849,0.0,0.0,0.0,0.0,0.0,0.0,3.1232,0.0,3.1615,3.2852,3.2479,3.3209,3.5397,3.3351,3.2193,3.2147,3.0411,3.0136,3.1311,3.2513,3.3077,3.304,3.2466,3.2202,3.2093,3.1077,3.0625,3.055,3.0043,2.9202,2.8295,2.9385,2.9138,2.8195,2.8195,2.8156,2.7944,2.6944,2.5115,2.3452,2.4457,2.4872,2.5368,2.747,2.8136,2.8406,2.9495,2.9792,2.9792,2.9792,2.9792,2.9514,2.8367,2.8096,2.751,2.5347,2.4893,2.4564,2.3485,2.3222,2.3178,2.3113,2.3091,2.3091,2.3091,2.3091,2.3091,2.3091,2.3091,2.3091,2.3091,2.3091,2.3091,2.3091,2.3091,2.3091,2.3091,2.3091,2.3091,2.3091,2.3091,2.3091,2.3091,2.3091,2.3091,2.3091,2.3091,2.3091,2.3091,2.3091,2.3091,2.1055,2.1777,2.2293,2.283,2.3013,2.3469,2.4837,2.5077,2.5267,2.6235,2.5955,2.553,0.0,0.0,0.0,2.6825,2.7512,0.0,2.846,2.9222,0.0,2.9736,0.0,3.2606,3.3601,3.4403,0.0,0.0,3.3963,3.3624,3.3363,3.3782,3.4309,3.4881,3.4344,3.3616,3.2706,3.1827,3.1818,3.2612,3.2939,3.2855,3.2428,3.2256,3.1989,3.1587,3.1311,3.0972,3.0588,3.045,2.9986,2.9404,2.9682,2.9624,2.9365,2.9365,2.8838,2.8064,2.7783,2.6789,2.5536,2.4978,2.5921,2.7368,2.7924,2.8688,2.9424,2.9721,2.9792,2.9792,2.9792,2.9792,2.9514,2.8367,2.8096,2.7723,2.6357,2.6079,2.5975,2.5683,2.4946,2.4092,2.3244,2.3091,2.3091,2.3091,2.3091,2.3091,2.3091,2.3091,2.3091,2.3091,2.3091,2.3091,2.3091,2.3091,2.3091,2.3091,2.3091,2.3091,2.3091,2.3091,2.3091,2.3091,2.3091,2.3091,2.3091,2.3091,2.3091,2.3091,2.3091,2.3091,2.3365,2.3919,2.4304,2.4543,2.4595,2.4734,2.5285,2.5443,2.5547,2.5837,2.5938,0.0,2.5978,0.0,0.0,0.0,0.0,0.0,2.9687,3.0538,3.1244,0.0,3.3088,0.0,3.4842,3.5271,3.5596,0.0,3.5368,3.4846,3.4395,3.4814,3.5167,3.5441,3.4954,3.416,3.3001,3.2696,3.2746,3.3102,3.3102,3.2767,3.2206,3.2466,3.2152,3.1406,0.0,3.1097,3.0575,3.0357,3.0068,2.9792,2.9792,2.9792,2.9753,2.9236,2.8956,2.8708,2.7735,2.7646,2.7758,2.6614,2.7084,2.8195,2.8688,2.9275,2.9792,2.9792,2.9792,2.9792,2.9792,2.9792,2.9643,2.9008,2.8858,2.8537,2.7432,2.7197,2.6912,2.5943,2.5231,2.4436,2.3299,2.3091,2.3091,2.3091,2.3091,2.3091,2.3091,2.3091,2.3091,2.3091,2.3091,2.3091,2.3091,2.3091,2.3091,2.3091,2.3091,2.3091,2.3091,2.3091,2.3091,2.3091,2.3091,2.3091,2.3091,2.3091,2.3091,2.3091,2.3091,2.3091,2.5779,2.6188,2.6504,2.6504,2.6504,2.6326,2.5692,2.5694,2.563,2.5,0.0,2.661,2.661,2.6976,2.7673,2.8818,0.0,2.8878,3.0417,3.1668,3.2779,3.3727,3.4878,3.582,3.6344,3.5931,3.5832,3.6367,3.5931,3.5631,3.5631,3.5631,3.5845,3.6392,3.5366,3.4336,3.3329,3.3241,3.3178,3.3102,3.3102,3.2767,3.2206,3.2729,3.2399,3.1406,0.0,0.0,3.055,3.0093,2.9854,2.9792,2.9792,2.9792,2.9682,2.8688,2.8956,2.9527,2.7597,2.8191,2.9624,2.8466,2.8195,2.8505,2.9495,2.9792,2.9792,2.9792,2.9792,2.9792,2.9792,2.9792,2.9792,2.9792,2.9792,2.9534,2.8537,2.8215,2.749,2.5431,2.4893,2.4436,2.3299,2.3091,2.3091,2.3091,2.3091,2.3091,2.3091,2.3091,2.3091,2.3091,2.3091,2.3091,2.3091,2.3091,2.3091,2.3091,2.3091,2.3091,2.3091,2.3091,2.3091,2.3091,2.3091,2.3091,2.3091,2.3091,2.3091,2.3091,2.3091,2.3091,2.6255,2.6436,2.6504,2.6504,2.6504,2.6472,2.6329,2.6667,0.0,0.0,2.6691,2.7169,2.7169,2.7243,2.7808,2.9396,2.9581,3.0055,0.0,0.0,3.3821,0.0,0.0,0.0,0.0,0.0,0.0,0.0,0.0,0.0,3.6243,3.6243,3.6281,3.6405,3.5707,3.5067,3.4427,3.3985,3.3533,3.3102,3.3102,3.2767,3.2194,3.2315,3.2001,3.1406,0.0,0.0,3.0588,3.0487,3.0206,2.9792,2.9792,2.9792,2.9772,2.9573,2.9624,2.9753,2.9358,2.9475,2.9624,2.8466,2.8747,2.9534,2.9753,2.9792,2.9792,2.9792,2.9792,2.9792,2.9792,2.9792,2.9792,2.9792,2.9792,2.9753,2.9553,2.8767,2.7723,2.6451,2.5441,2.4436,2.3299,2.3091,2.3091,2.3091,2.3091,2.3091,2.3091,2.3091,2.3091,2.3091,2.3091,2.3091,2.3091,2.3091,2.3091,2.3091,2.3091,2.3091,2.3091,2.3091,2.3091,2.3091,2.3091,2.3091,2.3091,2.3091,2.3091,2.3091,2.3091,2.3091,2.8068,2.8211,2.8211,2.8211,2.7977,2.7526,2.6682,0.0,0.0,0.0,2.6281,2.6959,2.7248,2.7537,0.0,2.9164,2.9321,2.9998,3.1918,0.0,0.0,0.0,0.0,0.0,0.0,0.0,0.0,0.0,0.0,0.0,3.6405,3.6405,3.613,3.5529,3.523,3.469,3.3872,3.3608,3.3354,3.3102,3.2767,3.2478,3.2181,3.1913,3.1486,3.0984,3.0984,0.0,3.0181,3.0181,3.003,2.9792,2.9792,2.9792,2.9792,2.9792,2.9792,2.9792,2.9792,2.9792,2.9702,2.9145,2.9346,2.9792,2.9792,2.9792,2.9792,2.9792,2.9792,2.9792,2.9792,2.9792,2.9792,2.9792,2.9346,2.8917,2.8917,2.8048,2.6933,2.5839,2.5168,2.4436,2.3299,2.3091,2.3091,2.3091,2.3091,2.3091,2.3091,2.3091,2.3091,2.3091,2.3091,2.3091,2.3091,2.3091,2.3091,2.3091,2.3091,2.3091,2.3091,2.3091,2.3091,2.3091,2.3091,2.3091,2.3091,2.3091,2.3091,2.3091,2.3091,2.3091,2.9478,2.9691,2.9792,2.9792,2.9346,2.848,2.6876,2.6499,0.0,2.503,2.5598,2.6487,2.7022,2.7457,2.7934,0.0,2.8555,2.9283,3.1378,3.229,3.3303,0.0,0.0,0.0,0.0,0.0,0.0,0.0,0.0,0.0,3.6405,3.6281,3.5793,3.4904,3.4653,3.4123,3.3278,3.3153,3.3102,3.309,3.2616,3.2265,3.2005,3.1587,3.1035,3.0425,3.0425,0.0,0.0,2.9792,2.9792,2.9792,2.9792,2.9792,2.9792,2.9792,2.9792,2.9792,2.9792,2.9792,2.9792,2.9792,2.9792,2.9792,2.9792,2.9792,2.9792,2.9792,2.9792,2.9792,2.9792,2.9792,2.9792,2.9792,2.9126,2.8466,2.8466,2.7614,2.6513,2.5378,2.4978,2.4436,2.3299,2.3091,2.3091,2.3091,2.3091,2.3091,2.3091,2.3091,2.3091,2.3091,2.3091,2.3091,2.3091,2.3091,2.3091,2.3091,2.3091,2.3091,2.3091,2.3091,2.3091,2.3091,2.3091,2.3091,2.3091,2.3091,2.3091,2.3091,2.3091,2.3091,2.8982,2.9371,2.9792,2.9792,2.9346,2.848,2.6876,0.0,2.6185,2.503,2.5272,2.5866,2.6461,2.6612,0.0,0.0,0.0,2.8065,2.9779,3.0896,3.1997,0.0,0.0,0.0,0.0,0.0,0.0,0.0,0.0,0.0,0.0,3.5893,3.552,3.542,3.4477,3.3922,3.3822,3.3341,3.3102,3.3102,3.304,3.2487,3.1461,3.1411,3.0834,2.9867,0.0,0.0,0.0,2.9792,2.9792,2.9792,2.9792,2.9792,2.9792,2.9792,2.9792,2.9792,2.9792,2.9792,2.9792,2.9792,2.9792,2.9792,2.9792,2.9792,2.9792,2.9792,2.9792,2.9792,2.9792,2.9792,2.9792,2.9792,2.9721,2.9643,2.9643,2.8747,2.7622,2.6554,2.5504,2.4436,2.3299,2.3091,2.3091,2.3091,2.3091,2.3091,2.3091,2.3091,2.3091,2.3091,2.3091,2.3091,2.3091,2.3091,2.3091,2.3091,2.3091,2.3091,2.3091,2.3091,2.3091,2.3091,2.3091,2.3091,2.3091,2.3091,2.3091,2.3091,2.3091,2.3091,2.8643,2.9082,2.9258,2.9258,2.8348,2.7198,2.618,0.0,2.4958,2.4829,2.4967,2.5398,2.6336,2.6499,2.6562,0.0,0.0,0.0,2.8586,2.9428,3.057,0.0,0.0,0.0,0.0,0.0,0.0,0.0,0.0,0.0,0.0,3.5644,3.5345,3.5042,3.4276,3.3746,3.3429,3.3203,3.3102,3.3102,3.2717,3.2315,3.1863,3.1223,3.0696,3.0269,0.0,0.0,0.0,2.9792,2.9792,2.9792,2.9792,2.9792,2.9792,2.9792,2.9792,2.9792,2.9792,2.9792,2.9792,2.9792,2.9792,2.9792,2.9792,2.9792,2.9792,2.9792,2.9792,2.9792,2.9792,2.9792,2.9792,2.9792,2.9287,2.8787,2.8787,2.7368,2.5994,2.5567,2.4574,2.3627,2.3178,2.3091,2.3091,2.3091,2.3091,2.3091,2.3091,2.3091,2.3091,2.3091,2.3091,2.3091,2.3091,2.3091,2.3091,2.3091,2.3091,2.3091,2.3091,2.3091,2.3091,2.3091,2.3091,2.3091,2.3091,2.3091,2.3091,2.3091,2.3091,2.3091,2.7906,2.8439,2.8668,2.8668,2.7557,2.6336,0.0,0.0,2.4423,2.4739,2.4972,2.5479,2.6633,2.6658,2.6572,0.0,0.0,2.6826,2.772,2.8335,2.9371,0.0,0.0,0.0,0.0,0.0,0.0,0.0,0.0,0.0,0.0,3.5107,3.4853,3.4477,3.3935,3.347,3.3102,3.3102,3.3102,3.309,3.2491,3.2127,3.1938,3.1014,3.05,3.0337,0.0,0.0,0.0,2.9792,2.9792,2.9792,2.9792,2.9792,2.9792,2.9792,2.9792,2.9792,2.9792,2.9792,2.9792,2.9792,2.9792,2.9792,2.9792,2.9792,2.9792,2.9792,2.9792,2.9792,2.9792,2.9792,2.9792,2.9792,2.9197,2.8597,2.8597,2.738,2.6077,2.542,2.4659,2.3887,2.3222,2.3091,2.3091,2.3091,2.3091,2.3091,2.3091,2.3091,2.3091,2.3091,2.3091,2.3091,2.3091,2.3091,2.3091,2.3091,2.3091,2.3091,2.3091,2.3091,2.3091,2.3091,2.3091,2.3091,2.3091,2.3091,2.3091,2.3091,2.3091,2.3091,2.6612,2.7348,2.8109,2.8109,2.7298,2.6336,0.0,0.0,2.5018,2.4839,2.5379,2.6259,2.7476,2.704,2.6765,0.0,0.0,0.0,2.7236,2.777,0.0,0.0,0.0,0.0,0.0,0.0,0.0,0.0,0.0,0.0,0.0,3.4211,3.3909,3.3909,3.3391,3.3102,3.3102,3.3102,3.3102,3.309,3.2491,3.1926,3.1386,3.0859,3.0319,0.0,0.0,0.0,0.0,2.9792,2.9792,2.9792,2.9792,2.9792,2.9792,2.9792,2.9792,2.9792,2.9792,2.9792,2.9792,2.9792,2.9792,2.9792,2.9792,2.9792,2.9792,2.9792,2.9792,2.9792,2.9792,2.9792,2.9792,2.9792,2.9792,2.9792,2.9792,2.9772,2.9111,2.6914,2.6483,2.5745,2.3495,2.3091,2.3091,2.3091,2.3091,2.3091,2.3091,2.3091,2.3091,2.3091,2.3091,2.3091,2.3091,2.3091,2.3091,2.3091,2.3091,2.3091,2.3091,2.3091,2.3091,2.3091,2.3091,2.3091,2.3091,2.3091,2.3091,2.3091,2.3091,2.3091,2.5918,2.635,2.6603,2.6603,2.61,2.5551,2.538,2.5321,2.552,2.6284,2.6637,2.7157,2.837,2.8379,2.8282,0.0,0.0,0.0,0.0,0.0,0.0,0.0,0.0,0.0,0.0,0.0,0.0,0.0,0.0,0.0,0.0,3.3997,3.3897,3.3897,3.3391,3.3102,3.3102,3.3102,3.2901,3.2478,3.2303,3.1738,3.0859,3.0676,0.0,0.0,0.0,0.0,0.0,2.9792,2.9792,2.9792,2.9792,2.9792,2.9792,2.9792,2.9792,2.9792,2.9792,2.9792,2.9792,2.9792,2.9275,2.8787,2.9553,2.9792,2.9792,2.9792,2.9792,2.9792,2.9792,2.9792,2.9792,2.9792,2.9792,2.9792,2.9792,2.8613,2.7354,2.6648,2.5242,2.3951,2.3222,2.3091,2.3091,2.3091,2.3091,2.3091,2.3091,2.3091,2.3091,2.3091,2.3091,2.3091,2.3091,2.3091,2.3091,2.3091,2.3091,2.3091,2.3091,2.3091,2.3091,2.3091,2.3091,2.3091,2.3091,2.3091,2.3091,2.3091,2.3091,2.3091,2.5064,2.5423,2.5552,2.5552,2.5379,0.0,0.0,2.5508,2.6022,2.6684,2.7038,2.7535,2.8558,2.8676,2.872,2.9061,0.0,0.0,0.0,0.0,0.0,0.0,0.0,0.0,0.0,0.0,0.0,0.0,0.0,0.0,0.0,0.0,3.3605,3.3605,3.3278,3.3102,3.3102,3.3102,3.2801,3.2194,3.2001,3.1428,3.0588,3.0387,0.0,0.0,0.0,0.0,0.0,2.9792,2.9792,2.9792,2.9792,2.9792,2.9792,2.9792,2.9792,2.9792,2.9792,2.9514,2.9157,2.9157,2.8398,2.7634,2.8331,2.915,2.9792,2.9792,2.9792,2.9792,2.9792,2.9792,2.9682,2.9255,2.9157,2.9047,2.8641,2.7464,2.6369,2.5943,2.4713,2.3606,2.3178,2.3091,2.3171,2.3337,2.3198,2.3149,2.3337,2.322,2.3091,2.3091,2.3091,2.3091,2.3091,2.3091,2.3091,2.3091,2.3091,2.3091,2.3091,2.3091,2.3091,2.3091,2.3091,2.3091,2.3091,2.3091,2.3091,2.3091,2.3091,2.3091,0.0,2.4594,2.497,2.497,2.5136,0.0,0.0,2.5957,0.0,2.6399,2.6919,2.7619,2.8325,2.8301,2.8469,2.9317,0.0,0.0,0.0,0.0,0.0,0.0,0.0,0.0,0.0,0.0,0.0,0.0,0.0,0.0,0.0,0.0,3.307,3.3155,3.312,3.3102,3.3102,3.3052,3.2751,3.2152,3.1637,3.1097,3.0525,3.003,0.0,0.0,0.0,0.0,0.0,2.9792,2.9792,2.9792,2.9792,2.9792,2.9792,2.9792,2.9792,2.9792,2.9792,2.9106,2.8195,2.8036,2.736,2.6575,2.6431,2.7859,2.9566,2.9566,2.9566,2.9566,2.9566,2.9566,2.9307,2.8247,2.7996,2.7703,2.6719,2.6431,2.6079,2.4999,2.4723,2.4329,2.3278,2.3091,2.3269,2.3721,2.3425,2.3308,2.374,2.3415,2.313,2.3101,2.3091,2.3091,2.3091,2.3091,2.3091,2.3091,2.3091,2.3091,2.3091,2.3091,2.3091,2.3091,2.3091,2.3091,2.3091,2.3091,2.3091,2.3091,2.3091,2.3091,2.3737,0.0,2.4683,2.4683,2.549,2.627,0.0,0.0,0.0,0.0,0.0,2.864,2.9766,2.9937,3.0145,0.0,0.0,0.0,0.0,0.0,0.0,0.0,0.0,0.0,0.0,0.0,0.0,0.0,0.0,0.0,0.0,0.0,3.2789,3.3604,3.3284,3.3102,3.3102,3.2641,3.2139,3.1587,3.1449,3.0896,2.998,2.9854,0.0,0.0,0.0,0.0,2.9792,2.9792,2.9792,2.9792,2.9792,2.9792,2.9792,2.9792,2.9792,2.9792,2.9792,2.9624,2.9118,2.7444,2.727,2.7421,2.5703,2.6171,2.7282,2.7282,2.7282,2.7282,2.7282,2.7282,2.7221,2.6944,2.6883,2.6801,2.6554,2.5818,2.5126,2.4851,2.4092,2.3408,2.3157,2.3091,2.3269,2.3721,2.3701,2.3672,2.3779,2.3701,2.3493,2.313,2.3091,2.3091,2.3091,2.3091,2.3091,2.3091,2.3091,2.3091,2.3091,2.3091,2.3091,2.3091,2.3091,2.3091,2.3091,2.3091,2.3091,2.3091,2.3091,2.3091,2.3595,2.3853,2.4141,2.4141,2.5139,2.6138,2.6138,0.0,0.0,0.0,0.0,2.8455,2.9445,2.9879,0.0,0.0,0.0,0.0,0.0,0.0,0.0,0.0,0.0,0.0,0.0,0.0,0.0,0.0,0.0,0.0,0.0,0.0,3.3423,3.402,3.309,3.251,3.2324,3.224,3.1813,3.1035,3.1035,3.0595,2.9792,2.9792,0.0,0.0,0.0,0.0,2.9792,2.9792,2.9792,2.9792,2.9792,2.9792,2.9792,2.9792,2.9792,2.9792,2.9792,2.915,2.8011,2.6275,2.5755,2.5577,2.4382,2.4446,2.5168,2.6214,2.6504,2.6504,2.6504,2.6504,2.638,2.5839,2.5714,2.5578,2.5062,2.4446,2.4027,2.4027,2.3529,2.3091,2.3091,2.3279,2.3562,2.4014,2.4072,2.4072,2.4072,2.3906,2.3623,2.314,2.3091,2.3091,2.3091,2.3091,2.3091,2.3091,2.3091,2.3091,2.3091,2.3091,2.3091,2.3091,2.3091,2.3091,2.3091,2.3091,2.3091,2.3091,2.3091,2.3387,2.3595,2.3595,2.3625,2.3729,2.4676,2.5603,2.5603,0.0,0.0,0.0,0.0,0.0,2.8607,2.9219,0.0,0.0,0.0,0.0,0.0,0.0,0.0,0.0,0.0,0.0,0.0,0.0,0.0,0.0,0.0,0.0,0.0,0.0,0.0,3.4399,3.2922,3.1876,3.1385,3.177,3.1491,3.06,3.06,3.0331,2.9792,2.9792,2.9792,0.0,0.0,0.0,2.9792,2.9792,2.9792,2.9792,2.9792,2.9792,2.9792,2.9792,2.9792,2.9792,2.9792,2.8574,2.678,2.5483,2.4403,2.3551,2.32,2.3091,2.3495,2.5442,2.5975,2.5975,2.5975,2.5975,2.5745,2.4766,2.4542,2.4275,2.3299,2.3091,2.3091,2.3091,2.3091,2.3091,2.3091,2.3425,2.3857,2.4323,2.4391,2.4443,2.4502,2.415,2.3721,2.3269,2.314,2.3091,2.3091,2.3091,2.3091,2.3091,2.3091,2.3091,2.3091,2.3091,2.3091,2.3091,2.3091,2.3091,2.3091,2.3256,2.3365,2.3365,2.3539,2.4135,2.3595,2.3595,2.3744,2.4291,2.5035,2.5603,2.5603,2.6198,0.0,0.0,0.0,0.0,0.0,2.9518,0.0,0.0,0.0,0.0,0.0,0.0,0.0,0.0,0.0,0.0,0.0,0.0,0.0,0.0,0.0,0.0,0.0,0.0,0.0,3.486,3.3444,3.2206,3.1232,3.0979,3.0751,3.06,3.06,3.0331,2.9792,2.9792,2.9792,0.0,0.0,2.9792,2.9792,2.9792,2.9792,2.9792,2.9792,2.9792,2.9792,2.9792,2.9792,2.9792,2.9792,2.9585,2.8961,2.6903,2.612,2.5631,2.3681,2.3091,2.3178,2.3507,2.3616,2.3616,2.3616,2.3616,2.3582,2.3408,2.3365,2.3299,2.3135,2.3091,2.3091,2.3091,2.3091,2.3091,2.3091,2.3171,2.3484,2.4274,2.4391,2.4551,2.4945,2.459,2.416,2.374,2.3337,2.3091,2.3091,2.3091,2.3091,2.3091,2.3091,2.3091,2.3091,2.3091,2.3091,2.3091,2.3091,2.3091,2.3091,2.407,2.4542,2.4564,2.5536,2.6058,2.4116,2.4032,2.404,2.406,2.484,2.5603,2.5603,2.6393,0.0,0.0,0.0,0.0,0.0,0.0,0.0,0.0,0.0,0.0,0.0,0.0,0.0,0.0,0.0,0.0,0.0,0.0,0.0,0.0,0.0,0.0,0.0,0.0,0.0,0.0,3.3605,3.2704,3.2713,3.1025,3.0168,3.0168,3.0168,3.0043,2.9792,2.9792,2.9792,2.9792,0.0,2.9792,2.9792,2.9792,2.9792,2.9792,2.9792,2.9792,2.9792,2.9792,2.9792,2.9792,2.9792,2.902,2.7839,2.6833,2.5662,2.4478,2.3408,2.3091,2.3091,2.3091,2.3091,2.3091,2.3091,2.3091,2.3091,2.3091,2.3091,2.3091,2.3091,2.3091,2.3091,2.3091,2.3091,2.3091,2.3091,2.3308,2.3601,2.4014,2.4268,2.4404,2.4408,2.4209,2.3916,2.3464,2.324,2.3091,2.3091,2.3091,2.3091,2.3091,2.3091,2.3091,2.3091,2.3091,2.3091,2.3091,2.3091,2.3091,2.3091,2.4253,2.4808,2.483,2.5964,2.6801,2.4702,2.4501,2.4297,2.389,0.0,2.5364,2.5364,2.6524,0.0,0.0,0.0,0.0,0.0,0.0,0.0,0.0,0.0,0.0,0.0,0.0,0.0,0.0,0.0,0.0,0.0,0.0,0.0,0.0,0.0,0.0,0.0,0.0,0.0,0.0,3.3837,3.3171,3.3671,3.1318,3.012,3.012,2.9895,2.9792,2.9792,2.9792,2.9792,2.9792,2.9792,2.9792,2.9792,2.9792,2.9792,2.9792,2.9792,2.9792,2.9779,2.9641,2.9679,2.9747,2.9346,2.8183,2.678,2.6265,2.4914,2.3442,2.3178,2.3091,2.3091,2.3091,2.3091,2.3091,2.3091,2.3091,2.3091,2.3091,2.3091,2.3091,2.3091,2.3091,2.3091,2.3091,2.3091,2.3091,2.3091,2.3396,2.3672,2.3769,2.415,2.4336,2.4121,2.4017,2.3809,2.3432,2.3218,2.3091,2.3091,2.3091,2.3091,2.3091,2.3091,2.3091,2.3091,2.3091,2.3091,2.3091,2.3091,2.3222,2.3507,2.4628,2.5336,2.5587,2.6728,2.7706,2.5147,2.4782,2.4389,2.4348,2.4515,2.4668,2.4668,2.6183,0.0,2.76,0.0,0.0,0.0,0.0,0.0,0.0,0.0,0.0,0.0,0.0,0.0,0.0,0.0,0.0,0.0,0.0,0.0,0.0,0.0,0.0,0.0,0.0,0.0,0.0,0.0,3.3501,3.2713,3.1646,3.1087,3.1087,3.0222,2.9792,2.9792,2.9792,2.9792,2.9792,2.9792,2.9792,2.9792,2.9792,2.9792,2.9792,2.9792,2.9792,2.9729,2.917,2.9321,2.9568,2.8009,2.7711,2.7663,2.5598,2.4808,2.4478,2.342,2.3091,2.3091,2.3091,2.3091,2.3091,2.3091,2.3091,2.3091,2.3091,2.3091,2.3091,2.3091,2.3091,2.3091,2.3091,2.3091,2.3091,2.3091,2.312,2.3298,2.373,2.415,2.4551,2.4945,2.4619,2.4332,2.4303,2.3569,2.3091,2.3091,2.3091,2.3091,2.3091,2.3091,2.3091,2.3091,2.3091,2.3091,2.3091,2.3091,2.3616,2.4681,2.5818,2.6903,2.7884,2.9028,2.9605,2.5781,2.5616,2.5524,2.5569,2.6006,0.0,0.0,2.7067,2.8557,2.7763,2.8678,0.0,0.0,0.0,0.0,0.0,0.0,0.0,0.0,0.0,0.0,0.0,0.0,0.0,0.0,0.0,0.0,0.0,0.0,0.0,0.0,0.0,0.0,0.0,0.0,3.4126,3.4392,3.2267,3.1499,3.2051,3.0533,2.9603,2.9233,2.9233,2.9233,2.9233,2.9233,2.9453,2.9792,2.9792,2.9792,2.9792,2.9792,2.9792,2.9767,2.9553,2.9603,2.9618,2.8257,2.749,2.6851,2.5305,2.4318,2.3649,2.3222,2.3091,2.3091,2.3091,2.3091,2.3091,2.3091,2.3091,2.3091,2.3091,2.3091,2.3091,2.3091,2.3091,2.3091,2.3091,2.3091,2.3091,2.3091,2.3091,2.3171,2.3337,2.3493,2.3757,2.4242,2.3874,2.3708,2.4004,2.3474,2.3091,2.3091,2.3757,2.3865,2.3135,2.3091,2.3091,2.3091,2.3091,2.342,2.4146,2.3474,2.4016,2.5871,2.6286,2.7046,2.8136,2.9601,3.0118,2.5888,2.5854,2.5956,2.6001,0.0,0.0,2.6474,2.8097,2.963,2.8974,2.9743,0.0,0.0,0.0,0.0,0.0,0.0,0.0,0.0,0.0,0.0,0.0,0.0,0.0,0.0,0.0,0.0,0.0,0.0,0.0,0.0,0.0,0.0,0.0,0.0,3.4658,3.5019,3.278,3.1815,3.2141,3.057,2.9578,2.9183,2.9183,2.9183,2.9183,2.9183,2.9428,2.9792,2.9792,2.9792,2.9792,2.9792,2.9792,2.9747,2.9218,2.9047,2.886,2.7329,2.6348,2.5611,2.4586,2.3735,2.3091,2.3091,2.3091,2.3091,2.3091,2.3091,2.3091,2.3091,2.3091,2.3091,2.3091,2.3091,2.3091,2.3091,2.3091,2.3091,2.3091,2.3091,2.3091,2.3091,2.3091,2.3091,2.3091,2.324,2.3474,2.3935,2.3613,2.3386,2.3564,2.3298,2.3091,2.3091,2.4146,2.4307,2.3178,2.3789,2.3844,2.3135,2.3789,2.436,2.4787,2.4027,2.4755,2.7005,2.6668,2.7241,2.868,2.9995,3.0387,2.5361,2.5307,2.5405,0.0,0.0,0.0,2.7763,2.9119,3.0696,3.1369,0.0,3.2706,3.338,0.0,0.0,0.0,0.0,0.0,0.0,0.0,0.0,0.0,0.0,0.0,0.0,0.0,0.0,0.0,0.0,0.0,0.0,0.0,0.0,0.0,0.0,0.0,3.4027,3.3084,3.2141,3.1199,3.026,2.9811,2.9779,2.9779,2.9779,2.9779,2.9779,2.9779,2.9792,2.9792,2.9792,2.9779,2.9792,2.9792,2.9581,2.7927,2.7393,2.716,2.4824,2.4095,2.4075,2.3325,2.3091,2.3091,2.3091,2.3091,2.3091,2.3091,2.3091,2.3091,2.3091,2.3091,2.3091,2.3091,2.3091,2.3091,2.3091,2.3091,2.3091,2.3091,2.3091,2.3091,2.3091,2.3091,2.3091,2.3091,2.3506,2.3958,2.4355,2.4066,2.3623,2.3171,2.3091,2.3091,2.3113,2.4168,2.4339,2.32,2.5263,2.5494,2.3222,2.5295,2.5964,2.4851,2.4808,2.59,2.8104,2.7046,2.7658,2.9804,3.0369,3.06,2.5816,2.6,0.0,2.7214,0.0,0.0,0.0,3.0097,0.0,0.0,3.2407,3.326,0.0,0.0,0.0,0.0,0.0,0.0,0.0,0.0,0.0,0.0,0.0,0.0,0.0,0.0,0.0,0.0,0.0,0.0,0.0,0.0,0.0,0.0,0.0,0.0,3.5067,3.4075,3.3119,3.2177,3.1217,3.0219,2.917,2.917,2.917,2.917,2.917,2.9415,2.9792,2.9792,2.9553,2.9208,2.9628,2.9307,2.8533,2.8048,2.74,2.6574,2.507,2.4598,2.444,2.3424,2.3091,2.3091,2.3091,2.3091,2.3091,2.3091,2.3091,2.3091,2.3091,2.3091,2.3091,2.3091,2.3091,2.3091,2.3091,2.3091,2.3091,2.3091,2.3091,2.3091,2.3091,2.3091,2.3091,2.3091,2.3911,2.4644,2.5062,2.5001,2.4569,2.3693,2.3298,2.342,2.4232,2.5336,2.585,2.5515,2.7597,2.7464,2.4414,2.5704,2.6698,2.7113,2.6378,2.7087,2.9275,2.8167,2.8379,2.9817,3.0733,3.0972,2.5514,2.6013,0.0,2.7748,2.878,2.9717,3.0348,0.0,0.0,0.0,0.0,0.0,0.0,0.0,0.0,0.0,0.0,0.0,0.0,0.0,0.0,0.0,0.0,0.0,0.0,0.0,0.0,0.0,0.0,0.0,0.0,0.0,0.0,0.0,0.0,0.0,3.5504,3.4126,3.3154,3.2575,3.1267,3.0163,2.9258,2.9258,2.9258,2.9258,2.9258,2.9321,2.9465,2.9691,2.9591,2.9283,2.9654,2.9106,2.8056,2.7622,2.6665,2.5453,2.4459,2.4012,2.3794,2.3272,2.3091,2.3091,2.3091,2.3091,2.3091,2.3091,2.3091,2.3091,2.3091,2.3091,2.3091,2.3091,2.3091,2.3091,2.3091,2.3091,2.3091,2.3091,2.3091,2.3091,2.3091,2.3091,2.3091,2.3091,2.4201,2.5069,2.5142,2.57,2.5427,2.37,2.408,2.4553,2.4787,2.6243,2.6944,2.6524,2.8581,2.87,2.6211,2.7209,2.7887,2.8096,2.7473,2.8019,2.9792,2.8668,2.8797,3.0131,3.0783,3.1148,2.48,0.0,0.0,2.7435,2.8618,0.0,3.0447,0.0,0.0,0.0,0.0,0.0,0.0,0.0,0.0,0.0,0.0,0.0,0.0,0.0,0.0,0.0,0.0,0.0,0.0,0.0,0.0,0.0,0.0,0.0,0.0,0.0,0.0,0.0,0.0,0.0,3.5359,3.3616,3.2629,0.0,3.0746,2.9876,2.9792,2.9792,2.9792,2.9792,2.9741,2.9415,2.8938,2.9503,2.9716,2.9716,2.9779,2.9047,2.7835,2.6862,2.5473,2.3992,2.3335,2.2869,2.2606,2.2974,2.3091,2.3091,2.3091,2.3091,2.3091,2.3091,2.3091,2.3091,2.3091,2.3091,2.3091,2.3091,2.3091,2.3091,2.3091,2.3091,2.3091,2.3091,2.3091,2.3091,2.3091,2.3091,2.3178,2.3387,2.4601,2.5421,2.519,2.6265,2.6086,2.3573,2.521,2.6079,2.5041,2.6901,2.7723,2.6853,2.8692,2.9346,2.8307,2.9255,2.9307,2.8287,2.8255,2.8767,2.9792,2.8767,2.9066,3.06,3.0651,3.1215,2.5267,2.5974,0.0,0.0,2.8618,2.9892,3.1031,3.2422,0.0,0.0,0.0,0.0,0.0,0.0,0.0,0.0,0.0,0.0,0.0,0.0,0.0,0.0,0.0,0.0,0.0,0.0,0.0,0.0,0.0,0.0,0.0,0.0,0.0,0.0,0.0,3.5116,3.4329,3.3908,3.2961,0.0,3.1087,3.0501,2.9792,2.9792,2.9792,2.9767,2.9296,2.9019,2.8919,2.9045,2.9095,2.9145,2.9616,2.8581,2.6821,2.6586,2.5167,2.3301,2.3171,2.3033,2.2996,2.3062,2.3091,2.3091,2.3091,2.3091,2.3091,2.3091,2.3091,2.3091,2.3091,2.3091,2.3091,2.3091,2.3091,2.3091,2.3091,2.3091,2.3091,2.3091,2.3091,2.3091,2.3091,2.3091,2.3702,2.5505,2.6042,2.6667,2.7792,2.7171,2.6196,2.5028,2.5869,2.6389,2.6162,2.734,2.8367,2.904,2.9546,2.9682,2.9443,2.9663,2.9682,2.9443,2.9424,2.9566,2.9792,2.9553,2.984,3.06,3.1035,3.1587,2.5498,0.0,0.0,2.7902,0.0,2.9847,3.0807,3.1809,0.0,0.0,0.0,0.0,0.0,0.0,0.0,0.0,0.0,0.0,0.0,0.0,0.0,0.0,0.0,0.0,0.0,0.0,0.0,0.0,0.0,0.0,0.0,0.0,0.0,0.0,3.4358,3.3871,3.3328,3.2629,3.1786,3.0802,3.0069,2.9461,2.8988,2.9252,2.9377,2.9352,2.8769,2.8668,2.885,2.834,2.8296,2.8553,2.8866,2.7634,2.5755,2.6307,2.5062,2.3091,2.3091,2.3091,2.3091,2.3091,2.3091,2.3091,2.3091,2.3091,2.3091,2.3091,2.3091,2.3091,2.3091,2.3091,2.3091,2.3091,2.3091,2.3256,2.38,2.3495,2.3266,2.3822,2.3464,2.3256,2.3822,2.4371,2.5305,2.7014,2.727,2.7566,2.8363,2.8246,2.7528,2.6073,2.7206,2.7859,2.7311,2.8279,2.9177,2.9772,2.9792,2.9792,2.9792,2.9792,2.9792,2.9792,2.9792,2.9792,2.9792,2.9792,3.0206,3.0984,3.1009,3.1599,2.5558,0.0,2.7764,2.8427,2.9024,0.0,3.0342,3.1031,0.0,0.0,0.0,0.0,0.0,0.0,0.0,0.0,0.0,0.0,0.0,0.0,0.0,0.0,0.0,0.0,0.0,0.0,0.0,0.0,0.0,0.0,0.0,0.0,3.4088,3.4088,3.306,3.2447,3.2289,3.0936,3.015,3.0,2.8713,2.8109,2.8109,2.8455,2.8731,2.885,2.8229,2.8317,2.8819,2.7836,2.7645,2.7965,2.8048,2.6746,2.4914,2.586,2.4893,2.3091,2.3091,2.3091,2.3091,2.3091,2.3091,2.3091,2.3091,2.3091,2.3091,2.3091,2.3091,2.3091,2.3091,2.3091,2.3157,2.3343,2.3387,2.3649,2.4606,2.407,2.3681,2.4628,2.4049,2.3692,2.4638,2.5901,2.7087,2.7976,2.8096,2.8176,2.8367,2.9047,2.8811,2.6964,2.8581,2.9346,2.8195,2.9145,2.9792,2.9792,2.9792,2.9792,2.9792,2.9792,2.9829,2.993,2.9842,2.9842,2.993,2.9842,3.0344,3.1386,3.0947,3.1587,0.0,0.0,2.7764,0.0,2.8667,2.9041,0.0,0.0,0.0,0.0,0.0,0.0,0.0,0.0,0.0,0.0,0.0,0.0,0.0,0.0,0.0,0.0,0.0,0.0,0.0,0.0,0.0,0.0,0.0,0.0,3.5504,3.4825,3.4433,3.4433,3.3027,3.1848,3.1063,3.0104,2.9207,2.8411,2.8189,2.8109,2.8097,2.7682,2.8021,2.8838,2.7846,2.7971,2.885,2.8232,2.7757,2.7454,2.7917,2.6746,2.4808,2.4978,2.4211,2.3091,2.3091,2.3091,2.3091,2.3091,2.3091,2.3091,2.3091,2.3091,2.3091,2.3091,2.3091,2.3091,2.3091,2.3091,2.3343,2.4339,2.4564,2.4596,2.4766,2.4681,2.4628,2.4766,2.4691,2.4628,2.4766,2.6521,2.7924,2.8076,2.8096,2.8458,2.9456,2.8838,2.8215,2.7916,2.9028,2.9346,2.8195,2.9145,2.9792,2.9792,2.9792,2.9792,2.9792,2.9792,3.0018,3.0475,3.0043,3.003,3.0487,3.003,3.0344,3.1406,3.1323,3.1947,2.5884,2.6584,2.7198,0.0,2.8036,2.8276,2.922,0.0,0.0,0.0,0.0,0.0,0.0,0.0,0.0,0.0,0.0,0.0,0.0,0.0,0.0,0.0,0.0,0.0,0.0,0.0,0.0,0.0,0.0,3.4532,3.4922,3.3805,3.3166,3.3166,3.1946,3.0882,3.0029,2.9298,2.8369,2.7198,2.7198,2.7198,2.7198,2.6964,2.7437,2.8405,2.765,2.7733,2.8418,2.7883,2.7128,2.6404,2.6982,2.5828,2.4006,2.5273,2.5031,2.4125,2.4787,2.4595,2.4049,2.4049,2.3616,2.3091,2.3091,2.3091,2.3091,2.3091,2.3091,2.3091,2.3091,2.3572,2.4168,2.4681,2.5754,2.6644,2.6644,2.5682,2.4808,2.4808,2.5796,2.6644,2.6644,2.7988,2.9047,2.9047,2.9047,2.9236,2.9753,2.9365,2.9047,2.9047,2.9495,2.9605,2.9086,2.9514,2.9792,2.9792,2.9792,2.993,3.0244,2.9955,3.0331,3.1466,3.0683,3.052,3.1047,3.0809,3.1085,3.1851,3.1851,3.229,0.0,0.0,2.6719,2.7225,2.7465,2.7779,0.0,0.0,0.0,0.0,0.0,0.0,0.0,0.0,0.0,0.0,0.0,0.0,0.0,0.0,0.0,0.0,0.0,0.0,0.0,0.0,0.0,0.0,0.0,3.3724,3.4218,3.2938,3.221,3.221,3.1114,3.0243,2.9622,2.8741,2.7686,2.6499,2.6499,2.6499,2.6499,2.6499,2.6952,2.767,2.7412,2.7595,2.8092,2.7822,2.6956,2.5876,2.6318,2.5452,2.4145,2.5557,2.5714,2.5357,2.6203,2.5943,2.5189,2.4893,2.4211,2.3485,2.32,2.3091,2.3157,2.3442,2.3529,2.3594,2.3887,2.4595,2.5294,2.5566,2.6889,2.8096,2.8096,2.6808,2.5556,2.5294,2.6778,2.8096,2.8096,2.9047,2.9792,2.9792,2.9792,2.9792,2.9792,2.9792,2.9792,2.9792,2.9792,2.9792,2.9792,2.9792,2.9792,2.9792,2.9792,3.0043,3.0575,3.0218,3.0696,3.2169,3.1403,3.121,3.1599,3.1482,3.1675,3.2194,3.2194,3.2516,0.0,2.5633,0.0,2.6644,2.7136,0.0,0.0,0.0,0.0,0.0,0.0,0.0,0.0,0.0,0.0,0.0,0.0,0.0,0.0,0.0,0.0,0.0,0.0,0.0,0.0,0.0,0.0,0.0,0.0,3.353,3.3544,3.2871,3.2482,3.2482,3.1081,3.0309,3.0249,2.8578,2.731,2.6499,2.6499,2.6499,2.6499,2.6499,2.6524,2.6612,2.7085,2.7595,2.8147,2.8625,2.7874,2.6469,2.6498,2.6442,2.6203,2.5252,2.5525,2.641,2.6472,2.6462,2.6224,2.5147,2.4766,2.4521,2.343,2.3091,2.3321,2.4414,2.4702,2.4957,2.6037,2.638,2.6678,2.7683,2.8024,2.8096,2.8096,2.8004,2.7622,2.6616,2.7331,2.8096,2.8096,2.9047,2.9792,2.9792,2.9792,2.9792,2.9792,2.9792,2.9792,2.9792,2.9792,2.9792,2.9792,2.9792,2.9792,2.9792,2.9792,3.0043,3.0575,3.0563,3.1085,3.219,3.2152,3.2118,3.2156,3.165,3.1675,3.2194,3.2194,3.2516,0.0,0.0,0.0,2.5854,2.6465,2.7018,0.0,0.0,0.0,0.0,0.0,0.0,0.0,0.0,0.0,0.0,0.0,0.0,0.0,0.0,0.0,0.0,0.0,0.0,0.0,0.0,0.0,0.0,0.0,0.0,3.2841,3.2228,3.1854,3.1854,3.1338,3.0554,2.9473,2.7786,2.6799,2.6499,2.6499,2.6499,2.6499,2.6499,2.6688,2.7022,2.7223,2.7211,2.7135,2.8021,2.7422,2.5955,2.6337,2.6259,2.597,2.629,2.689,2.7634,2.8351,2.8139,2.7461,2.7044,2.6449,2.5808,2.5421,2.5284,2.5368,2.5787,2.588,2.5996,2.6389,2.7005,2.7815,2.8929,2.9197,2.9197,2.9197,2.9197,2.8858,2.7735,2.8418,2.9197,2.9197,2.9534,2.9792,2.9792,2.9792,2.9792,2.9792,2.9792,2.9792,2.9792,2.9792,2.993,3.0274,2.9993,3.008,3.0771,3.0507,3.0701,3.1591,3.1298,3.1637,3.2776,3.2403,3.239,3.2788,3.2587,3.26,3.2788,3.2788,3.2901,2.4141,0.0,0.0,0.0,0.0,2.6318,0.0,0.0,0.0,0.0,0.0,0.0,0.0,0.0,0.0,0.0,0.0,0.0,0.0,0.0,0.0,0.0,0.0,0.0,0.0,0.0,0.0,0.0,0.0,0.0,3.1509,3.1091,3.0957,3.1152,3.1115,3.0419,2.9018,2.7436,2.6591,2.6499,2.6298,2.6298,2.6499,2.6499,2.6688,2.7022,2.7022,2.6939,2.6839,2.772,2.7341,2.6202,2.6409,2.649,2.6477,2.6888,2.7589,2.8468,2.9247,2.9134,2.8617,2.8215,2.7622,2.6964,2.6595,2.6504,2.6575,2.6944,2.7046,2.7128,2.7504,2.8139,2.8858,2.9624,2.9792,2.9792,2.9792,2.9792,2.9573,2.8819,2.9287,2.9792,2.9792,2.9792,2.9792,2.9792,2.9792,2.9792,2.9792,2.9792,2.9792,2.9792,2.9955,3.0218,3.0563,3.0444,3.0633,3.1348,3.1072,3.1273,3.2156,3.1863,3.2114,3.3077,3.2726,3.2692,3.3102,3.3102,3.3102,3.3102,3.3102,3.3102,0.0,0.0,0.0,0.0,0.0,0.0,0.0,0.0,0.0,0.0,0.0,0.0,0.0,0.0,0.0,0.0,0.0,0.0,0.0,0.0,0.0,0.0,0.0,0.0,0.0,0.0,0.0,0.0,0.0,2.9593,2.9593,2.9593,2.9877,3.0447,3.0309,2.9817,2.8963,2.7581,2.672,2.6436,2.5866,2.5904,2.6461,2.6487,2.6499,2.6499,2.6499,2.6801,2.7324,2.7833,2.7745,2.7217,2.669,2.715,2.7956,2.69,2.7533,2.8888,2.8888,2.9296,2.9624,2.8505,2.8156,2.7956,2.6903,2.6607,2.6801,2.7855,2.8156,2.8406,2.9514,2.9792,2.9792,2.9792,2.9792,2.9792,2.9792,2.9792,2.9792,2.9792,2.9792,2.9792,2.9792,2.9792,2.9792,2.9792,2.9792,2.9804,2.9817,2.9804,2.9804,2.9817,3.0294,3.06,3.0613,3.1097,3.1399,3.1436,3.1424,3.1662,3.2194,3.224,3.2503,3.309,3.3102,3.3102,3.3102,3.3102,3.3102,3.3102,3.3102,3.3102,2.3595,0.0,0.0,0.0,0.0,0.0,0.0,0.0,0.0,0.0,0.0,0.0,0.0,0.0,0.0,0.0,0.0,0.0,0.0,0.0,0.0,0.0,0.0,0.0,0.0,0.0,0.0,0.0,2.9593,2.9593,2.9593,2.9593,2.9683,2.9847,2.92,2.8479,2.7719,2.6687,2.5867,2.5272,2.5485,2.5686,2.5866,2.6298,2.6499,2.6499,2.6499,2.6587,2.6738,2.6889,2.6864,2.6703,2.6561,2.6925,2.7489,2.7189,2.784,2.8888,2.8888,2.9296,2.9753,2.9424,2.9326,2.9268,2.8981,2.8882,2.8961,2.9248,2.9326,2.9404,2.9721,2.9792,2.9792,2.9792,2.9792,2.9792,2.9792,2.9792,2.9792,2.9792,2.9792,2.9792,2.9792,2.9792,2.9792,2.9792,2.9792,2.9942,3.0331,3.0043,2.9942,3.0344,3.05,3.0751,3.1148,3.1298,3.1758,3.2587,3.2215,3.224,3.2839,3.2851,3.2939,3.3102,3.3102,3.3102,3.3102,3.3102,3.3102,3.3102,3.3102,3.3102,0.0,0.0,0.0,0.0,0.0,0.0,2.4545,2.5423,0.0,0.0,0.0,0.0,0.0,0.0,0.0,0.0,0.0,0.0,0.0,0.0,0.0,0.0,0.0,0.0,0.0,0.0,0.0,2.9234,2.8919,2.8768,2.8768,2.9024,2.9189,2.9189,2.8604,2.7953,2.7208,2.6109,2.5306,2.4804,2.5118,2.5385,2.5611,2.6223,2.6499,2.6499,2.6499,2.6499,2.6499,2.6499,2.6499,2.6499,2.6499,2.6688,2.6984,2.7223,2.7833,2.8593,2.8831,2.9296,2.9792,2.9792,2.9792,2.9792,2.9792,2.9792,2.9792,2.9792,2.9792,2.9792,2.9792,2.9792,2.9792,2.9792,2.9792,2.9792,2.9792,2.9792,2.9792,2.9792,2.9792,2.9792,2.9792,2.9792,2.9792,2.9792,2.9792,2.9905,3.0231,3.0193,3.0256,3.0563,3.1002,3.1391,3.1712,3.1951,3.2399,3.3052,3.2776,3.2717,3.309,3.3102,3.3102,3.3102,3.3102,3.3102,3.3102,3.3102,3.3102,3.309,3.2612,3.265,0.0,0.0,0.0,0.0,0.0,0.0,2.4365,2.502,2.5663,0.0,0.0,0.0,0.0,0.0,0.0,0.0,0.0,0.0,0.0,0.0,0.0,0.0,0.0,0.0,0.0,2.9803,2.9219,2.8532,2.7944,2.76,2.76,2.8171,2.8487,2.8487,2.8322,2.7869,2.7132,2.5803,2.5001,2.4744,2.4773,2.5042,2.5536,2.6197,2.6499,2.6499,2.6499,2.6499,2.6499,2.6499,2.6499,2.6499,2.6499,2.6499,2.6562,2.7097,2.765,2.8185,2.8718,2.9296,2.9792,2.9792,2.9792,2.9792,2.9792,2.9792,2.9792,2.9792,2.9792,2.9792,2.9792,2.9792,2.9792,2.9792,2.9792,2.9792,2.9792,2.9792,2.9792,2.9792,2.9792,2.9792,2.9792,2.9792,2.9792,2.9792,2.9792,2.9829,2.9955,3.0344,3.0638,3.0763,3.1617,3.2194,3.2194,3.2742,3.3102,3.3102,3.3102,3.3102,3.3102,3.3102,3.3102,3.3102,3.3102,3.3065,3.3002,3.3065,3.3102,3.3077,3.2072,3.2135,0.0,0.0,0.0,0.0,0.0,0.0,2.3883,2.4317,2.4829,0.0,0.0,0.0,0.0,0.0,0.0,0.0,0.0,0.0,0.0,0.0,0.0,0.0,0.0,0.0,0.0,2.8861,2.8515,2.7854,2.7675,2.76,2.76,2.772,2.7809,2.7809,2.7761,2.7389,2.6641,2.5772,2.5024,2.4398,2.468,2.4854,2.4992,2.6017,2.6499,2.6499,2.6499,2.6499,2.6499,2.6499,2.6499,2.6499,2.6499,2.6499,2.6562,2.7097,2.765,2.8185,2.8718,2.9296,2.9792,2.9792,2.9792,2.9792,2.9792,2.9792,2.9792,2.9792,2.9792,2.9792,2.9792,2.9792,2.9792,2.9792,2.9792,2.9792,2.9792,2.9792,2.9792,2.9792,2.9792,2.9792,2.9792,2.9792,2.9792,2.9792,2.9792,3.0105,3.0992,3.0809,3.0927,3.1792,3.2089,3.2194,3.2194,3.2742,3.3102,3.3102,3.3102,3.3102,3.3102,3.3102,3.3102,3.3102,3.3102,3.2864,3.239,3.2855,3.3102,3.309,3.2876,3.2889,0.0,0.0,0.0,2.3983,0.0,0.0,0.0,2.3869,2.4322,2.4966,0.0,0.0,0.0,0.0,0.0,0.0,0.0,0.0,0.0,0.0,0.0,0.0,0.0,0.0,0.0,2.8801,2.8321,2.7645,2.76,2.76,2.76,2.76,2.76,2.76,2.76,2.7255,2.651,2.5769,2.5021,2.4305,2.4644,2.4804,2.4842,2.5979,2.6499,2.6499,2.6499,2.6336,2.6067,2.6373,2.6323,2.6067,2.6386,2.6499,2.66,2.7412,2.7871,2.8222,2.9063,2.9553,2.9792,2.9792,2.9792,2.9792,2.9792,2.9792,2.9792,2.9792,2.9792,2.9792,2.9792,2.9792,2.9792,2.9792,2.9792,2.9792,2.9792,2.9792,2.9792,2.9792,2.9792,2.9792,2.9792,2.9792,2.9792,2.9792,2.9792,3.008,3.0896,3.0997,3.1311,3.2106,3.2466,3.2641,3.2641,3.2939,3.3102,3.3102,3.3102,3.2977,3.2654,3.2939,3.2964,3.2654,3.2641,3.2365,3.18,3.2365,3.2641,3.2641,3.2102,3.2311,0.0,0.0,0.0,0.0,0.0,2.3042,0.0,0.0,0.0,2.5186,0.0,0.0,0.0,0.0,0.0,0.0,0.0,0.0,0.0,0.0,0.0,0.0,0.0,0.0,0.0,2.8919,2.8321,2.7645,2.772,2.7735,2.76,2.76,2.76,2.76,2.76,2.7318,2.6721,2.5837,2.5091,2.4508,2.4591,2.4653,2.4678,2.5816,2.6336,2.6336,2.6449,2.6172,2.5653,2.6248,2.6147,2.5649,2.6273,2.6499,2.6625,2.7695,2.8109,2.826,2.9402,2.9792,2.9792,2.9792,2.9792,2.9792,2.9792,2.9792,2.9792,2.9792,2.9792,2.9792,2.9792,2.9792,2.9792,2.9792,2.9792,2.9792,2.9792,2.9792,2.9792,2.9792,2.9792,2.9792,2.9792,2.9792,2.9792,2.9792,2.988,3.0143,3.0696,3.1223,3.1763,3.2315,3.2805,3.3102,3.3102,3.2989,3.2977,3.309,3.2989,3.2776,3.239,3.2717,3.2692,3.2206,3.2102,3.1838,3.1406,3.1838,3.2102,3.2169,3.1303,3.17,0.0,0.0,0.0,0.0,2.424,0.0,0.0,0.0,2.4457,2.4603,0.0,0.0,0.0,0.0,0.0,0.0,0.0,0.0,0.0,0.0,0.0,0.0,0.0,0.0,0.0,0.0,2.8321,2.7645,2.8156,2.8231,2.763,2.76,2.76,2.76,2.76,2.7547,2.7486,2.6094,2.5356,2.5273,2.4471,2.4092,2.413,2.5209,2.5703,2.5724,2.6273,2.6172,2.5653,2.6248,2.6147,2.5649,2.6273,2.6499,2.6625,2.7695,2.8109,2.826,2.9402,2.9792,2.9792,2.9792,2.9792,2.9792,2.9792,2.9792,2.9792,2.9792,2.9792,2.9792,2.9792,2.9792,2.9792,2.9792,2.9792,2.9792,2.9792,2.9792,2.9792,2.9792,2.9792,2.9792,2.9792,2.9792,2.9792,2.9792,3.0206,3.0688,3.1235,3.1788,3.234,3.2939,3.3052,3.3102,3.3102,3.2604,3.2528,3.3065,3.2591,3.2516,3.2977,3.2554,3.2256,3.2194,3.1738,3.1449,3.1406,3.1449,3.1738,3.2194,3.2089,3.2403,0.0,0.0,0.0,0.0,0.0,0.0,0.0,0.0,2.3618,0.0,0.0,0.0,0.0,0.0,0.0,0.0,0.0,0.0,0.0,0.0,0.0,0.0,0.0,0.0,0.0,0.0,0.0,0.0,0.0,2.8321,2.763,2.76,2.76,2.76,2.76,2.76,2.76,2.6148,2.5398,2.5398,2.4451,2.4004,2.4029,2.4779,2.513,2.5172,2.5724,2.5665,2.5222,2.6118,2.6147,2.5649,2.6273,2.6499,2.6625,2.7695,2.8109,2.826,2.9402,2.9792,2.9792,2.9792,2.9792,2.9792,2.9792,2.9792,2.9792,2.9792,2.9792,2.9792,2.9792,2.9792,2.9792,2.9792,2.9792,2.9792,2.9792,2.9792,2.9792,2.9792,2.9792,2.9792,2.9792,2.9792,2.9792,2.9792,3.0269,3.0789,3.1323,3.1876,3.2441,3.304,3.3102,3.3102,3.3102,3.2554,3.2466,3.3065,3.2528,3.2466,3.3077,3.2516,3.2043,3.1738,3.1499,3.1085,3.047,3.0783,3.121,3.1738,3.2064,3.2516,2.3108,0.0,0.0,0.0,0.0,0.0,0.0,0.0,0.0,0.0,0.0,0.0,0.0,0.0,0.0,0.0,0.0,0.0,0.0,0.0,0.0,0.0,0.0,0.0,0.0,0.0,0.0,0.0,2.8395,2.85,2.7645,2.76,2.76,2.76,2.76,2.76,2.76,2.6148,2.5398,2.5398,2.4283,2.375,2.3763,2.4327,2.4578,2.4603,2.5159,2.5172,2.4879,2.5854,2.5992,2.5649,2.6273,2.6499,2.6612,2.755,2.7971,2.8247,2.9214,2.9666,2.9792,2.9792,2.9792,2.9792,2.9792,2.9792,2.9792,2.9792,2.9792,2.9792,2.9792,2.9792,2.9792,2.9792,2.9792,2.9792,2.9792,2.9792,2.9792,2.9792,2.9792,2.9792,2.9792,2.9792,2.9842,2.9993,3.0482,3.1022,3.1549,3.2102,3.2604,3.3052,3.3102,3.3102,3.3102,3.2554,3.239,3.2839,3.2591,3.2641,3.3077,3.2378,3.18,3.1419,3.1097,3.0645,3.0018,3.0419,3.0884,3.1419,3.18,3.2378,0.0,0.0,0.0,2.3108,0.0,0.0,0.0,0.0,2.4268,0.0,0.0,0.0,0.0,0.0,0.0,0.0,0.0,0.0,0.0,0.0,0.0,0.0,0.0,0.0,0.0,0.0,0.0,2.769,2.8828,2.8992,2.766,2.76,2.76,2.76,2.76,2.76,2.76,2.6148,2.5398,2.5384,2.3868,2.3133,2.3145,2.375,2.4029,2.4054,2.4591,2.4829,2.4842,2.5398,2.5611,2.5649,2.6273,2.6499,2.6562,2.7123,2.7645,2.8185,2.8743,2.9308,2.9792,2.9792,2.9792,2.9792,2.9792,2.9792,2.9792,2.9792,2.9792,2.9792,2.9792,2.9792,2.9792,2.9792,2.9792,2.9792,2.9792,2.9792,2.9792,2.9792,2.9792,2.9792,2.9792,2.9792,2.998,3.0487,3.1035,3.1562,3.2114,3.2692,3.3077,3.3102,3.3102,3.3102,3.3102,3.2554,3.2206,3.224,3.2776,3.3077,3.3102,3.2022,3.1432,3.1406,3.0369,3.0093,3.0563,3.0588,3.0884,3.1406,3.1432,3.2035,0.0,0.0,2.3108,2.3108,0.0,0.0,0.0,0.0,0.0,0.0,0.0,0.0,0.0,0.0,0.0,0.0,0.0,0.0,0.0,0.0,0.0,0.0,0.0,0.0,0.0,0.0,0.0,2.766,2.8425,2.8545,0.0,2.8021,2.8248,2.8248,2.8248,2.8248,2.8248,2.6361,2.5632,2.6109,2.4063,2.3555,2.4397,2.3718,2.3625,2.4004,2.4192,2.4264,2.4302,2.4842,2.5285,2.5611,2.5829,2.616,2.6562,2.7097,2.765,2.8235,2.9176,2.9628,2.9792,2.9792,2.9792,2.9792,2.9792,2.9792,2.9792,2.9792,2.9792,2.9792,2.9792,2.9792,2.9792,2.9792,2.9792,2.9792,2.9792,2.9792,2.9792,2.9792,2.9792,2.9792,2.9792,3.0093,3.0387,3.0563,3.1373,3.2001,3.219,3.239,3.2654,3.3052,3.2729,3.2667,3.3065,3.2914,3.2616,3.224,3.239,3.2503,3.2503,3.1788,3.1223,3.0884,3.052,3.0236,3.0068,3.0068,3.0344,3.0871,3.0871,3.1273,2.3108,2.3108,0.0,2.3108,2.3108,0.0,2.3108,0.0,0.0,0.0,0.0,0.0,0.0,0.0,0.0,0.0,0.0,0.0,0.0,2.76,0.0,0.0,0.0,0.0,0.0,0.0,2.8321,2.7645,2.8216,2.8321,0.0,0.0,2.8607,2.8607,2.8831,2.8831,2.8607,2.6975,2.613,2.6095,2.4352,2.3827,2.4369,2.3485,2.3308,2.3675,2.3675,2.3788,2.4029,2.4365,2.4929,2.5598,2.5598,2.5967,2.6537,2.6901,2.7487,2.8235,2.9164,2.9616,2.9792,2.9792,2.9792,2.9792,2.9792,2.9792,2.9792,2.9792,2.9792,2.9792,2.9792,2.9792,2.9792,2.9792,2.9792,2.9792,2.9792,2.9792,2.9792,2.9792,2.9792,2.9854,3.0043,3.0382,3.0651,3.0871,3.1474,3.1989,3.219,3.2039,3.2064,3.2449,3.2315,3.2441,3.3052,3.2901,3.2726,3.2528,3.2328,3.2194,3.2194,3.1499,3.1135,3.1165,3.06,3.0331,3.0376,2.9999,2.998,3.0331,3.05,3.0683]},{"header":{"parameterUnit":"m.s-1","parameterCategory":1,"la1":30.6,"la2":29.2853,"lo1":-89.7004,"lo2":-87.6739,"dy":0.0162,"dx":0.0183,"nx":112,"ny":82,"refTime":"2023-09-16T18:00:00:Z","depth":0,"parameterNumber":3,"parameterNumberName":"V-component_of_WINDS"},"data":[0.0,0.0,0.0,0.0,0.0,0.0,0.0,0.0,0.0,0.0,0.0,0.0,0.0,0.0,0.0,0.0,0.0,0.0,0.0,0.0,0.0,0.0,0.0,0.0,0.0,0.0,0.0,0.0,0.0,0.0,0.0,0.0,0.0,0.0,0.0,0.0,0.0,0.0,0.0,0.0,0.0,0.0,0.0,0.0,0.0,0.0,0.0,0.0,0.0,0.0,0.0,0.0,0.0,0.0,0.0,0.0,0.0,0.0,0.0,0.0,0.0,0.0,0.0,0.0,0.0,0.0,0.0,0.0,0.0,0.0,0.0,0.0,0.0,0.0,0.0,0.0,0.0,0.0,0.0,0.0,0.0,0.0,0.0,0.0,0.0,0.0,0.0,0.0,0.0,0.0,0.0,2.4575,2.5321,2.577,2.577,2.5194,2.4517,2.3782,0.0,0.0,0.0,0.0,0.0,0.0,0.0,0.0,0.0,0.0,0.0,0.0,0.0,0.0,0.0,0.0,0.0,0.0,0.0,0.0,0.0,0.0,0.0,0.0,0.0,0.0,0.0,0.0,0.0,0.0,0.0,0.0,0.0,0.0,0.0,0.0,0.0,0.0,0.0,0.0,0.0,0.0,0.0,0.0,0.0,0.0,0.0,0.0,0.0,0.0,0.0,0.0,0.0,0.0,0.0,0.0,0.0,0.0,0.0,0.0,0.0,0.0,0.0,0.0,0.0,0.0,0.0,0.0,0.0,0.0,0.0,0.0,0.0,0.0,0.0,0.0,0.0,0.0,0.0,0.0,0.0,0.0,0.0,0.0,0.0,0.0,0.0,0.0,0.0,0.0,0.0,0.0,0.0,0.0,0.0,0.0,0.0,0.0,0.0,0.0,0.0,0.0,0.0,0.0,2.3917,2.5287,2.6082,2.6522,2.6522,2.6429,2.6057,2.5313,0.0,0.0,0.0,0.0,0.0,0.0,0.0,0.0,0.0,0.0,0.0,0.0,0.0,0.0,0.0,0.0,0.0,0.0,0.0,0.0,0.0,0.0,0.0,0.0,0.0,0.0,0.0,0.0,0.0,0.0,0.0,0.0,0.0,0.0,0.0,0.0,0.0,0.0,0.0,0.0,0.0,0.0,0.0,0.0,0.0,0.0,0.0,0.0,0.0,0.0,0.0,0.0,0.0,0.0,0.0,0.0,0.0,0.0,0.0,0.0,0.0,0.0,0.0,0.0,0.0,0.0,0.0,0.0,0.0,0.0,0.0,0.0,0.0,0.0,0.0,0.0,0.0,0.0,0.0,0.0,0.0,0.0,0.0,0.0,0.0,0.0,0.0,0.0,0.0,0.0,0.0,0.0,0.0,0.0,0.0,0.0,0.0,0.0,0.0,0.0,0.0,0.0,0.0,2.434,2.5,2.6082,2.6496,2.67,2.67,2.6336,2.5956,2.5617,2.4906,0.0,0.0,0.0,0.0,0.0,0.0,0.0,0.0,0.0,0.0,0.0,0.0,0.0,0.0,0.0,0.0,0.0,0.0,0.0,0.0,0.0,0.0,0.0,0.0,0.0,0.0,0.0,0.0,0.0,0.0,0.0,0.0,0.0,0.0,0.0,0.0,0.0,0.0,0.0,0.0,0.0,0.0,0.0,0.0,0.0,0.0,0.0,0.0,0.0,0.0,0.0,0.0,0.0,0.0,0.0,0.0,0.0,0.0,0.0,0.0,0.0,0.0,0.0,0.0,0.0,0.0,0.0,0.0,0.0,0.0,0.0,0.0,0.0,0.0,0.0,0.0,0.0,0.0,0.0,0.0,0.0,0.0,0.0,0.0,0.0,0.0,0.0,0.0,0.0,0.0,0.0,0.0,0.0,0.0,0.0,0.0,0.0,0.0,0.0,0.0,0.0,0.0,2.5295,2.6082,2.6649,2.67,2.67,2.67,2.6184,2.5854,2.5854,2.5329,0.0,0.0,0.0,0.0,0.0,0.0,0.0,0.0,0.0,0.0,0.0,0.0,0.0,0.0,0.0,0.0,0.0,0.0,0.0,0.0,0.0,0.0,0.0,0.0,0.0,0.0,0.0,0.0,0.0,0.0,0.0,0.0,0.0,0.0,0.0,0.0,0.0,0.0,0.0,0.0,0.0,0.0,0.0,0.0,0.0,0.0,0.0,0.0,0.0,0.0,0.0,0.0,0.0,0.0,0.0,0.0,0.0,0.0,0.0,0.0,0.0,0.0,0.0,0.0,0.0,0.0,0.0,0.0,0.0,0.0,0.0,0.0,0.0,0.0,0.0,0.0,0.0,0.0,0.0,0.0,0.0,0.0,0.0,0.0,0.0,0.0,0.0,0.0,0.0,0.0,0.0,0.0,0.0,0.0,0.0,0.0,0.0,0.0,0.0,0.0,0.0,0.0,2.5735,2.6649,2.6691,2.67,2.67,2.67,2.6649,2.6623,2.6623,2.6581,0.0,0.0,0.0,0.0,0.0,0.0,0.0,0.0,0.0,0.0,0.0,0.0,0.0,0.0,0.0,0.0,0.0,0.0,0.0,0.0,0.0,0.0,0.0,0.0,0.0,0.0,0.0,0.0,0.0,0.0,0.0,0.0,0.0,0.0,0.0,0.0,0.0,0.0,0.0,0.0,0.0,0.0,0.0,0.0,0.0,0.0,0.0,0.0,0.0,0.0,0.0,0.0,0.0,0.0,0.0,0.0,0.0,0.0,0.0,0.0,0.0,0.0,0.0,0.0,0.0,0.0,0.0,0.0,0.0,0.0,0.0,0.0,0.0,0.0,0.0,0.0,0.0,0.0,0.0,0.0,0.0,0.0,0.0,0.0,0.0,0.0,0.0,0.0,0.0,0.0,0.0,0.0,0.0,0.0,0.0,0.0,0.0,0.0,0.0,0.0,0.0,0.0,2.5794,2.67,0.0,2.67,2.67,2.67,2.67,2.67,2.67,0.0,0.0,0.0,0.0,0.0,0.0,0.0,0.0,0.0,0.0,0.0,0.0,0.0,0.0,0.0,0.0,0.0,0.0,0.0,0.0,0.0,0.0,0.0,0.0,0.0,0.0,0.0,0.0,0.0,0.0,0.0,0.0,0.0,0.0,0.0,0.0,0.0,0.0,0.0,0.0,0.0,0.0,0.0,0.0,0.0,0.0,0.0,0.0,0.0,0.0,0.0,0.0,0.0,0.0,0.0,0.0,0.0,0.0,0.0,0.0,0.0,0.0,0.0,0.0,0.0,0.0,0.0,0.0,0.0,0.0,0.0,0.0,0.0,0.0,0.0,0.0,0.0,0.0,0.0,0.0,0.0,0.0,0.0,0.0,0.0,0.0,0.0,0.0,0.0,0.0,0.0,0.0,0.0,0.0,0.0,0.0,0.0,0.0,0.0,0.0,0.0,0.0,2.5227,2.6073,2.6793,0.0,2.6843,2.67,2.67,2.67,2.67,2.67,0.0,0.0,0.0,0.0,0.0,0.0,0.0,0.0,0.0,0.0,0.0,0.0,0.0,0.0,0.0,0.0,0.0,0.0,0.0,0.0,0.0,0.0,0.0,0.0,0.0,0.0,0.0,0.0,0.0,0.0,0.0,0.0,0.0,0.0,0.0,0.0,0.0,0.0,0.0,0.0,0.0,0.0,0.0,0.0,0.0,0.0,0.0,0.0,0.0,0.0,0.0,0.0,0.0,0.0,0.0,0.0,0.0,0.0,0.0,0.0,0.0,0.0,0.0,0.0,0.0,0.0,0.0,0.0,0.0,0.0,0.0,0.0,0.0,0.0,0.0,0.0,0.0,0.0,0.0,0.0,0.0,0.0,0.0,0.0,0.0,0.0,0.0,0.0,0.0,0.0,0.0,0.0,0.0,0.0,0.0,0.0,0.0,0.0,0.0,0.0,0.0,0.0,2.6615,2.6716,2.6996,2.7722,2.7139,2.67,2.67,2.67,2.67,0.0,0.0,0.0,0.0,0.0,0.0,0.0,0.0,0.0,0.0,0.0,0.0,0.0,0.0,0.0,0.0,0.0,0.0,0.0,0.0,0.0,0.0,0.0,0.0,0.0,0.0,0.0,0.0,0.0,0.0,0.0,0.0,0.0,0.0,0.0,0.0,0.0,0.0,0.0,0.0,0.0,0.0,0.0,0.0,0.0,0.0,0.0,0.0,0.0,0.0,0.0,0.0,0.0,0.0,0.0,0.0,0.0,0.0,0.0,0.0,0.0,0.0,0.0,0.0,0.0,0.0,0.0,0.0,0.0,0.0,0.0,0.0,0.0,0.0,0.0,0.0,0.0,0.0,0.0,0.0,0.0,0.0,0.0,0.0,0.0,0.0,0.0,0.0,0.0,0.0,0.0,0.0,0.0,0.0,0.0,0.0,0.0,0.0,0.0,0.0,0.0,0.0,0.0,2.6742,2.7156,2.7553,2.7781,2.7139,2.67,2.67,2.67,2.67,2.67,0.0,0.0,0.0,0.0,0.0,0.0,0.0,0.0,0.0,0.0,0.0,0.0,0.0,0.0,0.0,0.0,0.0,0.0,0.0,0.0,0.0,0.0,0.0,0.0,0.0,0.0,0.0,0.0,0.0,0.0,0.0,0.0,0.0,0.0,0.0,0.0,0.0,0.0,0.0,0.0,0.0,0.0,0.0,0.0,0.0,0.0,0.0,0.0,0.0,0.0,0.0,0.0,0.0,0.0,0.0,0.0,0.0,0.0,0.0,0.0,0.0,0.0,0.0,0.0,0.0,0.0,0.0,0.0,0.0,0.0,0.0,0.0,0.0,0.0,0.0,0.0,0.0,0.0,0.0,0.0,0.0,0.0,0.0,0.0,0.0,0.0,0.0,0.0,0.0,0.0,0.0,0.0,0.0,0.0,0.0,0.0,0.0,0.0,0.0,0.0,0.0,0.0,2.763,2.7994,2.8272,2.8272,2.7579,2.7012,2.6733,2.67,2.67,2.67,0.0,0.0,0.0,0.0,0.0,0.0,0.0,0.0,0.0,0.0,0.0,0.0,0.0,0.0,0.0,0.0,0.0,0.0,0.0,0.0,0.0,0.0,0.0,0.0,0.0,0.0,0.0,0.0,0.0,0.0,0.0,0.0,0.0,0.0,0.0,0.0,0.0,0.0,0.0,0.0,0.0,0.0,0.0,0.0,0.0,0.0,0.0,0.0,0.0,0.0,0.0,0.0,0.0,0.0,0.0,0.0,0.0,0.0,0.0,0.0,0.0,0.0,0.0,0.0,0.0,0.0,0.0,0.0,0.0,0.0,0.0,0.0,0.0,0.0,0.0,0.0,0.0,0.0,0.0,0.0,0.0,0.0,0.0,0.0,0.0,0.0,0.0,0.0,0.0,0.0,0.0,0.0,0.0,0.0,0.0,0.0,0.0,0.0,0.0,0.0,0.0,0.0,2.8908,2.9061,2.9094,2.9094,2.8399,2.7647,2.697,2.6852,2.6835,2.6919,0.0,0.0,0.0,0.0,0.0,0.0,0.0,0.0,0.0,0.0,0.0,0.0,0.0,0.0,0.0,0.0,0.0,0.0,0.0,0.0,0.0,0.0,0.0,0.0,0.0,0.0,0.0,0.0,0.0,0.0,0.0,0.0,0.0,0.0,0.0,0.0,0.0,0.0,0.0,0.0,0.0,0.0,0.0,0.0,0.0,0.0,0.0,0.0,0.0,0.0,0.0,0.0,0.0,0.0,0.0,0.0,0.0,0.0,0.0,0.0,2.4517,0.0,0.0,0.0,0.0,0.0,0.0,0.0,0.0,0.0,0.0,0.0,0.0,0.0,0.0,0.0,0.0,0.0,0.0,0.0,0.0,0.0,0.0,0.0,0.0,0.0,0.0,0.0,0.0,0.0,0.0,0.0,0.0,0.0,0.0,0.0,0.0,0.0,0.0,0.0,0.0,0.0,2.8976,2.9508,2.9871,2.9871,2.9187,2.8679,2.8519,2.7926,2.7833,2.8468,2.7376,0.0,0.0,0.0,0.0,0.0,0.0,0.0,0.0,0.0,0.0,0.0,0.0,0.0,0.0,0.0,0.0,0.0,0.0,0.0,0.0,0.0,0.0,0.0,0.0,0.0,0.0,0.0,0.0,0.0,0.0,0.0,0.0,0.0,0.0,0.0,0.0,0.0,0.0,0.0,0.0,0.0,0.0,0.0,0.0,0.0,0.0,0.0,0.0,0.0,0.0,0.0,0.0,0.0,0.0,0.0,0.0,0.0,0.0,0.0,0.0,2.5447,0.0,0.0,0.0,0.0,0.0,0.0,0.0,0.0,0.0,0.0,0.0,0.0,0.0,0.0,0.0,0.0,0.0,0.0,0.0,0.0,0.0,0.0,0.0,0.0,0.0,0.0,0.0,0.0,0.0,0.0,0.0,0.0,0.0,0.0,0.0,0.0,0.0,0.0,0.0,0.0,2.9482,3.0176,3.0497,3.0132,2.9753,2.939,2.9027,2.8628,2.8552,2.8976,2.8239,0.0,0.0,0.0,0.0,0.0,0.0,0.0,0.0,0.0,0.0,0.0,0.0,0.0,0.0,0.0,0.0,0.0,0.0,0.0,0.0,0.0,0.0,0.0,0.0,0.0,0.0,0.0,0.0,0.0,0.0,0.0,0.0,0.0,0.0,0.0,0.0,0.0,0.0,0.0,0.0,0.0,0.0,0.0,0.0,0.0,0.0,0.0,0.0,0.0,0.0,0.0,0.0,0.0,0.0,2.8746,2.9382,2.9382,2.9382,2.9281,2.7385,2.6776,2.7089,0.0,0.0,0.0,0.0,0.0,0.0,0.0,0.0,0.0,0.0,0.0,0.0,0.0,0.0,0.0,0.0,0.0,0.0,0.0,0.0,0.0,0.0,0.0,0.0,0.0,2.7908,2.7849,0.0,0.0,0.0,0.0,0.0,0.0,0.0,0.0,0.0,0.0,0.0,0.0,3.0209,3.0937,3.1157,3.0548,3.0369,3.0057,2.945,2.9264,2.9247,2.9382,2.9145,2.9128,0.0,0.0,0.0,0.0,0.0,0.0,0.0,0.0,0.0,0.0,0.0,0.0,0.0,0.0,0.0,0.0,0.0,0.0,0.0,0.0,0.0,0.0,0.0,0.0,0.0,0.0,0.0,0.0,0.0,0.0,0.0,0.0,2.6536,2.6394,0.0,0.0,0.0,0.0,0.0,0.0,0.0,0.0,0.0,0.0,0.0,0.0,0.0,0.0,2.84,2.9144,2.9888,3.0608,3.07,3.0801,3.0913,3.0913,3.0913,3.0896,3.0591,0.0,2.8637,2.7934,0.0,0.0,0.0,0.0,0.0,0.0,0.0,0.0,0.0,0.0,0.0,0.0,0.0,0.0,0.0,0.0,0.0,0.0,0.0,0.0,0.0,0.0,2.7672,2.7781,2.8323,2.8824,0.0,2.8764,2.8807,2.8722,0.0,0.0,0.0,0.0,0.0,0.0,0.0,0.0,3.1038,3.1691,3.2124,3.2022,3.1437,3.1021,3.0913,3.0328,3.0226,3.0879,2.9721,2.9568,3.0862,3.0294,0.0,0.0,0.0,0.0,0.0,0.0,0.0,0.0,0.0,0.0,0.0,0.0,0.0,0.0,0.0,0.0,0.0,0.0,0.0,0.0,0.0,0.0,0.0,0.0,0.0,0.0,0.0,0.0,0.0,2.7078,2.7173,2.6759,2.5941,2.5157,0.0,0.0,0.0,0.0,0.0,0.0,0.0,0.0,0.0,2.8738,2.9786,3.0506,3.0855,3.1579,3.2324,3.3051,3.3051,3.3271,3.3649,3.3237,3.3051,3.3034,3.2611,3.207,3.1343,2.9743,2.9059,2.8925,0.0,0.0,0.0,0.0,0.0,2.8552,2.8138,0.0,0.0,0.0,0.0,0.0,0.0,0.0,0.0,0.0,0.0,0.0,0.0,0.0,0.0,2.9507,2.9668,2.9847,3.0685,3.0533,2.9982,0.0,2.9322,2.9491,2.9077,0.0,0.0,0.0,0.0,0.0,3.2324,3.2713,3.2926,3.2926,3.2266,3.1809,3.1809,3.114,3.0852,3.1183,3.0591,3.0523,3.1166,3.0886,3.0717,0.0,0.0,0.0,0.0,0.0,0.0,0.0,0.0,0.0,0.0,0.0,0.0,0.0,0.0,0.0,0.0,0.0,0.0,0.0,0.0,0.0,0.0,0.0,0.0,0.0,0.0,0.0,0.0,2.7906,2.7904,2.7164,2.6898,2.6366,0.0,0.0,0.0,0.0,0.0,0.0,2.9501,3.0446,3.1207,3.1749,3.2655,3.3231,3.3444,3.4009,3.4641,3.5368,3.5368,3.5656,3.6169,3.5622,3.5368,3.5334,3.4782,3.4444,3.4083,3.1664,3.0446,3.0083,2.9721,2.9687,2.9822,2.9636,2.9914,3.0311,2.9745,2.9931,3.0217,2.927,0.0,2.8813,2.8087,0.0,0.0,0.0,0.0,2.9568,2.9568,0.0,3.0127,3.1217,3.1207,3.1258,3.2334,3.2148,3.1376,0.0,3.0287,3.0548,3.0185,0.0,0.0,0.0,0.0,3.2662,3.3548,3.3852,3.3886,3.37,3.3028,3.2571,3.2571,3.1911,3.1471,3.1471,3.1292,3.12,3.12,3.12,3.12,3.12,0.0,0.0,0.0,0.0,0.0,0.0,0.0,0.0,0.0,0.0,0.0,0.0,0.0,0.0,0.0,0.0,0.0,0.0,0.0,0.0,0.0,0.0,0.0,0.0,0.0,0.0,0.0,0.0,0.0,2.7933,2.8101,0.0,0.0,0.0,0.0,2.8773,2.9516,3.0267,3.1048,3.2459,3.3243,3.3288,3.4681,3.5808,3.6575,3.6609,3.7004,3.7724,3.7724,3.7741,3.7775,3.7741,3.7724,3.7724,3.7691,3.728,3.6406,3.3427,3.2588,3.3041,3.163,3.1522,3.2056,3.1352,3.1116,3.114,3.1099,3.1116,3.1251,3.187,3.2073,3.1938,3.12,3.1004,0.0,0.0,3.1099,3.1099,3.1099,3.1606,3.2158,3.2226,3.2757,3.3243,3.3328,3.3311,3.3068,0.0,3.2158,3.2412,3.3057,0.0,3.3203,3.3277,3.4478,3.5154,3.4533,3.5053,3.5222,3.4523,3.3778,3.3339,3.3339,3.2672,3.2242,3.2242,3.1589,3.12,3.12,3.12,3.12,3.12,3.12,0.0,0.0,0.0,0.0,0.0,0.0,0.0,0.0,0.0,0.0,0.0,0.0,0.0,0.0,0.0,0.0,0.0,0.0,0.0,0.0,0.0,0.0,0.0,0.0,0.0,0.0,0.0,0.0,2.9583,2.9962,0.0,2.984,3.0347,3.1014,3.1765,3.251,3.3474,3.4736,3.5295,3.5819,3.627,3.728,3.7922,3.8205,3.8222,3.8594,3.9305,3.8819,3.8865,3.9305,3.8819,3.8616,3.8582,3.8108,3.7741,3.7415,3.6349,3.547,3.4754,3.4241,3.419,3.4393,3.4123,3.4353,3.472,3.4218,3.4021,3.3835,3.2682,3.2293,3.2344,3.2544,3.2949,3.3423,3.3903,3.4021,3.4021,3.4021,3.4224,3.4556,3.5058,3.4996,3.4833,3.4833,3.4444,3.4032,3.3772,3.3332,3.3085,3.3345,3.3795,3.4269,3.4748,3.5707,3.6462,3.6654,3.6502,3.6276,3.6017,3.4872,3.4117,3.4117,3.2994,3.2293,3.2293,3.1606,3.12,3.12,3.12,3.12,3.12,3.12,3.12,0.0,0.0,0.0,0.0,0.0,0.0,0.0,0.0,0.0,0.0,0.0,0.0,0.0,0.0,0.0,0.0,0.0,0.0,0.0,0.0,0.0,0.0,0.0,0.0,0.0,0.0,3.0376,3.109,3.2063,3.2594,3.2341,3.2983,3.3738,3.4489,3.5007,3.5836,3.7105,3.741,3.7765,3.8261,3.9,3.9372,3.9372,3.9372,3.9609,4.0096,3.9592,3.9626,4.0079,3.9592,3.9372,3.9339,3.8853,3.8633,3.8633,3.8633,3.8041,3.7065,3.6575,3.6389,3.6389,3.6389,3.671,3.7088,3.6558,3.6389,3.6135,3.4669,3.4195,3.428,3.4776,3.5267,3.5757,3.6236,3.6389,3.6389,3.6389,3.6389,3.6507,3.7038,3.6755,3.6389,3.6389,3.5994,3.5639,3.5639,3.4624,3.3947,3.4455,3.4956,3.5532,3.627,3.7043,3.763,3.786,3.7686,3.7444,3.7207,3.6039,3.5278,3.5278,3.389,3.2936,3.2689,3.1979,3.1454,3.1207,3.12,3.12,3.12,3.12,3.12,3.12,0.0,0.0,0.0,0.0,0.0,0.0,0.0,0.0,0.0,0.0,0.0,0.0,0.0,0.0,0.0,0.0,0.0,0.0,0.0,0.0,0.0,0.0,0.0,2.923,3.1024,3.2412,3.2446,3.4353,3.5391,3.4675,3.5273,3.6033,3.6812,3.6897,3.7207,3.7939,3.865,3.9022,3.9022,3.9728,4.0096,4.0096,4.0096,4.0096,4.0096,4.0096,4.0096,4.0096,4.0096,4.0096,4.0096,4.0096,4.0096,4.0096,4.0096,4.0096,3.996,3.8531,3.7961,3.7961,3.7961,3.7961,3.7961,3.7927,3.7927,3.7927,3.7922,3.791,3.7927,3.7927,3.7944,3.7961,3.7961,3.7961,3.7961,3.7961,3.7961,3.7961,3.7961,3.7961,3.7973,3.7927,3.7927,3.7927,3.7893,3.6113,3.5075,3.6581,3.6846,3.7105,3.7838,3.8565,0.0,3.8063,3.8565,3.8717,3.8012,3.7274,3.6829,3.6795,3.5379,3.4184,3.3446,3.2689,3.1955,3.1224,3.12,3.1207,3.1224,3.1268,3.1268,3.1268,0.0,0.0,0.0,0.0,0.0,0.0,0.0,0.0,0.0,0.0,0.0,0.0,0.0,0.0,0.0,0.0,0.0,0.0,0.0,0.0,0.0,0.0,3.1809,3.2138,3.3632,3.4912,3.5492,3.6569,3.7183,3.6992,3.7635,3.8159,3.8374,3.8894,3.9283,3.9474,3.969,3.9795,3.9795,3.9994,4.0096,4.0096,4.0096,4.0096,4.0096,4.0096,4.0096,4.0096,4.0096,4.0096,4.0096,4.0096,4.0096,4.0096,4.0096,4.0096,4.0062,3.9643,3.9491,3.9491,3.9491,3.9491,3.9423,3.887,3.87,3.8616,3.8075,3.8261,3.87,3.87,3.9068,3.9491,3.9491,3.9491,3.9491,3.9491,3.9491,3.9491,3.9491,3.9491,3.9356,3.8802,3.87,3.8531,3.7995,3.7398,3.711,3.7516,3.8041,3.8459,3.8667,3.9339,0.0,3.9525,3.9203,3.892,3.8717,3.8041,3.7381,3.6846,3.5379,3.4184,3.3446,3.2205,3.142,3.1217,3.12,3.1454,3.1989,3.251,3.2797,0.0,0.0,0.0,0.0,0.0,0.0,0.0,0.0,0.0,0.0,0.0,0.0,0.0,0.0,0.0,0.0,0.0,0.0,0.0,0.0,0.0,0.0,3.2919,3.4652,3.6017,3.6422,3.6845,3.763,3.8374,3.8819,3.8819,3.9478,3.9783,3.9474,4.0134,4.0422,4.013,4.0388,4.0557,4.0557,4.0557,4.0557,4.0557,4.0252,4.0096,4.0096,4.0096,4.0096,4.0096,4.0096,4.0096,0.0,4.0096,4.0096,4.0096,4.0096,4.0096,0.0,0.0,0.0,0.0,0.0,4.0096,4.0045,3.9609,3.9457,3.9389,3.8954,3.9119,3.9457,3.9457,3.9757,4.0096,4.0096,4.0096,4.0096,4.0096,4.0096,4.0096,4.0096,4.0096,3.9982,3.9542,3.9457,3.9339,3.8903,0.0,0.0,3.8819,3.892,3.9102,3.9406,3.9842,4.0096,4.0096,3.9728,3.9457,3.9457,3.8802,3.8058,3.7325,3.6158,0.0,0.0,0.0,3.2442,3.2138,3.2121,0.0,0.0,0.0,3.3396,3.3396,0.0,0.0,0.0,3.367,3.3863,0.0,0.0,0.0,0.0,0.0,0.0,0.0,0.0,0.0,0.0,0.0,0.0,0.0,0.0,0.0,0.0,3.5921,3.7765,3.9809,3.9111,3.8633,3.9276,3.9948,4.035,4.035,4.0946,4.1018,4.0282,4.0899,4.1001,4.0265,0.0,0.0,0.0,0.0,4.1204,4.1204,4.0557,4.0218,4.0231,4.0316,4.035,4.035,4.0265,4.0218,4.0218,4.0146,4.0045,3.9952,3.9952,3.9914,3.9863,4.0033,4.0096,4.0096,4.0096,4.0096,0.0,0.0,0.0,0.0,4.0096,4.0096,4.0096,4.0096,4.0096,4.0096,4.0096,4.0096,4.0096,4.0096,4.0096,4.0096,4.0096,4.0096,4.0096,4.0096,4.0096,4.0096,4.0096,4.0096,4.0096,4.0096,3.9559,3.9356,4.0011,4.0096,4.0096,4.0096,4.0096,4.0096,4.0096,0.0,0.0,3.8091,3.7359,3.6276,3.472,3.4472,3.4083,3.344,3.3491,3.3514,3.3514,3.3599,3.3649,3.3649,3.4303,3.4624,3.4624,3.4624,3.4624,0.0,0.0,0.0,0.0,0.0,0.0,0.0,0.0,0.0,0.0,0.0,0.0,0.0,0.0,0.0,3.4212,3.6801,3.892,3.9956,4.0882,4.1491,4.164,4.1792,4.1877,4.1877,4.2012,4.1779,4.1035,4.166,4.1775,4.1035,4.1677,0.0,4.2097,4.1508,4.1204,4.1204,4.1068,4.0984,4.0984,0.0,0.0,4.186,4.1255,4.0984,4.095,4.0354,3.9744,3.9126,3.9126,3.8789,3.836,3.9597,4.0096,4.0096,4.0096,4.0096,4.0096,4.0096,4.0096,4.0096,4.0096,4.0096,4.0096,4.0096,4.0096,0.0,4.0096,4.0096,4.0096,4.0096,4.0096,4.0096,4.0096,4.0096,4.0096,4.0096,4.0096,4.0096,4.0096,4.0096,4.0096,4.0096,3.9982,3.9943,4.0079,4.0096,4.0096,4.0096,4.0096,4.0096,4.0096,3.9977,3.9592,3.8853,3.8108,3.7043,3.5492,3.4258,3.3558,3.3406,3.3964,3.4297,3.4297,3.4867,3.516,3.516,3.5323,3.5391,3.5391,3.5391,3.5391,0.0,0.0,0.0,0.0,0.0,0.0,0.0,0.0,0.0,0.0,0.0,3.1099,0.0,0.0,3.5024,3.6513,3.8633,4.0358,4.1102,4.2503,4.3298,4.2895,4.2861,4.3014,4.3416,4.345,4.3129,4.2358,4.2628,4.254,4.1779,4.2455,4.2861,4.2861,4.2493,4.2307,4.2307,4.1931,4.1745,4.1745,4.213,4.23,4.2269,4.1542,4.1204,4.117,4.0422,3.9636,3.8867,3.8497,3.8135,3.7906,3.9062,3.9262,3.8995,3.9371,3.9503,3.9571,3.9952,4.0096,4.0096,4.0096,4.0096,4.0096,4.0096,4.0096,4.0096,4.0096,4.0096,4.0096,4.0096,4.0096,4.0096,4.0096,4.0096,4.0096,4.0096,4.0096,4.0096,4.0096,4.0096,4.0096,4.0096,4.0096,4.0096,4.0096,4.0096,4.0096,4.0096,4.0096,4.0096,4.0096,4.0096,3.9795,3.9068,3.8328,3.7415,3.6265,3.5504,3.4912,3.4529,3.485,3.5053,3.5053,3.5408,3.56,3.56,3.56,3.56,3.56,3.56,3.56,0.0,0.0,0.0,0.0,0.0,0.0,0.0,0.0,3.0499,3.1979,3.2638,3.3535,3.5475,3.6603,3.7664,3.9,4.0561,4.1833,4.2422,4.3839,4.4635,4.4116,4.4065,4.4333,4.4956,4.4888,4.4499,4.3693,4.3626,4.3318,4.254,4.3234,4.3626,4.3626,4.349,4.3406,4.3406,4.2811,4.2506,4.2523,4.2672,4.2756,4.2723,4.1813,4.1407,4.136,4.0173,3.9196,3.8398,3.7661,3.7354,3.7428,3.8159,3.8088,3.7704,3.8745,3.9126,3.9236,3.9876,4.0096,4.0096,4.0096,4.0096,4.0096,4.0096,4.0096,4.0096,4.0096,4.0096,4.0096,4.0096,4.0096,4.0096,4.0096,4.0096,4.0096,4.0096,4.0096,4.0096,4.0096,4.0096,4.0096,4.0096,4.0096,4.0096,4.0096,4.0096,4.0096,4.0096,4.0096,4.0096,4.0096,4.0096,3.9846,3.9254,3.8531,3.7855,3.7257,3.7088,3.6721,3.6073,3.5915,3.5831,3.5831,3.5831,3.5831,3.5831,3.5983,3.605,3.605,3.605,3.5898,2.3417,2.4949,2.708,2.9185,3.0277,3.1681,0.0,0.0,3.4313,3.5864,3.5673,3.5526,3.6496,3.7816,3.9017,3.9829,4.1762,4.3186,4.3271,4.459,4.5788,4.6346,4.6413,4.6447,4.6546,4.5957,4.5263,4.4516,4.4465,4.4127,4.3321,4.4028,4.4465,4.4465,4.3761,4.3406,4.3406,4.3321,4.3288,4.3288,4.4009,4.4344,4.4279,4.2841,4.2181,4.2017,3.9271,3.7601,3.6798,3.6054,3.5749,3.583,3.6569,3.6813,3.7009,3.9169,3.9982,3.9978,4.007,4.0096,4.0096,4.0096,4.0096,4.0096,4.0096,4.0096,4.0096,4.0096,4.0096,4.0096,4.0096,4.0096,4.0096,4.0096,4.0096,4.0096,4.0096,4.0096,4.0096,4.0096,4.0096,4.0096,4.0096,4.0096,4.0096,4.0096,4.0096,4.0096,4.0096,4.0096,4.0096,4.0096,4.0096,4.0079,3.9982,3.9305,3.8848,3.8763,3.8142,3.7736,3.764,3.7021,3.6677,3.6677,3.6677,3.6677,3.6677,3.7313,3.764,3.764,3.764,3.6913,2.6293,2.7952,0.0,0.0,3.2266,3.3535,3.5092,3.5284,3.5707,3.768,3.8154,3.8594,3.9779,4.0506,4.1031,0.0,4.2909,4.4096,4.4096,4.5771,4.694,4.6802,4.7175,4.7614,4.8037,4.7022,4.6397,4.6515,4.572,4.5094,4.4759,4.4651,4.4615,4.4615,4.4279,4.4096,4.4096,4.4096,4.4096,4.4096,4.3927,4.4124,4.4505,4.2033,4.0451,3.9575,3.784,3.6904,3.6584,3.6259,3.6134,3.6259,3.7468,3.7687,3.7469,3.8884,3.9129,3.8887,3.9799,3.9795,3.9476,3.994,4.0096,4.0096,4.0096,4.0096,4.0096,4.0096,4.0096,4.0096,4.0096,3.9756,3.9516,3.9995,3.9744,3.9529,4.0007,4.0096,4.0096,4.0096,4.0096,4.0096,4.0096,4.0096,4.0096,4.0096,4.0096,4.0096,4.0096,4.0096,4.0096,4.0096,4.0096,4.0096,4.0096,3.9812,3.9457,3.9034,3.87,3.8345,3.791,3.7601,3.7432,3.7432,3.7432,3.7432,3.7432,3.7753,3.7893,3.7893,3.7893,3.7555,2.8172,0.0,0.0,3.2621,3.4178,3.5537,3.5943,3.6608,3.7674,3.9529,4.0337,4.1031,4.2097,4.2472,4.2591,4.2591,4.3907,4.4838,4.4618,4.6329,4.7312,4.6583,4.6972,4.756,4.8237,4.7378,4.7022,4.7549,4.6416,4.5585,4.5335,4.4627,4.4222,4.4156,4.4207,4.4239,4.4239,4.4485,4.4485,4.4224,4.3606,4.3501,4.3791,4.1121,3.9109,3.7696,3.6937,3.6477,3.629,3.629,3.6415,3.6706,3.783,3.806,3.7863,3.84,3.8386,3.8262,3.9385,3.9529,3.9328,3.9914,4.0096,4.0058,3.9833,3.9769,3.9731,3.9519,3.9467,3.9467,3.9467,3.9035,3.8786,3.9584,3.9315,3.9113,3.9927,4.0096,4.0096,4.0096,4.0096,4.0096,4.0096,4.0096,4.0096,4.0096,4.0096,4.0096,4.0096,4.0096,4.0096,4.0096,4.0096,4.0096,4.0096,4.0096,3.9863,3.9339,3.9305,3.9068,3.8531,3.8311,3.8198,3.8198,3.8198,3.8198,3.8198,3.8413,3.8514,3.8514,3.8514,3.8514,2.7621,0.0,3.1725,3.389,3.6129,3.8164,3.9589,4.0498,4.1255,4.2046,4.2215,4.2249,4.23,4.2878,4.3372,4.3372,4.4657,4.5415,4.4685,4.5887,4.6549,4.5821,4.5754,4.5988,0.0,4.6709,4.6802,4.6834,4.6126,4.5289,4.4393,4.3701,4.3251,4.3055,4.3237,4.3336,4.3336,4.4181,4.4181,4.3336,4.3306,4.2878,4.2029,4.0572,3.9059,3.7576,3.6894,3.6196,3.5537,3.5537,3.5943,3.66,3.6645,3.7129,3.7807,3.7836,3.826,3.8867,3.8921,3.9437,4.0058,4.0083,4.0096,3.9952,3.9166,3.8935,3.8786,3.8064,3.7879,3.7879,3.7879,3.7849,3.8021,3.8759,3.8921,3.9113,3.9927,4.0096,4.0096,4.0096,4.0096,4.0096,4.0096,4.0096,4.0096,4.0096,4.0096,4.0096,4.0096,4.0096,4.0096,4.0096,4.0096,4.0096,4.0096,4.0096,4.0096,4.0079,4.0079,4.0062,4.0028,3.9356,3.8966,3.8966,3.8966,3.8966,3.8966,3.9677,4.0028,4.0028,4.0028,4.0028,3.0159,0.0,3.3931,3.6197,3.7702,3.9022,4.0481,4.1022,4.1559,4.278,4.2252,4.1711,4.2215,4.2489,4.2675,4.2675,4.4384,4.5618,4.5365,4.6177,4.6532,4.5788,4.5183,0.0,0.0,0.0,0.0,4.7265,4.5665,4.4769,4.5084,4.3405,4.2413,4.2333,4.2397,4.2724,4.3291,4.3016,4.3016,4.3291,4.2707,4.1214,3.8944,3.9072,3.8041,3.6181,3.5969,3.5733,3.5537,3.6023,3.6384,3.6645,3.7189,3.7249,3.6994,3.6994,3.7499,3.8232,3.8731,3.9086,3.9381,3.9927,3.9744,3.9262,3.8975,3.8553,3.8121,3.7863,3.7807,3.7807,3.7807,3.7412,3.7321,3.8591,3.8525,3.8527,3.9825,4.0096,4.0096,4.0096,4.0096,4.0096,4.0096,4.0096,4.0096,4.0096,4.0096,4.0096,4.0096,4.0096,4.0096,4.0096,4.0096,4.0096,4.0096,4.0096,4.0096,4.0096,4.0096,4.0096,4.0096,3.9846,3.9728,3.9728,3.9728,3.9728,3.9728,3.9977,4.0096,4.0096,4.0096,4.0096,3.2418,3.4178,3.5802,3.7804,3.8853,3.9779,4.1255,4.139,4.1614,4.3102,4.2031,4.0993,4.146,4.1543,4.1375,4.0861,4.2663,4.4126,4.4126,4.448,4.4875,4.5169,4.4438,4.4122,0.0,0.0,0.0,4.6256,4.4943,4.4211,4.4494,4.2825,4.1977,4.2141,4.1992,4.2154,4.2719,4.2238,4.2125,4.2363,4.1478,4.0036,3.814,3.8456,3.7843,3.6507,3.6043,3.5863,3.5883,3.6113,3.6353,3.663,3.6874,3.6829,3.6615,3.6615,3.6919,3.7469,3.8246,3.887,3.9368,3.9597,3.9315,3.8799,3.8258,3.7745,3.7323,3.704,3.6981,3.6981,3.6981,3.6585,3.6523,3.7772,3.7716,3.779,3.9345,3.9662,3.9756,4.0045,4.0096,4.0096,4.0096,4.0096,4.0096,4.0096,4.0096,4.0096,4.0096,4.0096,4.0096,4.0096,4.0096,4.0096,4.0096,4.0096,4.0096,4.0096,4.0096,4.0096,4.0096,4.0096,4.0096,4.0096,4.0096,4.0096,4.0096,4.0096,4.0096,4.0096,4.0096,4.0096,3.4263,3.5769,3.7269,3.8696,3.9576,4.0472,4.1871,4.1642,4.1527,4.2888,4.1499,4.0029,0.0,0.0,3.959,3.8248,3.9883,4.1295,4.1328,4.1261,4.1942,0.0,0.0,0.0,0.0,0.0,0.0,4.3937,0.0,4.3614,4.2813,4.2089,4.189,4.2325,4.1928,4.1718,4.1753,4.1905,4.1526,4.0622,3.9793,3.9376,3.9331,3.8691,3.8377,3.829,3.7077,3.6538,3.6449,3.5804,3.5941,3.6461,3.5766,3.5942,3.6538,3.6538,3.6569,3.6706,3.7471,3.872,3.9863,3.9139,3.8854,3.8509,3.7038,3.6584,3.6399,3.5701,3.5504,3.5504,3.5504,3.5504,3.5685,3.643,3.6615,3.7008,3.8522,3.884,3.9072,3.9821,4.002,4.0045,4.0083,4.0096,4.0096,4.0096,4.0096,4.0096,4.0096,4.0096,4.0096,4.0096,4.0096,4.0096,4.0096,4.0096,4.0096,4.0096,4.0096,4.0096,4.0096,4.0096,4.0096,4.0096,4.0096,4.0096,4.0096,4.0096,4.0096,4.0096,4.0096,4.0096,3.6468,3.7719,3.8662,3.9592,3.996,4.0193,4.058,4.0525,4.0337,4.0158,3.8799,3.7672,0.0,0.0,0.0,3.8488,3.9984,0.0,4.175,4.2221,0.0,4.3267,0.0,4.3025,4.3641,4.2962,0.0,0.0,4.2364,4.2509,4.3479,4.2233,4.1528,4.1662,4.1524,4.1791,4.2432,4.1998,4.1094,3.9737,3.9517,3.9155,3.8646,3.8484,3.8123,3.7644,3.7315,3.6911,3.6493,3.6329,3.6054,3.575,3.557,3.5619,3.5782,3.5782,3.6133,3.6615,3.6828,3.7557,3.8444,3.8786,3.8115,3.7113,3.6722,3.6228,3.5734,3.5538,3.5504,3.5504,3.5504,3.5504,3.5685,3.643,3.6615,3.6873,3.7862,3.8078,3.8149,3.8346,3.8829,3.9411,4.0007,4.0096,4.0096,4.0096,4.0096,4.0096,4.0096,4.0096,4.0096,4.0096,4.0096,4.0096,4.0096,4.0096,4.0096,4.0096,4.0096,4.0096,4.0096,4.0096,4.0096,4.0096,4.0096,4.0096,4.0096,4.0096,4.0096,4.0096,4.0096,4.0096,3.6942,3.7909,3.8566,3.8993,3.9076,3.9011,3.875,3.8669,3.846,3.777,3.6701,0.0,3.5879,0.0,0.0,0.0,0.0,0.0,4.0814,4.0988,4.1557,0.0,4.2878,0.0,4.3461,4.2835,4.2515,0.0,4.2197,4.2224,4.3143,4.2327,4.1957,4.2237,4.1703,4.1347,4.1257,4.0876,4.0258,3.9406,3.9406,3.905,3.8424,3.8691,3.8317,3.7387,0.0,3.706,3.6479,3.6178,3.5833,3.5504,3.5504,3.5504,3.5537,3.5863,3.6039,3.6212,3.6889,3.698,3.692,3.7658,3.7321,3.6538,3.6228,3.5831,3.5504,3.5504,3.5504,3.5504,3.5504,3.5504,3.5603,3.6022,3.6117,3.6322,3.7115,3.7263,3.7469,3.8147,3.8621,3.9153,3.9952,4.0096,4.0096,4.0096,4.0096,4.0096,4.0096,4.0096,4.0096,4.0096,4.0096,4.0096,4.0096,4.0096,4.0096,4.0096,4.0096,4.0096,4.0096,4.0096,4.0096,4.0096,4.0096,4.0096,4.0096,4.0096,4.0096,4.0096,4.0096,4.0096,3.6646,3.7313,3.7807,3.7807,3.7807,3.7598,3.6778,3.661,3.6392,3.5498,0.0,3.4406,3.4406,3.484,3.5063,3.4689,0.0,3.7171,3.924,3.902,3.9853,4.3024,4.2879,4.2735,4.3265,4.2821,4.275,4.3245,4.2821,4.2511,4.2511,4.2511,4.2765,4.3275,4.2147,4.092,3.9675,3.9571,3.9496,3.9406,3.9406,3.905,3.8424,3.9005,3.8569,3.7387,0.0,0.0,3.6449,3.5863,3.5579,3.5504,3.5504,3.5504,3.557,3.6228,3.6039,3.57,3.7041,3.6615,3.5619,3.6353,3.6538,3.6322,3.5701,3.5504,3.5504,3.5504,3.5504,3.5504,3.5504,3.5504,3.5504,3.5504,3.5504,3.5668,3.6322,3.6523,3.7023,3.8467,3.884,3.9153,3.9952,4.0096,4.0096,4.0096,4.0096,4.0096,4.0096,4.0096,4.0096,4.0096,4.0096,4.0096,4.0096,4.0096,4.0096,4.0096,4.0096,4.0096,4.0096,4.0096,4.0096,4.0096,4.0096,4.0096,4.0096,4.0096,4.0096,4.0096,4.0096,4.0096,3.7409,3.7711,3.7807,3.7807,3.7807,3.7328,3.5501,3.5468,0.0,0.0,3.2595,3.2885,3.2885,3.2975,3.3547,3.5071,3.5528,3.6378,0.0,0.0,4.0486,0.0,0.0,0.0,0.0,0.0,0.0,0.0,0.0,0.0,4.3145,4.3145,4.319,4.329,4.2601,4.1837,4.1074,4.0502,3.9963,3.9406,3.9406,3.905,3.8409,3.8512,3.8138,3.7387,0.0,0.0,3.6493,3.6374,3.5998,3.5504,3.5504,3.5504,3.5521,3.5636,3.5619,3.5537,3.5813,3.5717,3.5619,3.6353,3.6181,3.5668,3.5537,3.5504,3.5504,3.5504,3.5504,3.5504,3.5504,3.5504,3.5504,3.5504,3.5504,3.5537,3.5652,3.6165,3.6873,3.782,3.8483,3.9153,3.9952,4.0096,4.0096,4.0096,4.0096,4.0096,4.0096,4.0096,4.0096,4.0096,4.0096,4.0096,4.0096,4.0096,4.0096,4.0096,4.0096,4.0096,4.0096,4.0096,4.0096,4.0096,4.0096,4.0096,4.0096,4.0096,4.0096,4.0096,4.0096,4.0096,3.6414,3.66,3.66,3.66,3.6337,3.555,3.3506,0.0,0.0,0.0,3.1286,3.2093,3.2437,3.2781,0.0,3.4756,3.4982,3.579,3.808,0.0,0.0,0.0,0.0,0.0,0.0,0.0,0.0,0.0,0.0,0.0,4.329,4.329,4.301,4.2342,4.2032,4.1388,4.0367,4.0053,3.9705,3.9406,3.905,3.8706,3.8395,3.8033,3.7524,3.6926,3.6926,0.0,3.5968,3.5968,3.5789,3.5504,3.5504,3.5504,3.5504,3.5504,3.5504,3.5504,3.5504,3.5504,3.5554,3.5911,3.5798,3.5504,3.5504,3.5504,3.5504,3.5504,3.5504,3.5504,3.5504,3.5504,3.5504,3.5504,3.5798,3.607,3.607,3.6676,3.7455,3.8218,3.8663,3.9153,3.9952,4.0096,4.0096,4.0096,4.0096,4.0096,4.0096,4.0096,4.0096,4.0096,4.0096,4.0096,4.0096,4.0096,4.0096,4.0096,4.0096,4.0096,4.0096,4.0096,4.0096,4.0096,4.0096,4.0096,4.0096,4.0096,4.0096,4.0096,4.0096,4.0096,3.513,3.5385,3.5504,3.5504,3.5012,3.3979,3.1959,3.1511,0.0,2.9862,3.0507,3.1496,3.2168,3.2721,3.329,0.0,3.4069,3.4937,3.7437,3.8482,3.9645,0.0,0.0,0.0,0.0,0.0,0.0,0.0,0.0,0.0,4.329,4.319,4.2656,4.1643,4.1343,4.0666,3.9616,3.9466,3.9406,3.9391,3.8871,3.8452,3.8185,3.7644,3.6985,3.6299,3.6299,0.0,0.0,3.5504,3.5504,3.5504,3.5504,3.5504,3.5504,3.5504,3.5504,3.5504,3.5504,3.5504,3.5504,3.5504,3.5504,3.5504,3.5504,3.5504,3.5504,3.5504,3.5504,3.5504,3.5504,3.5504,3.5504,3.5504,3.5927,3.6353,3.6353,3.698,3.7777,3.8525,3.8786,3.9153,3.9952,4.0096,4.0096,4.0096,4.0096,4.0096,4.0096,4.0096,4.0096,4.0096,4.0096,4.0096,4.0096,4.0096,4.0096,4.0096,4.0096,4.0096,4.0096,4.0096,4.0096,4.0096,4.0096,4.0096,4.0096,4.0096,4.0096,4.0096,4.0096,4.0096,3.4578,3.5042,3.5504,3.5504,3.5012,3.3979,3.1959,0.0,3.1137,2.9862,3.0118,3.0792,3.1466,3.1645,0.0,0.0,0.0,3.3409,3.5489,3.6821,3.809,0.0,0.0,0.0,0.0,0.0,0.0,0.0,0.0,0.0,0.0,4.2776,4.2425,4.2306,4.1134,4.0427,4.0307,3.969,3.9406,3.9406,3.9331,3.8673,3.7494,3.7434,3.6746,3.5594,0.0,0.0,0.0,3.5504,3.5504,3.5504,3.5504,3.5504,3.5504,3.5504,3.5504,3.5504,3.5504,3.5504,3.5504,3.5504,3.5504,3.5504,3.5504,3.5504,3.5504,3.5504,3.5504,3.5504,3.5504,3.5504,3.5504,3.5504,3.5538,3.5603,3.5603,3.6181,3.6949,3.7748,3.8442,3.9153,3.9952,4.0096,4.0096,4.0096,4.0096,4.0096,4.0096,4.0096,4.0096,4.0096,4.0096,4.0096,4.0096,4.0096,4.0096,4.0096,4.0096,4.0096,4.0096,4.0096,4.0096,4.0096,4.0096,4.0096,4.0096,4.0096,4.0096,4.0096,4.0096,4.0096,3.4173,3.4697,3.4907,3.4907,3.3784,3.2377,3.1166,0.0,2.9744,2.9623,2.9788,3.0268,3.1316,3.1511,3.1585,0.0,0.0,0.0,3.4068,3.507,3.6432,0.0,0.0,0.0,0.0,0.0,0.0,0.0,0.0,0.0,0.0,4.2526,4.2216,4.1807,4.0894,4.0217,3.9795,3.9526,3.9406,3.9406,3.899,3.8512,3.7973,3.721,3.6582,3.6073,0.0,0.0,0.0,3.5504,3.5504,3.5504,3.5504,3.5504,3.5504,3.5504,3.5504,3.5504,3.5504,3.5504,3.5504,3.5504,3.5504,3.5504,3.5504,3.5504,3.5504,3.5504,3.5504,3.5504,3.5504,3.5504,3.5504,3.5504,3.5846,3.6149,3.6149,3.7113,3.8088,3.84,3.9089,3.9714,4.0045,4.0096,4.0096,4.0096,4.0096,4.0096,4.0096,4.0096,4.0096,4.0096,4.0096,4.0096,4.0096,4.0096,4.0096,4.0096,4.0096,4.0096,4.0096,4.0096,4.0096,4.0096,4.0096,4.0096,4.0096,4.0096,4.0096,4.0096,4.0096,4.0096,3.2674,3.363,3.4203,3.4203,3.2841,3.1316,0.0,0.0,2.8533,2.9418,2.94,2.9635,3.0909,3.1351,3.1423,0.0,0.0,3.1899,3.3036,3.3769,3.5042,0.0,0.0,0.0,0.0,0.0,0.0,0.0,0.0,0.0,0.0,4.1931,4.1583,4.1134,4.0442,3.9888,3.9406,3.9406,3.9406,3.9391,3.8721,3.8287,3.8063,3.7002,3.6389,3.6194,0.0,0.0,0.0,3.5504,3.5504,3.5504,3.5504,3.5504,3.5504,3.5504,3.5504,3.5504,3.5504,3.5504,3.5504,3.5504,3.5504,3.5504,3.5504,3.5504,3.5504,3.5504,3.5504,3.5504,3.5504,3.5504,3.5504,3.5504,3.5894,3.6275,3.6275,3.7129,3.8032,3.8497,3.9035,3.9558,4.002,4.0096,4.0096,4.0096,4.0096,4.0096,4.0096,4.0096,4.0096,4.0096,4.0096,4.0096,4.0096,4.0096,4.0096,4.0096,4.0096,4.0096,4.0096,4.0096,4.0096,4.0096,4.0096,4.0096,4.0096,4.0096,4.0096,4.0096,4.0096,4.0096,2.9653,3.153,3.3499,3.3499,3.2497,3.1316,0.0,0.0,2.7908,2.9308,2.8971,2.8814,3.0083,3.097,3.1234,0.0,0.0,0.0,3.2422,3.3095,0.0,0.0,0.0,0.0,0.0,0.0,0.0,0.0,0.0,0.0,0.0,4.0771,4.0412,4.0412,3.975,3.9406,3.9406,3.9406,3.9406,3.9391,3.8721,3.8048,3.7404,3.6776,3.6133,0.0,0.0,0.0,0.0,3.5504,3.5504,3.5504,3.5504,3.5504,3.5504,3.5504,3.5504,3.5504,3.5504,3.5504,3.5504,3.5504,3.5504,3.5504,3.5504,3.5504,3.5504,3.5504,3.5504,3.5504,3.5504,3.5504,3.5504,3.5504,3.5504,3.5504,3.5504,3.5521,3.5989,3.7516,3.7822,3.8304,3.9837,4.0096,4.0096,4.0096,4.0096,4.0096,4.0096,4.0096,4.0096,4.0096,4.0096,4.0096,4.0096,4.0096,4.0096,4.0096,4.0096,4.0096,4.0096,4.0096,4.0096,4.0096,4.0096,4.0096,4.0096,4.0096,4.0096,4.0096,4.0096,4.0096,2.7371,2.8226,2.8843,2.8843,2.8111,2.7341,2.7127,2.6537,2.6427,2.7697,2.7765,2.7969,2.9187,2.9613,2.9705,0.0,0.0,0.0,0.0,0.0,0.0,0.0,0.0,0.0,0.0,0.0,0.0,0.0,0.0,0.0,0.0,4.0516,4.0397,4.0397,3.975,3.9406,3.9406,3.9406,3.9167,3.8706,3.8497,3.7823,3.6776,3.6598,0.0,0.0,0.0,0.0,0.0,3.5504,3.5504,3.5504,3.5504,3.5504,3.5504,3.5504,3.5504,3.5504,3.5504,3.5504,3.5504,3.5504,3.5831,3.6149,3.5652,3.5504,3.5504,3.5504,3.5504,3.5504,3.5504,3.5504,3.5504,3.5504,3.5504,3.5504,3.5504,3.6336,3.7221,3.7706,3.8638,3.9519,4.002,4.0096,4.0096,4.0096,4.0096,4.0096,4.0096,4.0096,4.0096,4.0096,4.0096,4.0096,4.0096,4.0096,4.0096,4.0096,4.0096,4.0096,4.0096,4.0096,4.0096,4.0096,4.0096,4.0096,4.0096,4.0096,4.0096,4.0096,4.0096,4.0096,2.4792,2.5758,2.6316,2.6316,2.5911,0.0,0.0,2.5231,2.5349,2.6625,2.6657,2.6735,2.7729,2.8334,2.8595,2.8248,0.0,0.0,0.0,0.0,0.0,0.0,0.0,0.0,0.0,0.0,0.0,0.0,0.0,0.0,0.0,0.0,4.0004,4.0004,3.9616,3.9406,3.9406,3.9406,3.9047,3.8409,3.8138,3.7496,3.6493,3.6254,0.0,0.0,0.0,0.0,0.0,3.5504,3.5504,3.5504,3.5504,3.5504,3.5504,3.5504,3.5504,3.5504,3.5504,3.5685,3.5926,3.5926,3.643,3.6965,3.6508,3.5957,3.5504,3.5504,3.5504,3.5504,3.5504,3.5504,3.557,3.5847,3.5926,3.599,3.629,3.7115,3.7878,3.8147,3.8978,3.9727,4.0045,4.0096,4.0185,4.0472,4.0282,4.0197,4.0472,4.0269,4.0096,4.0096,4.0096,4.0096,4.0096,4.0096,4.0096,4.0096,4.0096,4.0096,4.0096,4.0096,4.0096,4.0096,4.0096,4.0096,4.0096,4.0096,4.0096,4.0096,4.0096,4.0096,0.0,2.3932,2.5327,2.5327,2.5301,0.0,0.0,2.4713,0.0,2.5942,2.5629,2.5308,2.5955,2.7122,2.7764,2.7011,0.0,0.0,0.0,0.0,0.0,0.0,0.0,0.0,0.0,0.0,0.0,0.0,0.0,0.0,0.0,0.0,3.928,3.9208,3.934,3.9406,3.9406,3.9346,3.8987,3.8317,3.7704,3.706,3.6419,3.5789,0.0,0.0,0.0,0.0,0.0,3.5504,3.5504,3.5504,3.5504,3.5504,3.5504,3.5504,3.5504,3.5504,3.5504,3.5943,3.6538,3.6661,3.7144,3.7733,3.7835,3.6844,3.5667,3.5667,3.5667,3.5667,3.5667,3.5667,3.583,3.6523,3.6692,3.6889,3.7632,3.7835,3.8078,3.8772,3.8948,3.9219,3.9965,4.0096,4.0354,4.1085,4.0625,4.0422,4.1119,4.0608,4.0163,4.0113,4.0096,4.0096,4.0096,4.0096,4.0096,4.0096,4.0096,4.0096,4.0096,4.0096,4.0096,4.0096,4.0096,4.0096,4.0096,4.0096,4.0096,4.0096,4.0096,4.0096,2.0385,0.0,2.1886,2.1886,2.2477,2.3038,0.0,0.0,0.0,0.0,0.0,2.4569,2.5535,2.5995,2.6292,0.0,0.0,0.0,0.0,0.0,0.0,0.0,0.0,0.0,0.0,0.0,0.0,0.0,0.0,0.0,0.0,0.0,3.8264,3.7444,3.8713,3.9406,3.9406,3.8901,3.8302,3.7644,3.7479,3.6821,3.5729,3.5579,0.0,0.0,0.0,0.0,3.5504,3.5504,3.5504,3.5504,3.5504,3.5504,3.5504,3.5504,3.5504,3.5504,3.5504,3.5619,3.5958,3.713,3.7234,3.7099,3.8286,3.7991,3.725,3.725,3.725,3.725,3.725,3.725,3.7294,3.7471,3.7515,3.7573,3.7748,3.8232,3.869,3.8867,3.9411,3.9889,4.0058,4.0096,4.0354,4.1085,4.1052,4.1001,4.1187,4.1052,4.0743,4.0163,4.0096,4.0096,4.0096,4.0096,4.0096,4.0096,4.0096,4.0096,4.0096,4.0096,4.0096,4.0096,4.0096,4.0096,4.0096,4.0096,4.0096,4.0096,4.0096,4.0096,1.9798,2.0037,2.0302,2.0302,2.1118,2.1933,2.1933,0.0,0.0,0.0,0.0,2.385,2.4707,2.5071,0.0,0.0,0.0,0.0,0.0,0.0,0.0,0.0,0.0,0.0,0.0,0.0,0.0,0.0,0.0,0.0,0.0,0.0,3.6395,3.5811,3.683,3.773,3.8479,3.8422,3.7913,3.6985,3.6985,3.6462,3.5504,3.5504,0.0,0.0,0.0,0.0,3.5504,3.5504,3.5504,3.5504,3.5504,3.5504,3.5504,3.5504,3.5504,3.5504,3.5504,3.5957,3.6753,3.7919,3.8274,3.837,3.9209,3.9169,3.8709,3.8009,3.7807,3.7807,3.7807,3.7807,3.7894,3.8218,3.8302,3.8416,3.8778,3.9169,3.945,3.945,3.9795,4.0096,4.0096,4.0371,4.0861,4.1593,4.1694,4.1694,4.1694,4.1407,4.0916,4.018,4.0096,4.0096,4.0096,4.0096,4.0096,4.0096,4.0096,4.0096,4.0096,4.0096,4.0096,4.0096,4.0096,4.0096,4.0096,4.0096,4.0096,4.0096,4.0096,3.9901,1.9798,1.9798,1.9823,1.9911,2.0728,2.1507,2.1507,0.0,0.0,0.0,0.0,0.0,2.4004,2.449,0.0,0.0,0.0,0.0,0.0,0.0,0.0,0.0,0.0,0.0,0.0,0.0,0.0,0.0,0.0,0.0,0.0,0.0,0.0,3.4212,3.4807,3.5715,3.6869,3.7694,3.7571,3.6508,3.6508,3.6148,3.5504,3.5504,3.5504,0.0,0.0,0.0,3.5504,3.5504,3.5504,3.5504,3.5504,3.5504,3.5504,3.5504,3.5504,3.5504,3.5504,3.6368,3.7588,3.8456,3.9196,3.9782,4.0033,4.0096,3.9837,3.853,3.8149,3.8149,3.8149,3.8149,3.8304,3.8921,3.9086,3.9276,3.9952,4.0096,4.0096,4.0096,4.0096,4.0096,4.0096,4.0625,4.1322,4.2181,4.23,4.2337,4.2439,4.183,4.1085,4.0354,4.018,4.0096,4.0096,4.0096,4.0096,4.0096,4.0096,4.0096,4.0096,4.0096,4.0096,4.0096,4.0096,4.0096,4.0096,3.9978,3.9914,3.9914,3.9812,3.9385,1.9798,1.9798,1.9924,2.0427,2.103,2.1507,2.1507,2.1983,0.0,0.0,0.0,0.0,0.0,2.4741,0.0,0.0,0.0,0.0,0.0,0.0,0.0,0.0,0.0,0.0,0.0,0.0,0.0,0.0,0.0,0.0,0.0,0.0,0.0,3.2437,3.4632,3.5417,3.4535,3.6033,3.6688,3.6508,3.6508,3.6148,3.5504,3.5504,3.5504,0.0,0.0,3.5504,3.5504,3.5504,3.5504,3.5504,3.5504,3.5504,3.5504,3.5504,3.5504,3.5504,3.5504,3.5651,3.6085,3.75,3.805,3.8404,3.9705,4.0096,4.0045,3.9808,3.9744,3.9744,3.9744,3.9744,3.9786,3.9889,3.9914,3.9952,4.007,4.0096,4.0096,4.0096,4.0096,4.0096,4.0096,4.0185,4.0726,4.2097,4.23,4.2523,4.3152,4.2591,4.1847,4.1119,4.0472,4.0096,4.0096,4.0096,4.0096,4.0096,4.0096,4.0096,4.0096,4.0096,4.0096,4.0096,4.0096,4.0096,4.0096,3.9424,3.9086,3.9072,3.8444,3.8092,1.9097,1.9202,1.938,2.0033,2.0866,2.1507,2.1507,2.2146,0.0,0.0,0.0,0.0,0.0,0.0,0.0,0.0,0.0,0.0,0.0,0.0,0.0,0.0,0.0,0.0,0.0,0.0,0.0,0.0,0.0,0.0,0.0,0.0,0.0,0.0,3.2987,3.3608,3.25,3.4799,3.5953,3.5953,3.5953,3.5804,3.5504,3.5504,3.5504,3.5504,0.0,3.5504,3.5504,3.5504,3.5504,3.5504,3.5504,3.5504,3.5504,3.5504,3.5504,3.5504,3.5504,3.6037,3.686,3.7575,3.836,3.9172,3.9889,4.0096,4.0096,4.0096,4.0096,4.0096,4.0096,4.0096,4.0096,4.0096,4.0096,4.0096,4.0096,4.0096,4.0096,4.0096,4.0096,4.0096,4.0096,4.0422,4.0929,4.1593,4.2033,4.2269,4.2222,4.1931,4.1424,4.0692,4.0303,4.0096,4.0096,4.0096,4.0096,4.0096,4.0096,4.0096,4.0096,4.0096,4.0096,4.0096,4.0096,4.0096,4.0096,3.9289,3.8894,3.8881,3.8133,3.7573,1.83,1.8568,1.8834,1.941,0.0,2.1306,2.1306,2.2232,0.0,0.0,0.0,0.0,0.0,0.0,0.0,0.0,0.0,0.0,0.0,0.0,0.0,0.0,0.0,0.0,0.0,0.0,0.0,0.0,0.0,0.0,0.0,0.0,0.0,0.0,3.1415,3.2033,3.1536,3.3953,3.5149,3.5149,3.5392,3.5504,3.5504,3.5504,3.5504,3.5504,3.5504,3.5504,3.5504,3.5504,3.5504,3.5504,3.5504,3.5504,3.5489,3.5325,3.537,3.5491,3.552,3.6399,3.7588,3.795,3.8873,3.9846,4.0045,4.0096,4.0096,4.0096,4.0096,4.0096,4.0096,4.0096,4.0096,4.0096,4.0096,4.0096,4.0096,4.0096,4.0096,4.0096,4.0096,4.0096,4.0096,4.0574,4.1001,4.117,4.183,4.2151,4.1779,4.1546,4.1238,4.0688,4.0316,4.0096,4.0096,4.0096,4.0096,4.0096,4.0096,4.0096,4.0096,4.0096,4.0096,4.0096,4.0096,4.002,3.9808,3.9032,3.8553,3.8339,3.7601,3.6935,1.7649,1.8192,1.8715,1.8768,1.9786,2.0768,2.0768,2.197,0.0,2.3108,0.0,0.0,0.0,0.0,0.0,0.0,0.0,0.0,0.0,0.0,0.0,0.0,0.0,0.0,0.0,0.0,0.0,0.0,0.0,0.0,0.0,0.0,0.0,0.0,0.0,3.1687,3.25,3.3567,3.4112,3.4112,3.5036,3.5504,3.5504,3.5504,3.5504,3.5504,3.5504,3.5504,3.5504,3.5504,3.5504,3.5504,3.5504,3.5504,3.5429,3.4802,3.4982,3.5513,3.5569,3.6073,3.6919,3.8356,3.8894,3.9126,3.9859,4.0096,4.0096,4.0096,4.0096,4.0096,4.0096,4.0096,4.0096,4.0096,4.0096,4.0096,4.0096,4.0096,4.0096,4.0096,4.0096,4.0096,4.0096,4.0146,4.0405,4.1102,4.183,4.2523,4.3152,4.2642,4.2198,4.2147,4.0925,4.0096,4.0096,4.0096,4.0096,4.0096,4.0096,4.0096,4.0096,4.0096,4.0096,4.0096,4.0096,3.9744,3.8975,3.8232,3.75,3.6752,3.6006,3.5635,1.6782,1.7729,1.8566,1.8471,1.9686,0.0,0.0,2.2066,2.2894,2.3065,2.401,0.0,0.0,0.0,0.0,0.0,0.0,0.0,0.0,0.0,0.0,0.0,0.0,0.0,0.0,0.0,0.0,0.0,0.0,0.0,0.0,0.0,0.0,0.0,0.0,3.11,3.0865,3.2943,3.3705,3.3154,3.4739,3.528,3.4877,3.4877,3.4877,3.4877,3.4877,3.51,3.5504,3.5504,3.5504,3.5504,3.5504,3.5504,3.5474,3.522,3.528,3.5573,3.6045,3.6731,3.7513,3.855,3.9249,3.9701,4.002,4.0096,4.0096,4.0096,4.0096,4.0096,4.0096,4.0096,4.0096,4.0096,4.0096,4.0096,4.0096,4.0096,4.0096,4.0096,4.0096,4.0096,4.0096,4.0096,4.0185,4.0472,4.0743,4.12,4.1935,4.1403,4.1115,4.1576,4.0709,4.0096,4.0096,3.9636,3.9571,4.007,4.0096,4.0096,4.0096,4.0096,3.9859,3.9355,3.985,3.948,3.822,3.7935,3.7397,3.6584,3.627,3.5893,1.6652,1.7831,1.8836,1.874,0.0,0.0,2.1896,2.25,2.3176,2.3991,2.4929,0.0,0.0,0.0,0.0,0.0,0.0,0.0,0.0,0.0,0.0,0.0,0.0,0.0,0.0,0.0,0.0,0.0,0.0,0.0,0.0,0.0,0.0,0.0,0.0,3.0595,3.0241,3.246,3.338,3.3066,3.4706,3.525,3.4817,3.4817,3.4817,3.4817,3.4817,3.507,3.5504,3.5504,3.5504,3.5504,3.5504,3.5504,3.5491,3.5524,3.5512,3.5639,3.6681,3.7368,3.797,3.8966,3.9649,4.0096,4.0096,4.0096,4.0096,4.0096,4.0096,4.0096,4.0096,4.0096,4.0096,4.0096,4.0096,4.0096,4.0096,4.0096,4.0096,4.0096,4.0096,4.0096,4.0096,4.0096,4.0096,4.0096,4.0303,4.0709,4.1457,4.0899,4.0557,4.0815,4.0405,4.0096,4.0096,3.9355,3.9232,4.0045,3.964,3.9584,4.007,3.964,3.9222,3.8908,3.945,3.8951,3.7427,3.7691,3.728,3.6259,3.6427,3.6254,1.741,1.8598,1.9604,0.0,0.0,0.0,2.2911,2.3318,2.4063,2.609,0.0,2.7474,2.8009,0.0,0.0,0.0,0.0,0.0,0.0,0.0,0.0,0.0,0.0,0.0,0.0,0.0,0.0,0.0,0.0,0.0,0.0,0.0,0.0,0.0,0.0,0.0,3.118,3.2123,3.3066,3.401,3.5003,3.5488,3.5489,3.5489,3.5489,3.5489,3.5489,3.5489,3.5504,3.5504,3.5504,3.5489,3.5504,3.5504,3.5528,3.5584,3.5579,3.5757,3.7416,3.7913,3.8064,3.9598,4.0096,4.0096,4.0096,4.0096,4.0096,4.0096,4.0096,4.0096,4.0096,4.0096,4.0096,4.0096,4.0096,4.0096,4.0096,4.0096,4.0096,4.0096,4.0096,4.0096,4.0096,4.0096,4.0096,4.0096,4.0713,4.1444,4.2185,4.163,4.0916,4.0185,4.0096,4.0096,4.0083,3.9342,3.9236,4.0033,3.8624,3.8472,4.002,3.8627,3.8133,3.8867,3.8894,3.8129,3.6584,3.7397,3.6996,3.5519,3.6193,3.6508,1.8056,1.9173,0.0,1.9863,0.0,0.0,0.0,2.3435,0.0,0.0,2.7223,2.7908,0.0,0.0,0.0,0.0,0.0,0.0,0.0,0.0,0.0,0.0,0.0,0.0,0.0,0.0,0.0,0.0,0.0,0.0,0.0,0.0,0.0,0.0,0.0,0.0,3.0216,3.1156,3.2087,3.3031,3.3993,3.4572,3.4802,3.4802,3.4802,3.4802,3.4802,3.5055,3.5504,3.5504,3.522,3.4847,3.531,3.583,3.6275,3.6307,3.6652,3.7255,3.8283,3.8611,3.8735,3.9766,4.0096,4.0096,4.0096,4.0096,4.0096,4.0096,4.0096,4.0096,4.0096,4.0096,4.0096,4.0096,4.0096,4.0096,4.0096,4.0096,4.0096,4.0096,4.0096,4.0096,4.0096,4.0096,4.0096,4.0096,3.9795,3.9874,4.0649,4.0549,4.0538,4.0831,4.0405,3.9859,3.9302,3.8553,3.8234,3.8458,3.7041,3.7115,3.9166,3.8332,3.7646,3.7276,3.7847,3.7368,3.5831,3.6584,3.6446,3.5534,3.6626,3.6911,1.9204,2.0255,0.0,2.1172,2.236,2.3664,2.4221,0.0,0.0,0.0,0.0,0.0,0.0,0.0,0.0,0.0,0.0,0.0,0.0,0.0,0.0,0.0,0.0,0.0,0.0,0.0,0.0,0.0,0.0,0.0,0.0,0.0,0.0,0.0,0.0,0.0,2.9792,3.11,3.2051,3.2611,3.3973,3.4699,3.4907,3.4907,3.4907,3.4907,3.4907,3.4982,3.5115,3.5385,3.5265,3.4937,3.534,3.5943,3.6646,3.6949,3.7382,3.7959,3.9,3.9185,3.9067,3.9855,4.0096,4.0096,4.0096,4.0096,4.0096,4.0096,4.0096,4.0096,4.0096,4.0096,4.0096,4.0096,4.0096,4.0096,4.0096,4.0096,4.0096,4.0096,4.0096,4.0096,4.0096,4.0096,4.0096,4.0096,3.9687,3.9446,3.9608,3.9621,3.9913,4.0691,3.9829,3.9102,3.8908,3.7917,3.7471,3.7793,3.6337,3.6243,3.7916,3.7279,3.6798,3.6615,3.7085,3.6723,3.5504,3.6243,3.6365,3.5908,3.6686,3.712,2.058,0.0,0.0,2.297,2.396,0.0,2.5548,0.0,0.0,0.0,0.0,0.0,0.0,0.0,0.0,0.0,0.0,0.0,0.0,0.0,0.0,0.0,0.0,0.0,0.0,0.0,0.0,0.0,0.0,0.0,0.0,0.0,0.0,0.0,0.0,0.0,2.9934,3.1623,3.2558,0.0,3.4524,3.5408,3.5504,3.5504,3.5504,3.5504,3.5444,3.5055,3.4563,3.516,3.5415,3.5415,3.5489,3.599,3.6813,3.7529,3.7899,3.8209,3.9615,3.966,3.9203,3.9893,4.0096,4.0096,4.0096,4.0096,4.0096,4.0096,4.0096,4.0096,4.0096,4.0096,4.0096,4.0096,4.0096,4.0096,4.0096,4.0096,4.0096,4.0096,4.0096,4.0096,4.0096,4.0096,4.0045,3.9901,3.99,3.9616,3.8881,3.8802,3.9133,4.0019,3.8728,3.8078,3.8745,3.7454,3.6873,3.756,3.6274,3.5798,3.6477,3.5847,3.583,3.6492,3.6492,3.6165,3.5504,3.6165,3.6501,3.6508,3.6568,3.7242,2.1178,2.1794,0.0,0.0,2.396,2.5055,2.6067,2.7236,0.0,0.0,0.0,0.0,0.0,0.0,0.0,0.0,0.0,0.0,0.0,0.0,0.0,0.0,0.0,0.0,0.0,0.0,0.0,0.0,0.0,0.0,0.0,0.0,0.0,0.0,0.0,3.0158,3.0876,3.131,3.2249,0.0,3.4112,3.4741,3.5504,3.5504,3.5504,3.5474,3.4952,3.4622,3.4503,3.4652,3.4712,3.4772,3.5295,3.6337,3.7559,3.7749,3.857,3.9657,3.9982,3.9994,3.988,4.0045,4.0096,4.0096,4.0096,4.0096,4.0096,4.0096,4.0096,4.0096,4.0096,4.0096,4.0096,4.0096,4.0096,4.0096,4.0096,4.0096,4.0096,4.0096,4.0096,4.0096,4.0096,4.0096,3.9692,3.8488,3.8292,3.8217,3.799,3.8005,3.8565,3.9957,3.8715,3.7863,3.8021,3.7159,3.643,3.6022,3.5683,3.557,3.5718,3.5587,3.557,3.5718,3.5734,3.5667,3.5504,3.5652,3.5998,3.6508,3.6985,3.7644,2.1419,0.0,0.0,2.3386,0.0,2.5017,2.5879,2.6721,0.0,0.0,0.0,0.0,0.0,0.0,0.0,0.0,0.0,0.0,0.0,0.0,0.0,0.0,0.0,0.0,0.0,0.0,0.0,0.0,0.0,0.0,0.0,0.0,0.0,0.0,3.0902,3.1378,3.187,3.203,3.2594,3.3578,3.3689,3.4041,3.4547,3.4861,3.5011,3.4981,3.4323,3.4203,3.4535,3.488,3.5216,3.5536,3.5886,3.6965,3.8274,3.7921,3.8778,4.0096,4.0096,4.0096,4.0096,4.0096,4.0096,4.0096,4.0096,4.0096,4.0096,4.0096,4.0096,4.0096,4.0096,4.0096,4.0096,4.0096,4.0096,3.9978,3.961,3.9837,3.9995,3.9597,3.9833,3.9978,3.9597,3.9239,3.8596,3.7396,3.7234,3.721,3.7173,3.6894,3.7287,3.8837,3.7619,3.6844,3.7204,3.6523,3.591,3.5521,3.5504,3.5504,3.5504,3.5504,3.5504,3.5504,3.5504,3.5504,3.5504,3.5504,3.5998,3.6926,3.6956,3.7659,2.1469,0.0,2.3246,2.3853,2.4327,0.0,2.546,2.6067,0.0,0.0,0.0,0.0,0.0,0.0,0.0,0.0,0.0,0.0,0.0,0.0,0.0,0.0,0.0,0.0,0.0,0.0,0.0,0.0,0.0,0.0,0.0,0.0,3.0794,3.0794,3.1613,3.213,3.2289,3.2707,3.3011,3.3173,3.3397,3.3499,3.3499,3.3949,3.4278,3.4459,3.3679,3.3784,3.4536,3.5034,3.5704,3.6445,3.6553,3.754,3.8827,3.8203,3.8887,4.0096,4.0096,4.0096,4.0096,4.0096,4.0096,4.0096,4.0096,4.0096,4.0096,4.0096,4.0096,4.0096,4.0096,4.0096,4.0058,3.9927,3.9901,3.9701,3.9046,3.9424,3.9705,3.9032,3.9437,3.9675,3.9002,3.8175,3.7368,3.6707,3.6615,3.6554,3.643,3.599,3.618,3.7456,3.6337,3.5798,3.6538,3.5911,3.5504,3.5504,3.5504,3.5504,3.5504,3.5504,3.5549,3.5669,3.5564,3.5564,3.5669,3.5564,3.6163,3.7404,3.6881,3.7644,0.0,0.0,2.3246,0.0,2.4054,2.4368,0.0,0.0,0.0,0.0,0.0,0.0,0.0,0.0,0.0,0.0,0.0,0.0,0.0,0.0,0.0,0.0,0.0,0.0,0.0,0.0,0.0,0.0,0.0,0.0,2.9792,2.9416,2.9214,2.9214,2.9608,3.0223,3.1029,3.1827,3.2652,3.3449,3.3483,3.3499,3.3484,3.2991,3.3395,3.4444,3.3185,3.3335,3.4459,3.3983,3.4546,3.5778,3.6383,3.754,3.8894,3.8786,3.9315,4.0096,4.0096,4.0096,4.0096,4.0096,4.0096,4.0096,4.0096,4.0096,4.0096,4.0096,4.0096,4.0096,4.0096,4.0096,3.9927,3.9236,3.9072,3.9029,3.8921,3.8975,3.9032,3.8921,3.8992,3.9032,3.8921,3.77,3.6722,3.663,3.6615,3.6384,3.5733,3.6133,3.6523,3.6753,3.6006,3.5798,3.6538,3.5911,3.5504,3.5504,3.5504,3.5504,3.5504,3.5504,3.5774,3.6359,3.5804,3.5789,3.6374,3.5789,3.6163,3.7387,3.733,3.803,2.1719,2.2282,2.2797,0.0,2.3499,2.37,2.4519,0.0,0.0,0.0,0.0,0.0,0.0,0.0,0.0,0.0,0.0,0.0,0.0,0.0,0.0,0.0,0.0,0.0,0.0,0.0,0.0,0.0,0.0,2.8976,2.927,2.9257,2.9246,2.9246,2.992,3.0714,3.1575,3.1591,3.1855,3.2377,3.2377,3.2377,3.2377,3.2064,3.2662,3.3889,3.2916,3.3051,3.398,3.4471,3.5314,3.6342,3.7009,3.8201,3.9463,3.8594,3.8775,3.9368,3.8954,3.9076,3.9437,3.9437,3.9744,4.0096,4.0096,4.0096,4.0096,4.0096,4.0096,4.0096,4.0096,3.9769,3.9342,3.8975,3.8227,3.7613,3.7613,3.83,3.8894,3.8894,3.8199,3.7613,3.7613,3.6722,3.599,3.599,3.599,3.5863,3.5537,3.5782,3.599,3.599,3.5701,3.5635,3.5959,3.5685,3.5504,3.5504,3.5504,3.5669,3.6043,3.5699,3.6148,3.7541,3.6567,3.6372,3.7,3.6716,3.7045,3.7958,3.7958,3.8482,0.0,0.0,2.2395,2.2794,2.2995,2.3258,0.0,0.0,0.0,0.0,0.0,0.0,0.0,0.0,0.0,0.0,0.0,0.0,0.0,0.0,0.0,0.0,0.0,0.0,0.0,0.0,0.0,0.0,0.0,2.8267,2.8681,2.8854,2.8939,2.8939,2.972,3.0441,3.1045,3.099,3.1156,3.1511,3.1511,3.1511,3.1511,3.1511,3.2049,3.2976,3.2632,3.2886,3.359,3.482,3.5691,3.6361,3.7412,3.85,3.9401,3.843,3.8302,3.8539,3.7992,3.8147,3.8649,3.884,3.9315,3.9821,4.0033,4.0096,4.0058,3.9846,3.9795,3.9756,3.9558,3.9076,3.858,3.8353,3.7438,3.6615,3.6615,3.7496,3.8384,3.858,3.7541,3.6615,3.6615,3.599,3.5504,3.5504,3.5504,3.5504,3.5504,3.5504,3.5504,3.5504,3.5504,3.5504,3.5504,3.5504,3.5504,3.5504,3.5504,3.5804,3.6479,3.6013,3.6582,3.838,3.7466,3.7195,3.7659,3.7477,3.7749,3.8409,3.8409,3.8751,0.0,2.1532,0.0,2.2332,2.2719,0.0,0.0,0.0,0.0,0.0,0.0,0.0,0.0,0.0,0.0,0.0,0.0,0.0,0.0,0.0,0.0,0.0,0.0,0.0,0.0,0.0,0.0,0.0,0.0,2.8104,2.8147,2.7674,2.7407,2.7407,2.7711,2.7895,2.7931,2.9529,3.0732,3.1511,3.1511,3.1511,3.1511,3.1511,3.154,3.1645,3.2243,3.2886,3.3544,3.4265,3.4653,3.5006,3.7021,3.7851,3.7992,3.8608,3.8428,3.7849,3.7806,3.7836,3.7978,3.8676,3.8921,3.9099,3.9876,4.0096,3.994,3.9166,3.8962,3.8799,3.8106,3.7894,3.7661,3.6904,3.6645,3.6615,3.6615,3.6661,3.6949,3.7704,3.7189,3.6615,3.6615,3.599,3.5504,3.5504,3.5504,3.5504,3.5504,3.5504,3.5504,3.5504,3.5504,3.5504,3.5504,3.5504,3.5504,3.5504,3.5504,3.5804,3.6479,3.6464,3.7045,3.8362,3.8317,3.832,3.8365,3.7719,3.7749,3.8409,3.8409,3.8751,0.0,0.0,0.0,2.1694,2.2182,2.2646,0.0,0.0,0.0,0.0,0.0,0.0,0.0,0.0,0.0,0.0,0.0,0.0,0.0,0.0,0.0,0.0,0.0,0.0,0.0,0.0,0.0,0.0,0.0,0.0,2.7557,2.7072,2.6788,2.6788,2.6883,2.7451,2.8524,3.0223,3.1205,3.1511,3.1511,3.1511,3.1511,3.1511,3.1735,3.2168,3.2407,3.2392,3.2303,3.3395,3.3939,3.4171,3.535,3.6351,3.7132,3.6858,3.6883,3.6965,3.6492,3.6631,3.7069,3.7351,3.7774,3.8262,3.8544,3.861,3.8555,3.8276,3.8189,3.8135,3.7863,3.7427,3.6828,3.6085,3.5894,3.5894,3.5894,3.5894,3.6117,3.6889,3.6415,3.5894,3.5894,3.5668,3.5504,3.5504,3.5504,3.5504,3.5504,3.5504,3.5504,3.5504,3.5504,3.5669,3.6119,3.5744,3.5848,3.6671,3.6357,3.6628,3.7691,3.73,3.7704,3.9017,3.8616,3.8601,3.9032,3.8793,3.8808,3.9032,3.9032,3.9167,2.0302,0.0,0.0,0.0,0.0,2.2083,0.0,0.0,0.0,0.0,0.0,0.0,0.0,0.0,0.0,0.0,0.0,0.0,0.0,0.0,0.0,0.0,0.0,0.0,0.0,0.0,0.0,0.0,0.0,0.0,2.644,2.6118,2.6005,2.6197,2.6663,2.7571,2.8987,3.0172,3.0997,3.1511,3.1271,3.1271,3.1511,3.1511,3.1735,3.2168,3.2168,3.2034,3.1914,3.3036,3.3426,3.3387,3.4339,3.5113,3.5659,3.5399,3.5551,3.5829,3.5322,3.5618,3.6259,3.6523,3.6949,3.7456,3.7719,3.7807,3.7733,3.7471,3.7397,3.7338,3.7086,3.6631,3.6117,3.5619,3.5504,3.5504,3.5504,3.5504,3.5636,3.6149,3.5846,3.5504,3.5504,3.5504,3.5504,3.5504,3.5504,3.5504,3.5504,3.5504,3.5504,3.5504,3.5699,3.6013,3.6464,3.6282,3.6507,3.736,3.703,3.727,3.8365,3.7973,3.8272,3.9376,3.8958,3.896,3.9406,3.9406,3.9406,3.9406,3.9406,3.9406,0.0,0.0,0.0,0.0,0.0,0.0,0.0,0.0,0.0,0.0,0.0,0.0,0.0,0.0,0.0,0.0,0.0,0.0,0.0,0.0,0.0,0.0,0.0,0.0,0.0,0.0,0.0,0.0,0.0,2.4804,2.4804,2.4804,2.5042,2.5548,2.6933,2.8079,2.8931,2.9159,3.0003,3.1436,3.0792,3.0837,3.1466,3.1496,3.1511,3.1511,3.1511,3.1869,3.2527,3.317,3.3066,3.2616,3.4047,3.4132,3.3576,3.4354,3.4576,3.4503,3.4503,3.4952,3.5619,3.6322,3.6569,3.6722,3.75,3.7735,3.7573,3.6798,3.6569,3.6399,3.5685,3.5504,3.5504,3.5504,3.5504,3.5504,3.5504,3.5504,3.5504,3.5504,3.5504,3.5504,3.5504,3.5504,3.5504,3.5504,3.5504,3.5519,3.5534,3.5519,3.5519,3.5534,3.6103,3.6508,3.6523,3.706,3.7419,3.7464,3.7449,3.7734,3.8409,3.8422,3.8736,3.9391,3.9406,3.9406,3.9406,3.9406,3.9406,3.9406,3.9406,3.9406,1.9798,0.0,0.0,0.0,0.0,0.0,0.0,0.0,0.0,0.0,0.0,0.0,0.0,0.0,0.0,0.0,0.0,0.0,0.0,0.0,0.0,0.0,0.0,0.0,0.0,0.0,0.0,0.0,2.4804,2.4804,2.4804,2.4804,2.4879,2.5017,2.6005,2.6907,2.7689,2.8338,2.9141,3.0118,3.0372,3.0612,3.0792,3.1271,3.1511,3.1511,3.1511,3.1615,3.1795,3.1974,3.1944,3.1824,3.2221,3.2554,3.2796,3.302,3.3698,3.4503,3.4503,3.4952,3.5537,3.5734,3.5814,3.5862,3.6069,3.6148,3.6085,3.5878,3.5814,3.575,3.5538,3.5504,3.5504,3.5504,3.5504,3.5504,3.5504,3.5504,3.5504,3.5504,3.5504,3.5504,3.5504,3.5504,3.5504,3.5504,3.5504,3.5684,3.6148,3.5804,3.5684,3.6163,3.6389,3.6688,3.712,3.73,3.7806,3.8793,3.8392,3.8422,3.9092,3.9107,3.9212,3.9406,3.9406,3.9406,3.9406,3.9406,3.9406,3.9406,3.9406,3.9406,0.0,0.0,0.0,0.0,0.0,0.0,2.0641,2.1356,0.0,0.0,0.0,0.0,0.0,0.0,0.0,0.0,0.0,0.0,0.0,0.0,0.0,0.0,0.0,0.0,0.0,0.0,0.0,2.4503,2.4239,2.4086,2.4086,2.4327,2.4465,2.4465,2.553,2.644,2.7178,2.7755,2.8541,2.9593,2.9967,3.0253,3.0522,3.1182,3.1511,3.1511,3.1511,3.1511,3.1511,3.1511,3.1511,3.1511,3.1511,3.1735,3.2123,3.2407,3.317,3.4113,3.4398,3.4952,3.5504,3.5504,3.5504,3.5504,3.5504,3.5504,3.5504,3.5504,3.5504,3.5504,3.5504,3.5504,3.5504,3.5504,3.5504,3.5504,3.5504,3.5504,3.5504,3.5504,3.5504,3.5504,3.5504,3.5504,3.5504,3.5504,3.5504,3.5639,3.6028,3.5983,3.6058,3.6464,3.6987,3.7451,3.7793,3.8078,3.8569,3.9346,3.9017,3.899,3.9391,3.9406,3.9406,3.9406,3.9406,3.9406,3.9406,3.9406,3.9406,3.9391,3.8823,3.8868,0.0,0.0,0.0,0.0,0.0,0.0,2.049,2.1017,2.1557,0.0,0.0,0.0,0.0,0.0,0.0,0.0,0.0,0.0,0.0,0.0,0.0,0.0,0.0,0.0,0.0,2.498,2.449,2.3941,2.3396,2.3108,2.3108,2.3612,2.3904,2.3904,2.5112,2.6131,2.6867,2.7131,2.795,2.9261,2.9491,2.9877,3.0432,3.1152,3.1511,3.1511,3.1511,3.1511,3.1511,3.1511,3.1511,3.1511,3.1511,3.1511,3.1585,3.2258,3.2916,3.3589,3.4263,3.4952,3.5504,3.5504,3.5504,3.5504,3.5504,3.5504,3.5504,3.5504,3.5504,3.5504,3.5504,3.5504,3.5504,3.5504,3.5504,3.5504,3.5504,3.5504,3.5504,3.5504,3.5504,3.5504,3.5504,3.5504,3.5504,3.5504,3.5504,3.5549,3.5699,3.6163,3.6553,3.6703,3.7721,3.8409,3.8409,3.902,3.9406,3.9406,3.9406,3.9406,3.9406,3.9406,3.9406,3.9406,3.9406,3.9361,3.9287,3.9361,3.9406,3.9376,3.818,3.8255,0.0,0.0,0.0,0.0,0.0,0.0,2.0062,2.0427,2.088,0.0,0.0,0.0,0.0,0.0,0.0,0.0,0.0,0.0,0.0,0.0,0.0,0.0,0.0,0.0,0.0,2.4217,2.3901,2.3321,2.317,2.3108,2.3108,2.3208,2.3283,2.3283,2.3553,2.4073,2.487,2.5492,2.6254,2.7126,2.8802,2.9653,2.9817,3.0972,3.1511,3.1511,3.1511,3.1511,3.1511,3.1511,3.1511,3.1511,3.1511,3.1511,3.1585,3.2258,3.2916,3.3589,3.4263,3.4952,3.5504,3.5504,3.5504,3.5504,3.5504,3.5504,3.5504,3.5504,3.5504,3.5504,3.5504,3.5504,3.5504,3.5504,3.5504,3.5504,3.5504,3.5504,3.5504,3.5504,3.5504,3.5504,3.5504,3.5504,3.5504,3.5504,3.5504,3.5878,3.6894,3.6716,3.6898,3.793,3.8242,3.8409,3.8409,3.902,3.9406,3.9406,3.9406,3.9406,3.9406,3.9406,3.9406,3.9406,3.9406,3.9122,3.8601,3.9155,3.9406,3.9391,3.9137,3.9152,0.0,0.0,0.0,2.2365,0.0,0.0,0.0,2.0978,2.1142,2.1112,0.0,0.0,0.0,0.0,0.0,0.0,0.0,0.0,0.0,0.0,0.0,0.0,0.0,0.0,0.0,2.4167,2.3738,2.3145,2.3108,2.3108,2.3108,2.3108,2.3108,2.3108,2.3108,2.3484,2.4292,2.5021,2.5769,2.6525,2.8601,2.9593,2.9638,3.0927,3.1511,3.1511,3.1511,3.1316,3.1031,3.1361,3.1301,3.1031,3.1376,3.1511,3.163,3.2632,3.3215,3.3634,3.4637,3.522,3.5504,3.5504,3.5504,3.5504,3.5504,3.5504,3.5504,3.5504,3.5504,3.5504,3.5504,3.5504,3.5504,3.5504,3.5504,3.5504,3.5504,3.5504,3.5504,3.5504,3.5504,3.5504,3.5504,3.5504,3.5504,3.5504,3.5504,3.5848,3.6821,3.6941,3.7315,3.8305,3.8691,3.8901,3.8901,3.9212,3.9406,3.9406,3.9406,3.9257,3.8916,3.9212,3.9242,3.8916,3.8901,3.8571,3.7898,3.8571,3.8901,3.8901,3.8257,3.8464,0.0,0.0,0.0,0.0,0.0,2.2892,0.0,0.0,0.0,2.1726,0.0,0.0,0.0,0.0,0.0,0.0,0.0,0.0,0.0,0.0,0.0,0.0,0.0,0.0,0.0,2.4239,2.3738,2.3145,2.3208,2.3221,2.3108,2.3108,2.3108,2.3108,2.3108,2.341,2.406,2.4951,2.5701,2.6311,2.8414,2.9413,2.9443,3.0732,3.1316,3.1316,3.1451,3.1122,3.0538,3.1212,3.1092,3.0567,3.1241,3.1511,3.166,3.3006,3.3499,3.3679,3.504,3.5504,3.5504,3.5504,3.5504,3.5504,3.5504,3.5504,3.5504,3.5504,3.5504,3.5504,3.5504,3.5504,3.5504,3.5504,3.5504,3.5504,3.5504,3.5504,3.5504,3.5504,3.5504,3.5504,3.5504,3.5504,3.5504,3.5504,3.5609,3.5923,3.6582,3.721,3.7853,3.8512,3.9095,3.9406,3.9406,3.9272,3.9257,3.9391,3.9272,3.9017,3.8601,3.899,3.896,3.8424,3.8257,3.7943,3.7387,3.7943,3.8257,3.838,3.7347,3.7778,0.0,0.0,0.0,0.0,2.4346,0.0,0.0,0.0,2.2485,2.2471,0.0,0.0,0.0,0.0,0.0,0.0,0.0,0.0,0.0,0.0,0.0,0.0,0.0,0.0,0.0,0.0,2.3738,2.3145,2.36,2.3662,2.3133,2.3108,2.3108,2.3108,2.3108,2.314,2.3243,2.4682,2.5439,2.555,2.769,2.8712,2.8757,3.0043,3.0598,3.0657,3.1241,3.1122,3.0538,3.1212,3.1092,3.0567,3.1241,3.1511,3.166,3.3006,3.3499,3.3679,3.504,3.5504,3.5504,3.5504,3.5504,3.5504,3.5504,3.5504,3.5504,3.5504,3.5504,3.5504,3.5504,3.5504,3.5504,3.5504,3.5504,3.5504,3.5504,3.5504,3.5504,3.5504,3.5504,3.5504,3.5504,3.5504,3.5504,3.5504,3.5998,3.6613,3.7225,3.7883,3.8542,3.9212,3.9346,3.9406,3.9406,3.8856,3.8766,3.9361,3.8841,3.8751,3.9257,3.8796,3.8484,3.8409,3.7823,3.7479,3.7387,3.7479,3.7823,3.8409,3.8242,3.8616,0.0,0.0,0.0,0.0,0.0,0.0,0.0,0.0,2.367,0.0,0.0,0.0,0.0,0.0,0.0,0.0,0.0,0.0,0.0,0.0,0.0,0.0,0.0,0.0,0.0,0.0,0.0,0.0,0.0,2.3738,2.3133,2.3108,2.3108,2.3108,2.3108,2.3108,2.3108,2.4625,2.5398,2.5425,2.7576,2.8607,2.8637,2.9563,2.9982,2.9998,3.0657,3.0553,3.0058,3.1091,3.1092,3.0567,3.1241,3.1511,3.166,3.3006,3.3499,3.3679,3.504,3.5504,3.5504,3.5504,3.5504,3.5504,3.5504,3.5504,3.5504,3.5504,3.5504,3.5504,3.5504,3.5504,3.5504,3.5504,3.5504,3.5504,3.5504,3.5504,3.5504,3.5504,3.5504,3.5504,3.5504,3.5504,3.5504,3.5504,3.6073,3.6733,3.733,3.7988,3.8661,3.9331,3.9406,3.9406,3.9406,3.8796,3.8691,3.9361,3.8766,3.8691,3.9376,3.8751,3.823,3.7823,3.7539,3.7045,3.6312,3.6686,3.7195,3.7823,3.8212,3.8751,2.76,0.0,0.0,0.0,0.0,0.0,0.0,0.0,0.0,0.0,0.0,0.0,0.0,0.0,0.0,0.0,0.0,0.0,0.0,0.0,0.0,0.0,0.0,0.0,0.0,0.0,0.0,0.0,2.38,2.3888,2.3145,2.3108,2.3108,2.3108,2.3108,2.3108,2.3108,2.4625,2.5398,2.5425,2.7386,2.8336,2.8351,2.9024,2.9324,2.9353,2.9983,2.9998,2.9683,3.0777,3.0942,3.0567,3.1241,3.1511,3.1645,3.2796,3.3335,3.3664,3.4816,3.5355,3.5504,3.5504,3.5504,3.5504,3.5504,3.5504,3.5504,3.5504,3.5504,3.5504,3.5504,3.5504,3.5504,3.5504,3.5504,3.5504,3.5504,3.5504,3.5504,3.5504,3.5504,3.5504,3.5504,3.5504,3.5564,3.5744,3.6327,3.6971,3.7599,3.8257,3.8856,3.9346,3.9406,3.9406,3.9406,3.8796,3.8601,3.9092,3.8841,3.8901,3.9376,3.8586,3.7898,3.7402,3.706,3.6522,3.5774,3.6252,3.6806,3.7402,3.7898,3.8586,0.0,0.0,0.0,2.76,0.0,0.0,0.0,0.0,2.6426,0.0,0.0,0.0,0.0,0.0,0.0,0.0,0.0,0.0,0.0,0.0,0.0,0.0,0.0,0.0,0.0,0.0,0.0,2.3183,2.4136,2.4274,2.3158,2.3108,2.3108,2.3108,2.3108,2.3108,2.3108,2.4625,2.5398,2.5412,2.6919,2.763,2.7645,2.8336,2.8637,2.8667,2.9338,2.9623,2.9638,3.0268,3.0522,3.0567,3.1241,3.1511,3.1585,3.2288,3.2946,3.3589,3.4293,3.4967,3.5504,3.5504,3.5504,3.5504,3.5504,3.5504,3.5504,3.5504,3.5504,3.5504,3.5504,3.5504,3.5504,3.5504,3.5504,3.5504,3.5504,3.5504,3.5504,3.5504,3.5504,3.5504,3.5504,3.5504,3.5729,3.6374,3.6985,3.7614,3.8272,3.896,3.9376,3.9406,3.9406,3.9406,3.9406,3.8796,3.8424,3.8422,3.9017,3.9376,3.9406,3.812,3.7417,3.7387,3.6193,3.5863,3.6464,3.6493,3.6806,3.7387,3.7417,3.8135,0.0,0.0,2.76,2.76,0.0,0.0,0.0,0.0,0.0,0.0,0.0,0.0,0.0,0.0,0.0,0.0,0.0,0.0,0.0,0.0,0.0,0.0,0.0,0.0,0.0,0.0,0.0,2.3158,2.3825,2.3926,0.0,2.3487,2.3703,2.3703,2.3703,2.3703,2.3703,2.4825,2.5161,2.4695,2.6666,2.758,2.7546,2.78,2.8186,2.8607,2.8831,2.8949,2.8994,2.9638,3.0133,3.0522,3.0747,3.1107,3.1585,3.2258,3.2916,3.3649,3.4771,3.531,3.5504,3.5504,3.5504,3.5504,3.5504,3.5504,3.5504,3.5504,3.5504,3.5504,3.5504,3.5504,3.5504,3.5504,3.5504,3.5504,3.5504,3.5504,3.5504,3.5504,3.5504,3.5504,3.5504,3.5863,3.6254,3.6464,3.7389,3.8138,3.8362,3.8601,3.8916,3.9346,3.9005,3.8931,3.9361,3.9182,3.8871,3.8422,3.8601,3.8736,3.8736,3.7883,3.721,3.6806,3.6372,3.6074,3.5833,3.5833,3.6163,3.6791,3.6791,3.727,2.76,2.76,0.0,2.76,2.76,0.0,2.76,0.0,0.0,0.0,0.0,0.0,0.0,0.0,0.0,0.0,0.0,0.0,0.0,2.3108,0.0,0.0,0.0,0.0,0.0,0.0,2.3738,2.3145,2.365,2.3738,0.0,0.0,2.4004,2.4004,2.4192,2.4192,2.4004,2.4854,2.5097,2.4709,2.6402,2.7319,2.7545,2.7588,2.7839,2.8246,2.8246,2.838,2.8637,2.9069,2.9743,3.0507,3.0507,3.0912,3.1555,3.1989,3.2721,3.3649,3.4756,3.5295,3.5504,3.5504,3.5504,3.5504,3.5504,3.5504,3.5504,3.5504,3.5504,3.5504,3.5504,3.5504,3.5504,3.5504,3.5504,3.5504,3.5504,3.5504,3.5504,3.5504,3.5504,3.5579,3.5804,3.6207,3.6568,3.6791,3.7509,3.8123,3.8362,3.8182,3.8212,3.8629,3.8512,3.8661,3.9346,3.9167,3.8958,3.8766,3.8527,3.8409,3.8409,3.7539,3.7105,3.7182,3.6508,3.6148,3.6161,3.5712,3.5729,3.6148,3.6389,3.6567]}]]